Wetterdaten: Freitag, 01.03.2019
Datum Zeit Temp. A. Feuchte A. Luftdruck Regen Wind Richtung Richtung Sonnenschein ET UV Solar Taupunkt Windchill Windböen
01.03.2019 00:00 6,3 °C 74 % 1018,0 hPa 0,0 mm 14,3 km/h (3 Bft) W 275 ° 0 min 0,000 mm 0,0 UV-I 0 W/m² 2,0 °C 3,5 °C 20,9 km/h (4 Bft)
01.03.2019 00:01 6,3 °C 74 % 1018,1 hPa 0,0 mm 11,1 km/h (2 Bft) W-SW 253 ° 0 min 0,000 mm 0,0 UV-I 0 W/m² 2,0 °C 4,0 °C 16,1 km/h (3 Bft)
01.03.2019 00:03 6,2 °C 74 % 1017,9 hPa 0,0 mm 12,1 km/h (2 Bft) W-NW 286 ° 0 min 0,000 mm 0,0 UV-I 0 W/m² 1,9 °C 3,7 °C 17,7 km/h (3 Bft)
01.03.2019 00:04 6,2 °C 74 % 1018,0 hPa 0,0 mm 9,9 km/h (2 Bft) W 278 ° 0 min 0,000 mm 0,0 UV-I 0 W/m² 1,9 °C 4,1 °C 17,7 km/h (3 Bft)
01.03.2019 00:05 6,2 °C 74 % 1017,9 hPa 0,0 mm 5,1 km/h (1 Bft) W-SW 251 ° 0 min 0,000 mm 0,0 UV-I 0 W/m² 1,9 °C 5,4 °C 6,4 km/h (2 Bft)
01.03.2019 00:06 6,2 °C 74 % 1017,9 hPa 0,0 mm 11,4 km/h (2 Bft) S-SW 208 ° 0 min 0,000 mm 0,0 UV-I 0 W/m² 1,9 °C 3,8 °C 19,3 km/h (3 Bft)
01.03.2019 00:07 6,1 °C 74 % 1017,8 hPa 0,0 mm 6,6 km/h (2 Bft) W 259 ° 0 min 0,000 mm 0,0 UV-I 0 W/m² 1,8 °C 4,8 °C 11,3 km/h (2 Bft)
01.03.2019 00:08 6,1 °C 74 % 1017,8 hPa 0,0 mm 4,6 km/h (1 Bft) W 265 ° 0 min 0,000 mm 0,0 UV-I 0 W/m² 1,8 °C 5,5 °C 6,4 km/h (2 Bft)
01.03.2019 00:09 6,1 °C 74 % 1017,8 hPa 0,0 mm 5,4 km/h (1 Bft) W-SW 249 ° 0 min 0,000 mm 0,0 UV-I 0 W/m² 1,8 °C 5,2 °C 11,3 km/h (2 Bft)
01.03.2019 00:10 6,1 °C 74 % 1017,9 hPa 0,0 mm 5,7 km/h (1 Bft) W-SW 246 ° 0 min 0,000 mm 0,0 UV-I 0 W/m² 1,8 °C 5,1 °C 8,0 km/h (2 Bft)
01.03.2019 00:11 6,1 °C 74 % 1017,8 hPa 0,0 mm 6,3 km/h (2 Bft) W 267 ° 0 min 0,000 mm 0,0 UV-I 0 W/m² 1,8 °C 4,9 °C 14,5 km/h (3 Bft)
01.03.2019 00:12 6,1 °C 74 % 1017,8 hPa 0,0 mm 5,5 km/h (1 Bft) W-SW 246 ° 0 min 0,000 mm 0,0 UV-I 0 W/m² 1,8 °C 5,2 °C 12,9 km/h (3 Bft)
01.03.2019 00:13 6,1 °C 74 % 1017,8 hPa 0,0 mm 11,0 km/h (2 Bft) W-SW 237 ° 0 min 0,000 mm 0,0 UV-I 0 W/m² 1,8 °C 3,8 °C 19,3 km/h (3 Bft)
01.03.2019 00:14 6,1 °C 74 % 1017,8 hPa 0,0 mm 14,6 km/h (3 Bft) W 271 ° 0 min 0,000 mm 0,0 UV-I 0 W/m² 1,8 °C 3,2 °C 19,3 km/h (3 Bft)
01.03.2019 00:15 6,1 °C 74 % 1017,7 hPa 0,0 mm 11,7 km/h (2 Bft) W-NW 286 ° 0 min 0,000 mm 0,0 UV-I 0 W/m² 1,8 °C 3,6 °C 14,5 km/h (3 Bft)
01.03.2019 00:16 6,0 °C 74 % 1017,8 hPa 0,0 mm 17,8 km/h (3 Bft) W 269 ° 0 min 0,000 mm 0,0 UV-I 0 W/m² 1,7 °C 2,6 °C 24,1 km/h (4 Bft)
01.03.2019 00:17 5,9 °C 74 % 1017,8 hPa 0,0 mm 13,8 km/h (3 Bft) W-NW 286 ° 0 min 0,000 mm 0,0 UV-I 0 W/m² 1,6 °C 3,0 °C 17,7 km/h (3 Bft)
01.03.2019 00:18 5,9 °C 74 % 1017,8 hPa 0,0 mm 16,7 km/h (3 Bft) W-NW 284 ° 0 min 0,000 mm 0,0 UV-I 0 W/m² 1,6 °C 2,6 °C 25,7 km/h (4 Bft)
01.03.2019 00:19 5,9 °C 74 % 1017,7 hPa 0,0 mm 13,1 km/h (3 Bft) W 263 ° 0 min 0,000 mm 0,0 UV-I 0 W/m² 1,6 °C 3,2 °C 19,3 km/h (3 Bft)
01.03.2019 00:20 5,9 °C 74 % 1017,8 hPa 0,0 mm 9,5 km/h (2 Bft) W 265 ° 0 min 0,000 mm 0,0 UV-I 0 W/m² 1,6 °C 3,8 °C 12,9 km/h (3 Bft)
01.03.2019 00:21 5,9 °C 74 % 1017,8 hPa 0,0 mm 10,3 km/h (2 Bft) W 264 ° 0 min 0,000 mm 0,0 UV-I 0 W/m² 1,6 °C 3,7 °C 17,7 km/h (3 Bft)
01.03.2019 00:22 5,9 °C 73 % 1017,8 hPa 0,0 mm 16,2 km/h (3 Bft) SW 227 ° 0 min 0,000 mm 0,0 UV-I 0 W/m² 1,4 °C 2,7 °C 19,3 km/h (3 Bft)
01.03.2019 00:23 6,0 °C 73 % 1017,8 hPa 0,0 mm 18,8 km/h (3 Bft) W 263 ° 0 min 0,000 mm 0,0 UV-I 0 W/m² 1,5 °C 2,5 °C 25,7 km/h (4 Bft)
01.03.2019 00:24 5,9 °C 73 % 1017,7 hPa 0,0 mm 14,9 km/h (3 Bft) W 261 ° 0 min 0,000 mm 0,0 UV-I 0 W/m² 1,4 °C 2,9 °C 20,9 km/h (4 Bft)
01.03.2019 00:25 6,0 °C 73 % 1017,7 hPa 0,0 mm 10,6 km/h (2 Bft) S-SW 208 ° 0 min 0,000 mm 0,0 UV-I 0 W/m² 1,5 °C 3,7 °C 17,7 km/h (3 Bft)
01.03.2019 00:26 5,9 °C 73 % 1017,7 hPa 0,0 mm 10,8 km/h (2 Bft) W 267 ° 0 min 0,000 mm 0,0 UV-I 0 W/m² 1,4 °C 3,6 °C 17,7 km/h (3 Bft)
01.03.2019 00:27 5,9 °C 73 % 1017,7 hPa 0,0 mm 11,3 km/h (2 Bft) W-SW 256 ° 0 min 0,000 mm 0,0 UV-I 0 W/m² 1,4 °C 3,5 °C 14,5 km/h (3 Bft)
01.03.2019 00:28 5,9 °C 74 % 1017,8 hPa 0,0 mm 17,1 km/h (3 Bft) W-SW 243 ° 0 min 0,000 mm 0,0 UV-I 0 W/m² 1,6 °C 2,6 °C 30,6 km/h (5 Bft)
01.03.2019 00:29 5,9 °C 74 % 1017,8 hPa 0,0 mm 13,9 km/h (3 Bft) W-SW 258 ° 0 min 0,000 mm 0,0 UV-I 0 W/m² 1,6 °C 3,0 °C 17,7 km/h (3 Bft)
01.03.2019 00:30 5,9 °C 74 % 1017,7 hPa 0,0 mm 13,4 km/h (3 Bft) W 261 ° 0 min 0,000 mm 0,0 UV-I 0 W/m² 1,6 °C 3,1 °C 19,3 km/h (3 Bft)
01.03.2019 00:31 5,8 °C 74 % 1017,7 hPa 0,0 mm 10,3 km/h (2 Bft) W-NW 288 ° 0 min 0,000 mm 0,0 UV-I 0 W/m² 1,5 °C 3,6 °C 14,5 km/h (3 Bft)
01.03.2019 00:32 5,8 °C 74 % 1017,7 hPa 0,0 mm 9,9 km/h (2 Bft) W-NW 292 ° 0 min 0,000 mm 0,0 UV-I 0 W/m² 1,5 °C 3,6 °C 16,1 km/h (3 Bft)
01.03.2019 00:33 5,8 °C 74 % 1017,7 hPa 0,0 mm 12,0 km/h (2 Bft) W-SW 252 ° 0 min 0,000 mm 0,0 UV-I 0 W/m² 1,5 °C 3,2 °C 16,1 km/h (3 Bft)
01.03.2019 00:34 5,7 °C 74 % 1017,7 hPa 0,0 mm 9,7 km/h (2 Bft) W-SW 256 ° 0 min 0,000 mm 0,0 UV-I 0 W/m² 1,4 °C 3,6 °C 14,5 km/h (3 Bft)
01.03.2019 00:35 5,7 °C 74 % 1017,6 hPa 0,0 mm 8,2 km/h (2 Bft) W 281 ° 0 min 0,000 mm 0,0 UV-I 0 W/m² 1,4 °C 3,9 °C 12,9 km/h (3 Bft)
01.03.2019 00:36 5,7 °C 74 % 1017,7 hPa 0,0 mm 8,2 km/h (2 Bft) W-SW 238 ° 0 min 0,000 mm 0,0 UV-I 0 W/m² 1,4 °C 3,9 °C 11,3 km/h (2 Bft)
01.03.2019 00:37 5,7 °C 75 % 1017,7 hPa 0,0 mm 8,5 km/h (2 Bft) W 267 ° 0 min 0,000 mm 0,0 UV-I 0 W/m² 1,6 °C 3,8 °C 14,5 km/h (3 Bft)
01.03.2019 00:38 5,7 °C 74 % 1017,7 hPa 0,0 mm 11,3 km/h (2 Bft) W 267 ° 0 min 0,000 mm 0,0 UV-I 0 W/m² 1,4 °C 3,2 °C 17,7 km/h (3 Bft)
01.03.2019 00:39 5,7 °C 74 % 1017,5 hPa 0,0 mm 11,8 km/h (2 Bft) W 263 ° 0 min 0,000 mm 0,0 UV-I 0 W/m² 1,4 °C 3,1 °C 16,1 km/h (3 Bft)
01.03.2019 00:40 5,7 °C 74 % 1017,5 hPa 0,0 mm 9,7 km/h (2 Bft) SW 228 ° 0 min 0,000 mm 0,0 UV-I 0 W/m² 1,4 °C 3,6 °C 12,9 km/h (3 Bft)
01.03.2019 00:41 5,7 °C 74 % 1017,5 hPa 0,0 mm 10,3 km/h (2 Bft) SW 229 ° 0 min 0,000 mm 0,0 UV-I 0 W/m² 1,4 °C 3,4 °C 22,5 km/h (4 Bft)
01.03.2019 00:42 5,8 °C 74 % 1017,5 hPa 0,0 mm 7,4 km/h (2 Bft) W 259 ° 0 min 0,000 mm 0,0 UV-I 0 W/m² 1,5 °C 4,2 °C 11,3 km/h (2 Bft)
01.03.2019 00:43 5,8 °C 74 % 1017,5 hPa 0,0 mm 9,8 km/h (2 Bft) W-SW 254 ° 0 min 0,000 mm 0,0 UV-I 0 W/m² 1,5 °C 3,7 °C 14,5 km/h (3 Bft)
01.03.2019 00:44 5,8 °C 73 % 1017,5 hPa 0,0 mm 9,7 km/h (2 Bft) W-NW 285 ° 0 min 0,000 mm 0,0 UV-I 0 W/m² 1,3 °C 3,7 °C 14,5 km/h (3 Bft)
01.03.2019 00:45 5,9 °C 73 % 1017,4 hPa 0,0 mm 9,1 km/h (2 Bft) SW 222 ° 0 min 0,000 mm 0,0 UV-I 0 W/m² 1,4 °C 3,9 °C 16,1 km/h (3 Bft)
01.03.2019 00:46 5,9 °C 73 % 1017,4 hPa 0,0 mm 9,0 km/h (2 Bft) W-SW 238 ° 0 min 0,000 mm 0,0 UV-I 0 W/m² 1,4 °C 4,0 °C 17,7 km/h (3 Bft)
01.03.2019 00:47 5,9 °C 73 % 1017,4 hPa 0,0 mm 4,4 km/h (1 Bft) W-SW 247 ° 0 min 0,000 mm 0,0 UV-I 0 W/m² 1,4 °C 5,9 °C 8,0 km/h (2 Bft)
01.03.2019 00:48 5,9 °C 73 % 1017,4 hPa 0,0 mm 12,0 km/h (2 Bft) SW 214 ° 0 min 0,000 mm 0,0 UV-I 0 W/m² 1,4 °C 3,3 °C 24,1 km/h (4 Bft)
01.03.2019 00:49 5,9 °C 73 % 1017,4 hPa 0,0 mm 10,2 km/h (2 Bft) W-SW 242 ° 0 min 0,000 mm 0,0 UV-I 0 W/m² 1,4 °C 3,7 °C 14,5 km/h (3 Bft)
01.03.2019 00:50 5,9 °C 73 % 1017,4 hPa 0,0 mm 6,4 km/h (2 Bft) W 275 ° 0 min 0,000 mm 0,0 UV-I 0 W/m² 1,4 °C 4,6 °C 11,3 km/h (2 Bft)
01.03.2019 00:51 5,9 °C 73 % 1017,4 hPa 0,0 mm 7,8 km/h (2 Bft) W-SW 246 ° 0 min 0,000 mm 0,0 UV-I 0 W/m² 1,4 °C 4,2 °C 12,9 km/h (3 Bft)
01.03.2019 00:52 5,9 °C 73 % 1017,4 hPa 0,0 mm 6,8 km/h (2 Bft) W 263 ° 0 min 0,000 mm 0,0 UV-I 0 W/m² 1,4 °C 4,5 °C 11,3 km/h (2 Bft)
01.03.2019 00:53 5,9 °C 73 % 1017,3 hPa 0,0 mm 2,7 km/h (1 Bft) SW 223 ° 0 min 0,000 mm 0,0 UV-I 0 W/m² 1,4 °C 5,9 °C 4,8 km/h (1 Bft)
01.03.2019 00:54 5,9 °C 73 % 1017,3 hPa 0,0 mm 5,7 km/h (1 Bft) W 276 ° 0 min 0,000 mm 0,0 UV-I 0 W/m² 1,4 °C 4,9 °C 11,3 km/h (2 Bft)
01.03.2019 00:55 5,9 °C 73 % 1017,3 hPa 0,0 mm 8,0 km/h (2 Bft) W 266 ° 0 min 0,000 mm 0,0 UV-I 0 W/m² 1,4 °C 4,2 °C 16,1 km/h (3 Bft)
01.03.2019 00:56 5,9 °C 73 % 1017,3 hPa 0,0 mm 4,6 km/h (1 Bft) W-SW 255 ° 0 min 0,000 mm 0,0 UV-I 0 W/m² 1,4 °C 5,3 °C 6,4 km/h (2 Bft)
01.03.2019 00:57 5,9 °C 73 % 1017,4 hPa 0,0 mm 5,6 km/h (1 Bft) W-SW 251 ° 0 min 0,000 mm 0,0 UV-I 0 W/m² 1,4 °C 4,9 °C 12,9 km/h (3 Bft)
01.03.2019 00:58 5,9 °C 73 % 1017,4 hPa 0,0 mm 8,5 km/h (2 Bft) W-SW 237 ° 0 min 0,000 mm 0,0 UV-I 0 W/m² 1,4 °C 4,1 °C 14,5 km/h (3 Bft)
01.03.2019 00:59 5,8 °C 74 % 1017,4 hPa 0,0 mm 8,9 km/h (2 Bft) W 260 ° 0 min 0,000 mm 0,0 UV-I 0 W/m² 1,5 °C 3,9 °C 12,9 km/h (3 Bft)
01.03.2019 01:00 5,8 °C 73 % 1017,4 hPa 0,0 mm 5,8 km/h (2 Bft) W 269 ° 0 min 0,000 mm 0,0 UV-I 0 W/m² 1,3 °C 4,7 °C 11,3 km/h (2 Bft)
01.03.2019 01:01 5,8 °C 74 % 1017,3 hPa 0,0 mm 6,7 km/h (2 Bft) W-SW 258 ° 0 min 0,025 mm 0,0 UV-I 0 W/m² 1,5 °C 4,4 °C 9,7 km/h (2 Bft)
01.03.2019 01:02 5,7 °C 74 % 1017,3 hPa 0,0 mm 6,3 km/h (2 Bft) W-SW 254 ° 0 min 0,000 mm 0,0 UV-I 0 W/m² 1,4 °C 4,4 °C 11,3 km/h (2 Bft)
01.03.2019 01:03 5,7 °C 74 % 1017,3 hPa 0,0 mm 5,8 km/h (2 Bft) W-NW 288 ° 0 min 0,000 mm 0,0 UV-I 0 W/m² 1,4 °C 4,6 °C 12,9 km/h (3 Bft)
01.03.2019 01:04 5,6 °C 74 % 1017,3 hPa 0,0 mm 6,7 km/h (2 Bft) W 269 ° 0 min 0,000 mm 0,0 UV-I 0 W/m² 1,3 °C 4,2 °C 11,3 km/h (2 Bft)
01.03.2019 01:05 5,5 °C 74 % 1017,2 hPa 0,0 mm 7,7 km/h (2 Bft) W-SW 257 ° 0 min 0,000 mm 0,0 UV-I 0 W/m² 1,2 °C 3,8 °C 14,5 km/h (3 Bft)
01.03.2019 01:06 5,5 °C 74 % 1017,2 hPa 0,0 mm 15,0 km/h (3 Bft) W-NW 285 ° 0 min 0,000 mm 0,0 UV-I 0 W/m² 1,2 °C 2,4 °C 20,9 km/h (4 Bft)
01.03.2019 01:07 5,4 °C 75 % 1017,3 hPa 0,0 mm 11,4 km/h (2 Bft) SW 232 ° 0 min 0,000 mm 0,0 UV-I 0 W/m² 1,3 °C 2,9 °C 16,1 km/h (3 Bft)
01.03.2019 01:08 5,4 °C 75 % 1017,3 hPa 0,0 mm 4,8 km/h (1 Bft) SW 231 ° 0 min 0,000 mm 0,0 UV-I 0 W/m² 1,3 °C 4,6 °C 11,3 km/h (2 Bft)
01.03.2019 01:09 5,5 °C 75 % 1017,3 hPa 0,0 mm 6,8 km/h (2 Bft) W-SW 257 ° 0 min 0,000 mm 0,0 UV-I 0 W/m² 1,4 °C 4,1 °C 11,3 km/h (2 Bft)
01.03.2019 01:10 5,4 °C 75 % 1017,2 hPa 0,0 mm 8,7 km/h (2 Bft) W-SW 250 ° 0 min 0,000 mm 0,0 UV-I 0 W/m² 1,3 °C 3,4 °C 14,5 km/h (3 Bft)
01.03.2019 01:11 5,4 °C 75 % 1017,3 hPa 0,0 mm 6,3 km/h (2 Bft) SW 231 ° 0 min 0,000 mm 0,0 UV-I 0 W/m² 1,3 °C 4,1 °C 11,3 km/h (2 Bft)
01.03.2019 01:12 5,5 °C 75 % 1017,2 hPa 0,0 mm 4,0 km/h (1 Bft) W-SW 244 ° 0 min 0,000 mm 0,0 UV-I 0 W/m² 1,4 °C 5,5 °C 6,4 km/h (2 Bft)
01.03.2019 01:13 5,5 °C 75 % 1017,2 hPa 0,0 mm 13,5 km/h (3 Bft) W 261 ° 0 min 0,000 mm 0,0 UV-I 0 W/m² 1,4 °C 2,6 °C 17,7 km/h (3 Bft)
01.03.2019 01:14 5,5 °C 75 % 1017,2 hPa 0,0 mm 12,5 km/h (3 Bft) W 259 ° 0 min 0,000 mm 0,0 UV-I 0 W/m² 1,4 °C 2,8 °C 22,5 km/h (4 Bft)
01.03.2019 01:15 5,5 °C 75 % 1017,2 hPa 0,0 mm 10,9 km/h (2 Bft) W-NW 288 ° 0 min 0,000 mm 0,0 UV-I 0 W/m² 1,4 °C 3,1 °C 16,1 km/h (3 Bft)
01.03.2019 01:16 5,5 °C 75 % 1017,1 hPa 0,0 mm 12,4 km/h (3 Bft) W 274 ° 0 min 0,000 mm 0,0 UV-I 0 W/m² 1,4 °C 2,8 °C 20,9 km/h (4 Bft)
01.03.2019 01:17 5,5 °C 75 % 1017,2 hPa 0,0 mm 10,7 km/h (2 Bft) W 267 ° 0 min 0,000 mm 0,0 UV-I 0 W/m² 1,4 °C 3,1 °C 16,1 km/h (3 Bft)
01.03.2019 01:18 5,4 °C 75 % 1017,2 hPa 0,0 mm 11,6 km/h (2 Bft) W-SW 246 ° 0 min 0,000 mm 0,0 UV-I 0 W/m² 1,3 °C 2,8 °C 16,1 km/h (3 Bft)
01.03.2019 01:19 5,4 °C 75 % 1017,2 hPa 0,0 mm 7,6 km/h (2 Bft) SW 223 ° 0 min 0,000 mm 0,0 UV-I 0 W/m² 1,3 °C 3,7 °C 17,7 km/h (3 Bft)
01.03.2019 01:20 5,4 °C 75 % 1017,1 hPa 0,0 mm 9,7 km/h (2 Bft) W 263 ° 0 min 0,000 mm 0,0 UV-I 0 W/m² 1,3 °C 3,2 °C 16,1 km/h (3 Bft)
01.03.2019 01:21 5,4 °C 75 % 1017,0 hPa 0,0 mm 6,4 km/h (2 Bft) W-SW 252 ° 0 min 0,000 mm 0,0 UV-I 0 W/m² 1,3 °C 4,1 °C 11,3 km/h (2 Bft)
01.03.2019 01:22 5,4 °C 75 % 1017,0 hPa 0,0 mm 11,4 km/h (2 Bft) W 273 ° 0 min 0,000 mm 0,0 UV-I 0 W/m² 1,3 °C 2,9 °C 19,3 km/h (3 Bft)
01.03.2019 01:23 5,4 °C 75 % 1017,0 hPa 0,0 mm 15,5 km/h (3 Bft) W 261 ° 0 min 0,000 mm 0,0 UV-I 0 W/m² 1,3 °C 2,2 °C 22,5 km/h (4 Bft)
01.03.2019 01:24 5,4 °C 75 % 1017,0 hPa 0,0 mm 12,1 km/h (2 Bft) W 268 ° 0 min 0,000 mm 0,0 UV-I 0 W/m² 1,3 °C 2,7 °C 16,1 km/h (3 Bft)
01.03.2019 01:25 5,3 °C 75 % 1016,9 hPa 0,0 mm 8,2 km/h (2 Bft) W 267 ° 0 min 0,000 mm 0,0 UV-I 0 W/m² 1,2 °C 3,4 °C 12,9 km/h (3 Bft)
01.03.2019 01:26 5,3 °C 75 % 1016,9 hPa 0,0 mm 8,0 km/h (2 Bft) W-SW 257 ° 0 min 0,000 mm 0,0 UV-I 0 W/m² 1,2 °C 3,5 °C 12,9 km/h (3 Bft)
01.03.2019 01:27 5,3 °C 75 % 1016,9 hPa 0,0 mm 6,6 km/h (2 Bft) W-NW 286 ° 0 min 0,000 mm 0,0 UV-I 0 W/m² 1,2 °C 3,9 °C 9,7 km/h (2 Bft)
01.03.2019 01:28 5,3 °C 75 % 1016,9 hPa 0,0 mm 4,4 km/h (1 Bft) W 260 ° 0 min 0,000 mm 0,0 UV-I 0 W/m² 1,2 °C 5,3 °C 6,4 km/h (2 Bft)
01.03.2019 01:29 5,3 °C 75 % 1016,9 hPa 0,0 mm 8,3 km/h (2 Bft) W-SW 241 ° 0 min 0,000 mm 0,0 UV-I 0 W/m² 1,2 °C 3,4 °C 12,9 km/h (3 Bft)
01.03.2019 01:30 5,3 °C 75 % 1016,9 hPa 0,0 mm 7,5 km/h (2 Bft) W 265 ° 0 min 0,000 mm 0,0 UV-I 0 W/m² 1,2 °C 3,6 °C 11,3 km/h (2 Bft)
01.03.2019 01:31 5,2 °C 75 % 1016,8 hPa 0,0 mm 7,9 km/h (2 Bft) W-NW 292 ° 0 min 0,000 mm 0,0 UV-I 0 W/m² 1,1 °C 3,4 °C 11,3 km/h (2 Bft)
01.03.2019 01:32 5,2 °C 76 % 1016,9 hPa 0,0 mm 6,0 km/h (2 Bft) W 260 ° 0 min 0,000 mm 0,0 UV-I 0 W/m² 1,3 °C 4,0 °C 12,9 km/h (3 Bft)
01.03.2019 01:33 5,2 °C 76 % 1016,9 hPa 0,0 mm 11,2 km/h (2 Bft) W 259 ° 0 min 0,000 mm 0,0 UV-I 0 W/m² 1,3 °C 2,7 °C 14,5 km/h (3 Bft)
01.03.2019 01:34 5,2 °C 76 % 1016,9 hPa 0,0 mm 10,6 km/h (2 Bft) W 281 ° 0 min 0,000 mm 0,0 UV-I 0 W/m² 1,3 °C 2,8 °C 14,5 km/h (3 Bft)
01.03.2019 01:35 5,2 °C 76 % 1016,9 hPa 0,0 mm 8,7 km/h (2 Bft) W-SW 256 ° 0 min 0,000 mm 0,0 UV-I 0 W/m² 1,3 °C 3,2 °C 14,5 km/h (3 Bft)
01.03.2019 01:36 5,2 °C 76 % 1016,9 hPa 0,0 mm 12,7 km/h (3 Bft) W 265 ° 0 min 0,000 mm 0,0 UV-I 0 W/m² 1,3 °C 2,4 °C 16,1 km/h (3 Bft)
01.03.2019 01:37 5,1 °C 76 % 1016,9 hPa 0,0 mm 13,8 km/h (3 Bft) W 275 ° 0 min 0,000 mm 0,0 UV-I 0 W/m² 1,2 °C 2,1 °C 17,7 km/h (3 Bft)
01.03.2019 01:38 5,2 °C 76 % 1016,9 hPa 0,0 mm 14,1 km/h (3 Bft) W-SW 250 ° 0 min 0,000 mm 0,0 UV-I 0 W/m² 1,3 °C 2,1 °C 20,9 km/h (4 Bft)
01.03.2019 01:39 5,2 °C 76 % 1016,9 hPa 0,0 mm 6,8 km/h (2 Bft) W-SW 240 ° 0 min 0,000 mm 0,0 UV-I 0 W/m² 1,3 °C 3,7 °C 12,9 km/h (3 Bft)
01.03.2019 01:40 5,3 °C 76 % 1016,9 hPa 0,0 mm 6,0 km/h (2 Bft) W 271 ° 0 min 0,000 mm 0,0 UV-I 0 W/m² 1,4 °C 4,1 °C 11,3 km/h (2 Bft)
01.03.2019 01:41 5,3 °C 76 % 1016,8 hPa 0,0 mm 9,9 km/h (2 Bft) W-SW 245 ° 0 min 0,000 mm 0,0 UV-I 0 W/m² 1,4 °C 3,0 °C 14,5 km/h (3 Bft)
01.03.2019 01:42 5,3 °C 75 % 1016,8 hPa 0,0 mm 8,5 km/h (2 Bft) W 279 ° 0 min 0,000 mm 0,0 UV-I 0 W/m² 1,2 °C 3,4 °C 14,5 km/h (3 Bft)
01.03.2019 01:43 5,3 °C 75 % 1016,9 hPa 0,0 mm 8,2 km/h (2 Bft) W 263 ° 0 min 0,000 mm 0,0 UV-I 0 W/m² 1,2 °C 3,4 °C 14,5 km/h (3 Bft)
01.03.2019 01:44 5,3 °C 75 % 1016,8 hPa 0,0 mm 10,5 km/h (2 Bft) W-NW 292 ° 0 min 0,000 mm 0,0 UV-I 0 W/m² 1,2 °C 2,9 °C 20,9 km/h (4 Bft)
01.03.2019 01:45 5,4 °C 75 % 1016,8 hPa 0,0 mm 15,2 km/h (3 Bft) W-SW 258 ° 0 min 0,000 mm 0,0 UV-I 0 W/m² 1,3 °C 2,2 °C 20,9 km/h (4 Bft)
01.03.2019 01:46 5,4 °C 75 % 1016,8 hPa 0,0 mm 15,1 km/h (3 Bft) W-SW 246 ° 0 min 0,000 mm 0,0 UV-I 0 W/m² 1,3 °C 2,2 °C 20,9 km/h (4 Bft)
01.03.2019 01:47 5,5 °C 75 % 1016,8 hPa 0,0 mm 11,8 km/h (2 Bft) W-SW 242 ° 0 min 0,000 mm 0,0 UV-I 0 W/m² 1,4 °C 2,9 °C 17,7 km/h (3 Bft)
01.03.2019 01:48 5,6 °C 75 % 1016,7 hPa 0,0 mm 14,5 km/h (3 Bft) W 277 ° 0 min 0,000 mm 0,0 UV-I 0 W/m² 1,5 °C 2,6 °C 20,9 km/h (4 Bft)
01.03.2019 01:49 5,6 °C 74 % 1016,7 hPa 0,0 mm 10,5 km/h (2 Bft) SW 223 ° 0 min 0,000 mm 0,0 UV-I 0 W/m² 1,3 °C 3,3 °C 16,1 km/h (3 Bft)
01.03.2019 01:50 5,6 °C 74 % 1016,7 hPa 0,0 mm 12,0 km/h (2 Bft) NW 315 ° 0 min 0,000 mm 0,0 UV-I 0 W/m² 1,3 °C 3,0 °C 19,3 km/h (3 Bft)
01.03.2019 01:51 5,7 °C 74 % 1016,7 hPa 0,0 mm 9,7 km/h (2 Bft) W-SW 244 ° 0 min 0,000 mm 0,0 UV-I 0 W/m² 1,4 °C 3,6 °C 19,3 km/h (3 Bft)
01.03.2019 01:52 5,7 °C 74 % 1016,7 hPa 0,0 mm 14,8 km/h (3 Bft) W 275 ° 0 min 0,000 mm 0,0 UV-I 0 W/m² 1,4 °C 2,6 °C 19,3 km/h (3 Bft)
01.03.2019 01:53 5,7 °C 74 % 1016,7 hPa 0,0 mm 9,6 km/h (2 Bft) W 267 ° 0 min 0,000 mm 0,0 UV-I 0 W/m² 1,4 °C 3,6 °C 12,9 km/h (3 Bft)
01.03.2019 01:54 5,6 °C 74 % 1016,7 hPa 0,0 mm 9,9 km/h (2 Bft) W-NW 294 ° 0 min 0,000 mm 0,0 UV-I 0 W/m² 1,3 °C 3,4 °C 14,5 km/h (3 Bft)
01.03.2019 01:55 5,6 °C 74 % 1016,6 hPa 0,0 mm 9,3 km/h (2 Bft) S-SW 200 ° 0 min 0,000 mm 0,0 UV-I 0 W/m² 1,3 °C 3,5 °C 14,5 km/h (3 Bft)
01.03.2019 01:56 5,7 °C 74 % 1016,6 hPa 0,0 mm 9,7 km/h (2 Bft) W-SW 248 ° 0 min 0,000 mm 0,0 UV-I 0 W/m² 1,4 °C 3,6 °C 16,1 km/h (3 Bft)
01.03.2019 01:57 5,7 °C 74 % 1016,6 hPa 0,0 mm 16,5 km/h (3 Bft) W 269 ° 0 min 0,000 mm 0,0 UV-I 0 W/m² 1,4 °C 2,4 °C 20,9 km/h (4 Bft)
01.03.2019 01:58 5,7 °C 73 % 1016,6 hPa 0,0 mm 11,7 km/h (2 Bft) W-SW 257 ° 0 min 0,000 mm 0,0 UV-I 0 W/m² 1,2 °C 3,2 °C 17,7 km/h (3 Bft)
01.03.2019 01:59 5,7 °C 73 % 1016,6 hPa 0,0 mm 14,1 km/h (3 Bft) W 261 ° 0 min 0,000 mm 0,0 UV-I 0 W/m² 1,2 °C 2,8 °C 19,3 km/h (3 Bft)
01.03.2019 02:00 5,7 °C 73 % 1016,6 hPa 0,0 mm 9,0 km/h (2 Bft) W-SW 253 ° 0 min 0,000 mm 0,0 UV-I 0 W/m² 1,2 °C 3,7 °C 12,9 km/h (3 Bft)
01.03.2019 02:01 5,7 °C 73 % 1016,6 hPa 0,0 mm 9,1 km/h (2 Bft) W 262 ° 0 min 0,026 mm 0,0 UV-I 0 W/m² 1,2 °C 3,7 °C 11,3 km/h (2 Bft)
01.03.2019 02:02 5,7 °C 73 % 1016,5 hPa 0,0 mm 12,8 km/h (3 Bft) W 262 ° 0 min 0,000 mm 0,0 UV-I 0 W/m² 1,2 °C 3,0 °C 17,7 km/h (3 Bft)
01.03.2019 02:03 5,7 °C 73 % 1016,5 hPa 0,0 mm 11,7 km/h (2 Bft) W 270 ° 0 min 0,000 mm 0,0 UV-I 0 W/m² 1,2 °C 3,2 °C 19,3 km/h (3 Bft)
01.03.2019 02:04 5,7 °C 73 % 1016,5 hPa 0,0 mm 9,7 km/h (2 Bft) W-NW 288 ° 0 min 0,000 mm 0,0 UV-I 0 W/m² 1,2 °C 3,6 °C 17,7 km/h (3 Bft)
01.03.2019 02:05 5,7 °C 73 % 1016,5 hPa 0,0 mm 11,8 km/h (2 Bft) W 263 ° 0 min 0,000 mm 0,0 UV-I 0 W/m² 1,2 °C 3,1 °C 20,9 km/h (4 Bft)
01.03.2019 02:06 5,7 °C 74 % 1016,5 hPa 0,0 mm 11,7 km/h (2 Bft) W-NW 295 ° 0 min 0,000 mm 0,0 UV-I 0 W/m² 1,4 °C 3,2 °C 17,7 km/h (3 Bft)
01.03.2019 02:07 5,6 °C 74 % 1016,5 hPa 0,0 mm 9,2 km/h (2 Bft) W 277 ° 0 min 0,000 mm 0,0 UV-I 0 W/m² 1,3 °C 3,6 °C 14,5 km/h (3 Bft)
01.03.2019 02:08 5,6 °C 74 % 1016,5 hPa 0,0 mm 9,5 km/h (2 Bft) W 273 ° 0 min 0,000 mm 0,0 UV-I 0 W/m² 1,3 °C 3,5 °C 12,9 km/h (3 Bft)
01.03.2019 02:09 5,5 °C 74 % 1016,5 hPa 0,0 mm 9,3 km/h (2 Bft) W 281 ° 0 min 0,000 mm 0,0 UV-I 0 W/m² 1,2 °C 3,4 °C 14,5 km/h (3 Bft)
01.03.2019 02:10 5,4 °C 74 % 1016,5 hPa 0,0 mm 5,0 km/h (1 Bft) W 266 ° 0 min 0,000 mm 0,0 UV-I 0 W/m² 1,1 °C 4,5 °C 9,7 km/h (2 Bft)
01.03.2019 02:11 5,4 °C 74 % 1016,5 hPa 0,0 mm 5,2 km/h (1 Bft) W-NW 293 ° 0 min 0,000 mm 0,0 UV-I 0 W/m² 1,1 °C 4,5 °C 9,7 km/h (2 Bft)
01.03.2019 02:12 5,4 °C 74 % 1016,4 hPa 0,0 mm 5,9 km/h (2 Bft) W 266 ° 0 min 0,000 mm 0,0 UV-I 0 W/m² 1,1 °C 4,2 °C 9,7 km/h (2 Bft)
01.03.2019 02:13 5,4 °C 74 % 1016,5 hPa 0,0 mm 9,0 km/h (2 Bft) W 265 ° 0 min 0,000 mm 0,0 UV-I 0 W/m² 1,1 °C 3,4 °C 12,9 km/h (3 Bft)
01.03.2019 02:14 5,4 °C 75 % 1016,5 hPa 0,0 mm 6,3 km/h (2 Bft) W-NW 296 ° 0 min 0,000 mm 0,0 UV-I 0 W/m² 1,3 °C 4,1 °C 12,9 km/h (3 Bft)
01.03.2019 02:15 5,3 °C 75 % 1016,5 hPa 0,0 mm 5,9 km/h (2 Bft) W-NW 301 ° 0 min 0,000 mm 0,0 UV-I 0 W/m² 1,2 °C 4,1 °C 9,7 km/h (2 Bft)
01.03.2019 02:16 5,3 °C 75 % 1016,5 hPa 0,0 mm 8,1 km/h (2 Bft) W 269 ° 0 min 0,000 mm 0,0 UV-I 0 W/m² 1,2 °C 3,5 °C 12,9 km/h (3 Bft)
01.03.2019 02:17 5,3 °C 75 % 1016,4 hPa 0,0 mm 5,3 km/h (1 Bft) W 273 ° 0 min 0,000 mm 0,0 UV-I 0 W/m² 1,2 °C 4,3 °C 9,7 km/h (2 Bft)
01.03.2019 02:18 5,2 °C 75 % 1016,4 hPa 0,0 mm 5,3 km/h (1 Bft) W-NW 290 ° 0 min 0,000 mm 0,0 UV-I 0 W/m² 1,1 °C 4,2 °C 11,3 km/h (2 Bft)
01.03.2019 02:19 5,2 °C 75 % 1016,4 hPa 0,0 mm 6,2 km/h (2 Bft) W 263 ° 0 min 0,000 mm 0,0 UV-I 0 W/m² 1,1 °C 3,9 °C 11,3 km/h (2 Bft)
01.03.2019 02:20 5,2 °C 75 % 1016,5 hPa 0,0 mm 7,5 km/h (2 Bft) W 274 ° 0 min 0,000 mm 0,0 UV-I 0 W/m² 1,1 °C 3,5 °C 11,3 km/h (2 Bft)
01.03.2019 02:21 5,2 °C 75 % 1016,3 hPa 0,0 mm 6,4 km/h (2 Bft) W 265 ° 0 min 0,000 mm 0,0 UV-I 0 W/m² 1,1 °C 3,8 °C 9,7 km/h (2 Bft)
01.03.2019 02:22 5,2 °C 75 % 1016,4 hPa 0,0 mm 5,7 km/h (1 Bft) W 259 ° 0 min 0,000 mm 0,0 UV-I 0 W/m² 1,1 °C 4,1 °C 9,7 km/h (2 Bft)
01.03.2019 02:23 5,2 °C 76 % 1016,3 hPa 0,0 mm 5,9 km/h (2 Bft) W 262 ° 0 min 0,000 mm 0,0 UV-I 0 W/m² 1,3 °C 4,0 °C 9,7 km/h (2 Bft)
01.03.2019 02:24 5,1 °C 76 % 1016,3 hPa 0,0 mm 10,4 km/h (2 Bft) W-NW 283 ° 0 min 0,000 mm 0,0 UV-I 0 W/m² 1,2 °C 2,7 °C 16,1 km/h (3 Bft)
01.03.2019 02:25 5,1 °C 76 % 1016,3 hPa 0,0 mm 11,7 km/h (2 Bft) W 259 ° 0 min 0,000 mm 0,0 UV-I 0 W/m² 1,2 °C 2,4 °C 19,3 km/h (3 Bft)
01.03.2019 02:26 5,1 °C 76 % 1016,3 hPa 0,0 mm 9,9 km/h (2 Bft) W-NW 286 ° 0 min 0,000 mm 0,0 UV-I 0 W/m² 1,2 °C 2,8 °C 16,1 km/h (3 Bft)
01.03.2019 02:27 5,1 °C 76 % 1016,3 hPa 0,0 mm 8,2 km/h (2 Bft) W-NW 283 ° 0 min 0,000 mm 0,0 UV-I 0 W/m² 1,2 °C 3,2 °C 14,5 km/h (3 Bft)
01.03.2019 02:28 5,1 °C 76 % 1016,2 hPa 0,0 mm 11,7 km/h (2 Bft) W 263 ° 0 min 0,000 mm 0,0 UV-I 0 W/m² 1,2 °C 2,4 °C 16,1 km/h (3 Bft)
01.03.2019 02:29 5,1 °C 76 % 1016,2 hPa 0,0 mm 9,8 km/h (2 Bft) W 262 ° 0 min 0,000 mm 0,0 UV-I 0 W/m² 1,2 °C 2,8 °C 14,5 km/h (3 Bft)
01.03.2019 02:30 5,0 °C 76 % 1016,2 hPa 0,0 mm 12,8 km/h (3 Bft) W 268 ° 0 min 0,000 mm 0,0 UV-I 0 W/m² 1,1 °C 2,1 °C 16,1 km/h (3 Bft)
01.03.2019 02:31 5,0 °C 76 % 1016,1 hPa 0,0 mm 10,3 km/h (2 Bft) W-SW 248 ° 0 min 0,000 mm 0,0 UV-I 0 W/m² 1,1 °C 2,6 °C 14,5 km/h (3 Bft)
01.03.2019 02:32 4,9 °C 76 % 1016,0 hPa 0,0 mm 6,3 km/h (2 Bft) W 268 ° 0 min 0,000 mm 0,0 UV-I 0 W/m² 1,0 °C 3,5 °C 14,5 km/h (3 Bft)
01.03.2019 02:33 5,0 °C 76 % 1016,0 hPa 0,0 mm 10,3 km/h (2 Bft) SW 223 ° 0 min 0,000 mm 0,0 UV-I 0 W/m² 1,1 °C 2,6 °C 16,1 km/h (3 Bft)
01.03.2019 02:34 5,0 °C 76 % 1015,9 hPa 0,0 mm 9,9 km/h (2 Bft) W 278 ° 0 min 0,000 mm 0,0 UV-I 0 W/m² 1,1 °C 2,7 °C 14,5 km/h (3 Bft)
01.03.2019 02:35 5,1 °C 76 % 1015,9 hPa 0,0 mm 6,6 km/h (2 Bft) W 268 ° 0 min 0,000 mm 0,0 UV-I 0 W/m² 1,2 °C 3,6 °C 11,3 km/h (2 Bft)
01.03.2019 02:36 5,1 °C 76 % 1015,8 hPa 0,0 mm 9,6 km/h (2 Bft) W-SW 254 ° 0 min 0,000 mm 0,0 UV-I 0 W/m² 1,2 °C 2,9 °C 14,5 km/h (3 Bft)
01.03.2019 02:37 5,1 °C 76 % 1015,9 hPa 0,0 mm 10,3 km/h (2 Bft) W-SW 253 ° 0 min 0,000 mm 0,0 UV-I 0 W/m² 1,2 °C 2,7 °C 14,5 km/h (3 Bft)
01.03.2019 02:38 5,2 °C 76 % 1015,8 hPa 0,0 mm 9,4 km/h (2 Bft) W 279 ° 0 min 0,000 mm 0,0 UV-I 0 W/m² 1,3 °C 3,0 °C 12,9 km/h (3 Bft)
01.03.2019 02:39 5,2 °C 76 % 1015,8 hPa 0,0 mm 12,0 km/h (2 Bft) W 275 ° 0 min 0,000 mm 0,0 UV-I 0 W/m² 1,3 °C 2,5 °C 17,7 km/h (3 Bft)
01.03.2019 02:40 5,3 °C 76 % 1015,8 hPa 0,0 mm 6,5 km/h (2 Bft) W-SW 243 ° 0 min 0,000 mm 0,0 UV-I 0 W/m² 1,4 °C 3,9 °C 9,7 km/h (2 Bft)
01.03.2019 02:41 5,3 °C 75 % 1015,8 hPa 0,0 mm 10,8 km/h (2 Bft) W-SW 246 ° 0 min 0,000 mm 0,0 UV-I 0 W/m² 1,2 °C 2,9 °C 17,7 km/h (3 Bft)
01.03.2019 02:42 5,3 °C 75 % 1015,8 hPa 0,0 mm 12,3 km/h (3 Bft) W 263 ° 0 min 0,000 mm 0,0 UV-I 0 W/m² 1,2 °C 2,6 °C 16,1 km/h (3 Bft)
01.03.2019 02:43 5,3 °C 75 % 1015,8 hPa 0,0 mm 13,1 km/h (3 Bft) W-SW 249 ° 0 min 0,000 mm 0,0 UV-I 0 W/m² 1,2 °C 2,4 °C 16,1 km/h (3 Bft)
01.03.2019 02:44 5,3 °C 75 % 1015,8 hPa 0,0 mm 15,3 km/h (3 Bft) W-SW 254 ° 0 min 0,000 mm 0,0 UV-I 0 W/m² 1,2 °C 2,1 °C 20,9 km/h (4 Bft)
01.03.2019 02:45 5,4 °C 74 % 1015,8 hPa 0,0 mm 12,0 km/h (2 Bft) W 263 ° 0 min 0,000 mm 0,0 UV-I 0 W/m² 1,1 °C 2,7 °C 17,7 km/h (3 Bft)
01.03.2019 02:46 5,3 °C 74 % 1015,7 hPa 0,0 mm 12,9 km/h (3 Bft) W-SW 241 ° 0 min 0,000 mm 0,0 UV-I 0 W/m² 1,0 °C 2,5 °C 17,7 km/h (3 Bft)
01.03.2019 02:47 5,4 °C 74 % 1015,8 hPa 0,0 mm 12,3 km/h (3 Bft) W-SW 249 ° 0 min 0,000 mm 0,0 UV-I 0 W/m² 1,1 °C 2,7 °C 17,7 km/h (3 Bft)
01.03.2019 02:48 5,3 °C 74 % 1015,8 hPa 0,0 mm 16,6 km/h (3 Bft) W-SW 256 ° 0 min 0,000 mm 0,0 UV-I 0 W/m² 1,0 °C 1,9 °C 20,9 km/h (4 Bft)
01.03.2019 02:49 5,3 °C 74 % 1015,8 hPa 0,0 mm 11,4 km/h (2 Bft) W-SW 258 ° 0 min 0,000 mm 0,0 UV-I 0 W/m² 1,0 °C 2,7 °C 16,1 km/h (3 Bft)
01.03.2019 02:50 5,3 °C 74 % 1015,7 hPa 0,0 mm 8,6 km/h (2 Bft) W 266 ° 0 min 0,000 mm 0,0 UV-I 0 W/m² 1,0 °C 3,3 °C 11,3 km/h (2 Bft)
01.03.2019 02:51 5,3 °C 74 % 1015,7 hPa 0,0 mm 11,2 km/h (2 Bft) W 261 ° 0 min 0,000 mm 0,0 UV-I 0 W/m² 1,0 °C 2,8 °C 16,1 km/h (3 Bft)
01.03.2019 02:52 5,4 °C 74 % 1015,7 hPa 0,0 mm 9,3 km/h (2 Bft) W 269 ° 0 min 0,000 mm 0,0 UV-I 0 W/m² 1,1 °C 3,3 °C 12,9 km/h (3 Bft)
01.03.2019 02:53 5,4 °C 74 % 1015,7 hPa 0,0 mm 11,5 km/h (2 Bft) W 261 ° 0 min 0,000 mm 0,0 UV-I 0 W/m² 1,1 °C 2,8 °C 16,1 km/h (3 Bft)
01.03.2019 02:54 5,4 °C 74 % 1015,7 hPa 0,0 mm 15,1 km/h (3 Bft) W 259 ° 0 min 0,000 mm 0,0 UV-I 0 W/m² 1,1 °C 2,2 °C 19,3 km/h (3 Bft)
01.03.2019 02:55 5,4 °C 74 % 1015,6 hPa 0,0 mm 12,8 km/h (3 Bft) W 278 ° 0 min 0,000 mm 0,0 UV-I 0 W/m² 1,1 °C 2,6 °C 19,3 km/h (3 Bft)
01.03.2019 02:56 5,5 °C 74 % 1015,6 hPa 0,0 mm 12,7 km/h (3 Bft) W-SW 252 ° 0 min 0,000 mm 0,0 UV-I 0 W/m² 1,2 °C 2,7 °C 19,3 km/h (3 Bft)
01.03.2019 02:57 5,5 °C 74 % 1015,8 hPa 0,0 mm 13,9 km/h (3 Bft) W 266 ° 0 min 0,000 mm 0,0 UV-I 0 W/m² 1,2 °C 2,5 °C 19,3 km/h (3 Bft)
01.03.2019 02:58 5,5 °C 74 % 1015,7 hPa 0,0 mm 11,0 km/h (2 Bft) W 280 ° 0 min 0,000 mm 0,0 UV-I 0 W/m² 1,2 °C 3,1 °C 14,5 km/h (3 Bft)
01.03.2019 02:59 5,6 °C 73 % 1015,7 hPa 0,0 mm 12,0 km/h (2 Bft) W 272 ° 0 min 0,000 mm 0,0 UV-I 0 W/m² 1,2 °C 3,0 °C 17,7 km/h (3 Bft)
01.03.2019 03:00 5,6 °C 73 % 1015,7 hPa 0,0 mm 10,9 km/h (2 Bft) W 279 ° 0 min 0,000 mm 0,0 UV-I 0 W/m² 1,2 °C 3,2 °C 19,3 km/h (3 Bft)
01.03.2019 03:01 5,6 °C 73 % 1015,7 hPa 0,0 mm 11,9 km/h (2 Bft) W 276 ° 0 min 0,025 mm 0,0 UV-I 0 W/m² 1,2 °C 3,0 °C 17,7 km/h (3 Bft)
01.03.2019 03:02 5,6 °C 73 % 1015,7 hPa 0,0 mm 9,3 km/h (2 Bft) W 263 ° 0 min 0,000 mm 0,0 UV-I 0 W/m² 1,2 °C 3,5 °C 14,5 km/h (3 Bft)
01.03.2019 03:03 5,6 °C 73 % 1015,7 hPa 0,0 mm 11,4 km/h (2 Bft) W 263 ° 0 min 0,000 mm 0,0 UV-I 0 W/m² 1,2 °C 3,1 °C 17,7 km/h (3 Bft)
01.03.2019 03:04 5,7 °C 73 % 1015,7 hPa 0,0 mm 12,3 km/h (3 Bft) W 265 ° 0 min 0,000 mm 0,0 UV-I 0 W/m² 1,2 °C 3,1 °C 16,1 km/h (3 Bft)
01.03.2019 03:05 5,7 °C 73 % 1015,6 hPa 0,0 mm 13,3 km/h (3 Bft) W-NW 284 ° 0 min 0,000 mm 0,0 UV-I 0 W/m² 1,2 °C 2,9 °C 19,3 km/h (3 Bft)
01.03.2019 03:06 5,7 °C 73 % 1015,6 hPa 0,0 mm 11,7 km/h (2 Bft) W 273 ° 0 min 0,000 mm 0,0 UV-I 0 W/m² 1,2 °C 3,2 °C 16,1 km/h (3 Bft)
01.03.2019 03:07 5,7 °C 73 % 1015,5 hPa 0,0 mm 14,2 km/h (3 Bft) NW 306 ° 0 min 0,000 mm 0,0 UV-I 0 W/m² 1,2 °C 2,7 °C 19,3 km/h (3 Bft)
01.03.2019 03:08 5,7 °C 73 % 1015,6 hPa 0,0 mm 9,4 km/h (2 Bft) W 271 ° 0 min 0,000 mm 0,0 UV-I 0 W/m² 1,2 °C 3,6 °C 16,1 km/h (3 Bft)
01.03.2019 03:09 5,7 °C 73 % 1015,5 hPa 0,0 mm 10,7 km/h (2 Bft) W-SW 251 ° 0 min 0,000 mm 0,0 UV-I 0 W/m² 1,2 °C 3,4 °C 16,1 km/h (3 Bft)
01.03.2019 03:10 5,7 °C 73 % 1015,5 hPa 0,0 mm 10,1 km/h (2 Bft) W 275 ° 0 min 0,000 mm 0,0 UV-I 0 W/m² 1,2 °C 3,5 °C 14,5 km/h (3 Bft)
01.03.2019 03:11 5,8 °C 72 % 1015,5 hPa 0,0 mm 9,6 km/h (2 Bft) W-SW 257 ° 0 min 0,000 mm 0,0 UV-I 0 W/m² 1,2 °C 3,7 °C 11,3 km/h (2 Bft)
01.03.2019 03:12 5,7 °C 73 % 1015,5 hPa 0,0 mm 9,7 km/h (2 Bft) W 277 ° 0 min 0,000 mm 0,0 UV-I 0 W/m² 1,2 °C 3,6 °C 12,9 km/h (3 Bft)
01.03.2019 03:13 5,7 °C 72 % 1015,5 hPa 0,0 mm 9,2 km/h (2 Bft) W-SW 257 ° 0 min 0,000 mm 0,0 UV-I 0 W/m² 1,1 °C 3,7 °C 11,3 km/h (2 Bft)
01.03.2019 03:14 5,7 °C 72 % 1015,5 hPa 0,0 mm 10,7 km/h (2 Bft) W 260 ° 0 min 0,000 mm 0,0 UV-I 0 W/m² 1,1 °C 3,4 °C 14,5 km/h (3 Bft)
01.03.2019 03:15 5,7 °C 73 % 1015,4 hPa 0,0 mm 13,8 km/h (3 Bft) W 269 ° 0 min 0,000 mm 0,0 UV-I 0 W/m² 1,2 °C 2,8 °C 19,3 km/h (3 Bft)
01.03.2019 03:16 5,8 °C 73 % 1015,3 hPa 0,0 mm 11,1 km/h (2 Bft) W-SW 255 ° 0 min 0,000 mm 0,0 UV-I 0 W/m² 1,3 °C 3,4 °C 17,7 km/h (3 Bft)
01.03.2019 03:17 5,8 °C 72 % 1015,4 hPa 0,0 mm 10,8 km/h (2 Bft) W-SW 258 ° 0 min 0,000 mm 0,0 UV-I 0 W/m² 1,2 °C 3,5 °C 14,5 km/h (3 Bft)
01.03.2019 03:18 5,8 °C 72 % 1015,3 hPa 0,0 mm 12,4 km/h (3 Bft) W 278 ° 0 min 0,000 mm 0,0 UV-I 0 W/m² 1,2 °C 3,2 °C 16,1 km/h (3 Bft)
01.03.2019 03:19 5,8 °C 72 % 1015,3 hPa 0,0 mm 10,1 km/h (2 Bft) W 262 ° 0 min 0,000 mm 0,0 UV-I 0 W/m² 1,2 °C 3,6 °C 14,5 km/h (3 Bft)
01.03.2019 03:20 5,8 °C 72 % 1015,3 hPa 0,0 mm 9,2 km/h (2 Bft) W-SW 250 ° 0 min 0,000 mm 0,0 UV-I 0 W/m² 1,2 °C 3,8 °C 14,5 km/h (3 Bft)
01.03.2019 03:21 5,8 °C 72 % 1015,2 hPa 0,0 mm 10,9 km/h (2 Bft) W-NW 282 ° 0 min 0,000 mm 0,0 UV-I 0 W/m² 1,2 °C 3,4 °C 16,1 km/h (3 Bft)
01.03.2019 03:22 5,8 °C 72 % 1015,2 hPa 0,0 mm 11,0 km/h (2 Bft) SW 225 ° 0 min 0,000 mm 0,0 UV-I 0 W/m² 1,2 °C 3,4 °C 14,5 km/h (3 Bft)
01.03.2019 03:23 5,8 °C 72 % 1015,1 hPa 0,0 mm 9,0 km/h (2 Bft) W-NW 284 ° 0 min 0,000 mm 0,0 UV-I 0 W/m² 1,2 °C 3,8 °C 14,5 km/h (3 Bft)
01.03.2019 03:24 5,8 °C 72 % 1015,1 hPa 0,0 mm 7,6 km/h (2 Bft) W 259 ° 0 min 0,000 mm 0,0 UV-I 0 W/m² 1,2 °C 4,2 °C 12,9 km/h (3 Bft)
01.03.2019 03:25 5,8 °C 72 % 1015,1 hPa 0,0 mm 7,4 km/h (2 Bft) W 259 ° 0 min 0,000 mm 0,0 UV-I 0 W/m² 1,2 °C 4,2 °C 11,3 km/h (2 Bft)
01.03.2019 03:26 5,8 °C 72 % 1015,1 hPa 0,0 mm 4,8 km/h (1 Bft) W-SW 237 ° 0 min 0,000 mm 0,0 UV-I 0 W/m² 1,2 °C 5,1 °C 6,4 km/h (2 Bft)
01.03.2019 03:27 5,8 °C 72 % 1015,0 hPa 0,0 mm 7,6 km/h (2 Bft) W-SW 250 ° 0 min 0,000 mm 0,0 UV-I 0 W/m² 1,2 °C 4,2 °C 14,5 km/h (3 Bft)
01.03.2019 03:28 5,7 °C 72 % 1015,1 hPa 0,0 mm 9,0 km/h (2 Bft) W 267 ° 0 min 0,000 mm 0,0 UV-I 0 W/m² 1,1 °C 3,7 °C 12,9 km/h (3 Bft)
01.03.2019 03:29 5,7 °C 73 % 1014,9 hPa 0,0 mm 6,2 km/h (2 Bft) W 259 ° 0 min 0,000 mm 0,0 UV-I 0 W/m² 1,2 °C 4,5 °C 11,3 km/h (2 Bft)
01.03.2019 03:30 5,7 °C 73 % 1014,9 hPa 0,0 mm 7,4 km/h (2 Bft) W 263 ° 0 min 0,000 mm 0,0 UV-I 0 W/m² 1,2 °C 4,1 °C 11,3 km/h (2 Bft)
01.03.2019 03:31 5,6 °C 73 % 1014,9 hPa 0,0 mm 7,0 km/h (2 Bft) W 259 ° 0 min 0,000 mm 0,0 UV-I 0 W/m² 1,2 °C 4,1 °C 12,9 km/h (3 Bft)
01.03.2019 03:32 5,6 °C 73 % 1014,9 hPa 0,0 mm 15,2 km/h (3 Bft) W-SW 245 ° 0 min 0,000 mm 0,0 UV-I 0 W/m² 1,2 °C 2,5 °C 24,1 km/h (4 Bft)
01.03.2019 03:33 5,6 °C 73 % 1014,9 hPa 0,0 mm 9,7 km/h (2 Bft) W-SW 257 ° 0 min 0,000 mm 0,0 UV-I 0 W/m² 1,2 °C 3,4 °C 16,1 km/h (3 Bft)
01.03.2019 03:34 5,6 °C 73 % 1014,9 hPa 0,0 mm 12,9 km/h (3 Bft) W-SW 239 ° 0 min 0,000 mm 0,0 UV-I 0 W/m² 1,2 °C 2,8 °C 17,7 km/h (3 Bft)
01.03.2019 03:35 5,6 °C 73 % 1014,8 hPa 0,0 mm 6,7 km/h (2 Bft) W 267 ° 0 min 0,000 mm 0,0 UV-I 0 W/m² 1,2 °C 4,2 °C 9,7 km/h (2 Bft)
01.03.2019 03:36 5,6 °C 73 % 1014,8 hPa 0,0 mm 8,3 km/h (2 Bft) W 267 ° 0 min 0,000 mm 0,0 UV-I 0 W/m² 1,2 °C 3,8 °C 16,1 km/h (3 Bft)
01.03.2019 03:37 5,6 °C 73 % 1014,8 hPa 0,0 mm 6,3 km/h (2 Bft) W 260 ° 0 min 0,000 mm 0,0 UV-I 0 W/m² 1,2 °C 4,3 °C 9,7 km/h (2 Bft)
01.03.2019 03:38 5,6 °C 73 % 1014,8 hPa 0,0 mm 7,4 km/h (2 Bft) SW 230 ° 0 min 0,000 mm 0,0 UV-I 0 W/m² 1,2 °C 4,0 °C 11,3 km/h (2 Bft)
01.03.2019 03:39 5,6 °C 73 % 1014,8 hPa 0,0 mm 4,1 km/h (1 Bft) W-SW 238 ° 0 min 0,000 mm 0,0 UV-I 0 W/m² 1,2 °C 5,6 °C 6,4 km/h (2 Bft)
01.03.2019 03:40 5,6 °C 73 % 1014,8 hPa 0,0 mm 3,9 km/h (1 Bft) W-SW 240 ° 0 min 0,000 mm 0,0 UV-I 0 W/m² 1,2 °C 5,6 °C 6,4 km/h (2 Bft)
01.03.2019 03:41 5,6 °C 73 % 1014,8 hPa 0,0 mm 8,9 km/h (2 Bft) W-SW 244 ° 0 min 0,000 mm 0,0 UV-I 0 W/m² 1,2 °C 3,6 °C 12,9 km/h (3 Bft)
01.03.2019 03:42 5,6 °C 73 % 1014,7 hPa 0,0 mm 4,1 km/h (1 Bft) W-SW 258 ° 0 min 0,000 mm 0,0 UV-I 0 W/m² 1,2 °C 5,6 °C 6,4 km/h (2 Bft)
01.03.2019 03:43 5,6 °C 73 % 1014,8 hPa 0,0 mm 7,6 km/h (2 Bft) W-SW 251 ° 0 min 0,000 mm 0,0 UV-I 0 W/m² 1,2 °C 3,9 °C 16,1 km/h (3 Bft)
01.03.2019 03:44 5,6 °C 73 % 1014,8 hPa 0,0 mm 6,9 km/h (2 Bft) SW 236 ° 0 min 0,000 mm 0,0 UV-I 0 W/m² 1,2 °C 4,1 °C 14,5 km/h (3 Bft)
01.03.2019 03:45 5,6 °C 73 % 1014,8 hPa 0,0 mm 8,2 km/h (2 Bft) W 263 ° 0 min 0,000 mm 0,0 UV-I 0 W/m² 1,2 °C 3,8 °C 11,3 km/h (2 Bft)
01.03.2019 03:46 5,6 °C 73 % 1014,8 hPa 0,0 mm 9,3 km/h (2 Bft) S-SW 213 ° 0 min 0,000 mm 0,0 UV-I 0 W/m² 1,2 °C 3,5 °C 14,5 km/h (3 Bft)
01.03.2019 03:47 5,6 °C 73 % 1014,8 hPa 0,0 mm 8,0 km/h (2 Bft) W 263 ° 0 min 0,000 mm 0,0 UV-I 0 W/m² 1,2 °C 3,8 °C 14,5 km/h (3 Bft)
01.03.2019 03:48 5,6 °C 73 % 1014,7 hPa 0,0 mm 5,2 km/h (1 Bft) SW 236 ° 0 min 0,000 mm 0,0 UV-I 0 W/m² 1,2 °C 4,7 °C 12,9 km/h (3 Bft)
01.03.2019 03:49 5,6 °C 73 % 1014,6 hPa 0,0 mm 8,6 km/h (2 Bft) W 267 ° 0 min 0,000 mm 0,0 UV-I 0 W/m² 1,2 °C 3,7 °C 16,1 km/h (3 Bft)
01.03.2019 03:50 5,6 °C 73 % 1014,6 hPa 0,0 mm 6,0 km/h (2 Bft) W-SW 243 ° 0 min 0,000 mm 0,0 UV-I 0 W/m² 1,2 °C 4,4 °C 8,0 km/h (2 Bft)
01.03.2019 03:51 5,6 °C 73 % 1014,7 hPa 0,0 mm 7,0 km/h (2 Bft) W 263 ° 0 min 0,000 mm 0,0 UV-I 0 W/m² 1,2 °C 4,1 °C 16,1 km/h (3 Bft)
01.03.2019 03:52 5,6 °C 73 % 1014,7 hPa 0,0 mm 9,1 km/h (2 Bft) W 260 ° 0 min 0,000 mm 0,0 UV-I 0 W/m² 1,2 °C 3,6 °C 14,5 km/h (3 Bft)
01.03.2019 03:53 5,6 °C 73 % 1014,7 hPa 0,0 mm 12,2 km/h (2 Bft) W-SW 258 ° 0 min 0,000 mm 0,0 UV-I 0 W/m² 1,2 °C 2,9 °C 19,3 km/h (3 Bft)
01.03.2019 03:54 5,6 °C 73 % 1014,7 hPa 0,0 mm 9,8 km/h (2 Bft) W 265 ° 0 min 0,000 mm 0,0 UV-I 0 W/m² 1,2 °C 3,4 °C 12,9 km/h (3 Bft)
01.03.2019 03:55 5,5 °C 73 % 1014,6 hPa 0,0 mm 6,8 km/h (2 Bft) W-SW 251 ° 0 min 0,000 mm 0,0 UV-I 0 W/m² 1,1 °C 4,1 °C 11,3 km/h (2 Bft)
01.03.2019 03:56 5,5 °C 73 % 1014,6 hPa 0,0 mm 11,6 km/h (2 Bft) W-SW 253 ° 0 min 0,000 mm 0,0 UV-I 0 W/m² 1,1 °C 2,9 °C 16,1 km/h (3 Bft)
01.03.2019 03:57 5,6 °C 73 % 1014,6 hPa 0,0 mm 10,2 km/h (2 Bft) W 259 ° 0 min 0,000 mm 0,0 UV-I 0 W/m² 1,2 °C 3,3 °C 14,5 km/h (3 Bft)
01.03.2019 03:58 5,5 °C 73 % 1014,6 hPa 0,0 mm 8,7 km/h (2 Bft) W-SW 242 ° 0 min 0,000 mm 0,0 UV-I 0 W/m² 1,1 °C 3,5 °C 12,9 km/h (3 Bft)
01.03.2019 03:59 5,5 °C 73 % 1014,6 hPa 0,0 mm 6,4 km/h (2 Bft) W-SW 258 ° 0 min 0,000 mm 0,0 UV-I 0 W/m² 1,1 °C 4,2 °C 12,9 km/h (3 Bft)
01.03.2019 04:00 5,5 °C 73 % 1014,6 hPa 0,0 mm 8,8 km/h (2 Bft) SW 225 ° 0 min 0,026 mm 0,0 UV-I 0 W/m² 1,1 °C 3,5 °C 14,5 km/h (3 Bft)
01.03.2019 04:01 5,5 °C 73 % 1014,6 hPa 0,0 mm 9,9 km/h (2 Bft) W-NW 290 ° 0 min 0,000 mm 0,0 UV-I 0 W/m² 1,1 °C 3,3 °C 14,5 km/h (3 Bft)
01.03.2019 04:02 5,5 °C 73 % 1014,6 hPa 0,0 mm 13,5 km/h (3 Bft) W 263 ° 0 min 0,000 mm 0,0 UV-I 0 W/m² 1,1 °C 2,6 °C 19,3 km/h (3 Bft)
01.03.2019 04:03 5,5 °C 73 % 1014,6 hPa 0,0 mm 14,8 km/h (3 Bft) W-SW 249 ° 0 min 0,000 mm 0,0 UV-I 0 W/m² 1,1 °C 2,4 °C 17,7 km/h (3 Bft)
01.03.2019 04:04 5,4 °C 73 % 1014,5 hPa 0,0 mm 7,7 km/h (2 Bft) SW 218 ° 0 min 0,000 mm 0,0 UV-I 0 W/m² 1,0 °C 3,7 °C 12,9 km/h (3 Bft)
01.03.2019 04:05 5,5 °C 73 % 1014,4 hPa 0,0 mm 10,6 km/h (2 Bft) W 273 ° 0 min 0,000 mm 0,0 UV-I 0 W/m² 1,1 °C 3,1 °C 17,7 km/h (3 Bft)
01.03.2019 04:06 5,5 °C 73 % 1014,4 hPa 0,0 mm 6,8 km/h (2 Bft) W-SW 255 ° 0 min 0,000 mm 0,0 UV-I 0 W/m² 1,1 °C 4,1 °C 12,9 km/h (3 Bft)
01.03.2019 04:07 5,6 °C 73 % 1014,4 hPa 0,0 mm 14,4 km/h (3 Bft) W-SW 255 ° 0 min 0,000 mm 0,0 UV-I 0 W/m² 1,2 °C 2,6 °C 19,3 km/h (3 Bft)
01.03.2019 04:08 5,6 °C 73 % 1014,4 hPa 0,0 mm 16,4 km/h (3 Bft) W 275 ° 0 min 0,000 mm 0,0 UV-I 0 W/m² 1,2 °C 2,3 °C 22,5 km/h (4 Bft)
01.03.2019 04:09 5,6 °C 73 % 1014,5 hPa 0,0 mm 13,9 km/h (3 Bft) W-SW 256 ° 0 min 0,000 mm 0,0 UV-I 0 W/m² 1,2 °C 2,7 °C 19,3 km/h (3 Bft)
01.03.2019 04:10 5,6 °C 73 % 1014,4 hPa 0,0 mm 9,8 km/h (2 Bft) W-SW 247 ° 0 min 0,000 mm 0,0 UV-I 0 W/m² 1,2 °C 3,4 °C 12,9 km/h (3 Bft)
01.03.2019 04:11 5,6 °C 73 % 1014,4 hPa 0,0 mm 13,9 km/h (3 Bft) W 260 ° 0 min 0,000 mm 0,0 UV-I 0 W/m² 1,2 °C 2,7 °C 22,5 km/h (4 Bft)
01.03.2019 04:12 5,6 °C 73 % 1014,4 hPa 0,0 mm 16,8 km/h (3 Bft) W 263 ° 0 min 0,000 mm 0,0 UV-I 0 W/m² 1,2 °C 2,2 °C 24,1 km/h (4 Bft)
01.03.2019 04:13 5,7 °C 73 % 1014,4 hPa 0,0 mm 21,9 km/h (4 Bft) W-SW 254 ° 0 min 0,000 mm 0,0 UV-I 0 W/m² 1,2 °C 1,7 °C 27,4 km/h (4 Bft)
01.03.2019 04:14 5,7 °C 73 % 1014,4 hPa 0,0 mm 15,1 km/h (3 Bft) W 261 ° 0 min 0,000 mm 0,0 UV-I 0 W/m² 1,2 °C 2,6 °C 24,1 km/h (4 Bft)
01.03.2019 04:15 5,8 °C 72 % 1014,4 hPa 0,0 mm 16,6 km/h (3 Bft) W 280 ° 0 min 0,000 mm 0,0 UV-I 0 W/m² 1,2 °C 2,5 °C 20,9 km/h (4 Bft)
01.03.2019 04:16 5,8 °C 72 % 1014,3 hPa 0,0 mm 13,7 km/h (3 Bft) W-SW 250 ° 0 min 0,000 mm 0,0 UV-I 0 W/m² 1,2 °C 2,9 °C 20,9 km/h (4 Bft)
01.03.2019 04:17 5,8 °C 72 % 1014,4 hPa 0,0 mm 12,6 km/h (3 Bft) W 273 ° 0 min 0,000 mm 0,0 UV-I 0 W/m² 1,2 °C 3,1 °C 19,3 km/h (3 Bft)
01.03.2019 04:18 5,8 °C 72 % 1014,3 hPa 0,0 mm 11,2 km/h (2 Bft) W 266 ° 0 min 0,000 mm 0,0 UV-I 0 W/m² 1,2 °C 3,4 °C 14,5 km/h (3 Bft)
01.03.2019 04:19 5,8 °C 72 % 1014,3 hPa 0,0 mm 15,6 km/h (3 Bft) W-SW 253 ° 0 min 0,000 mm 0,0 UV-I 0 W/m² 1,2 °C 2,6 °C 27,4 km/h (4 Bft)
01.03.2019 04:20 5,9 °C 72 % 1014,3 hPa 0,0 mm 12,0 km/h (2 Bft) W 259 ° 0 min 0,000 mm 0,0 UV-I 0 W/m² 1,2 °C 3,3 °C 20,9 km/h (4 Bft)
01.03.2019 04:21 5,9 °C 72 % 1014,2 hPa 0,0 mm 15,3 km/h (3 Bft) W-SW 248 ° 0 min 0,000 mm 0,0 UV-I 0 W/m² 1,2 °C 2,8 °C 24,1 km/h (4 Bft)
01.03.2019 04:22 5,8 °C 72 % 1014,3 hPa 0,0 mm 12,5 km/h (3 Bft) W 269 ° 0 min 0,000 mm 0,0 UV-I 0 W/m² 1,2 °C 3,1 °C 16,1 km/h (3 Bft)
01.03.2019 04:23 5,8 °C 72 % 1014,3 hPa 0,0 mm 14,8 km/h (3 Bft) W 264 ° 0 min 0,000 mm 0,0 UV-I 0 W/m² 1,2 °C 2,8 °C 25,7 km/h (4 Bft)
01.03.2019 04:24 5,8 °C 72 % 1014,4 hPa 0,0 mm 16,9 km/h (3 Bft) W 281 ° 0 min 0,000 mm 0,0 UV-I 0 W/m² 1,2 °C 2,5 °C 25,7 km/h (4 Bft)
01.03.2019 04:25 5,8 °C 72 % 1014,3 hPa 0,0 mm 12,2 km/h (2 Bft) W-SW 238 ° 0 min 0,000 mm 0,0 UV-I 0 W/m² 1,2 °C 3,2 °C 16,1 km/h (3 Bft)
01.03.2019 04:26 5,8 °C 72 % 1014,2 hPa 0,0 mm 11,4 km/h (2 Bft) W-SW 248 ° 0 min 0,000 mm 0,0 UV-I 0 W/m² 1,2 °C 3,3 °C 16,1 km/h (3 Bft)
01.03.2019 04:27 5,9 °C 72 % 1014,2 hPa 0,0 mm 10,9 km/h (2 Bft) W-SW 256 ° 0 min 0,000 mm 0,0 UV-I 0 W/m² 1,2 °C 3,6 °C 16,1 km/h (3 Bft)
01.03.2019 04:28 5,9 °C 72 % 1014,2 hPa 0,0 mm 13,3 km/h (3 Bft) W-NW 286 ° 0 min 0,000 mm 0,0 UV-I 0 W/m² 1,2 °C 3,1 °C 22,5 km/h (4 Bft)
01.03.2019 04:29 5,9 °C 72 % 1014,2 hPa 0,0 mm 12,9 km/h (3 Bft) W 269 ° 0 min 0,000 mm 0,0 UV-I 0 W/m² 1,2 °C 3,2 °C 17,7 km/h (3 Bft)
01.03.2019 04:30 5,9 °C 72 % 1014,1 hPa 0,0 mm 12,6 km/h (3 Bft) W 268 ° 0 min 0,000 mm 0,0 UV-I 0 W/m² 1,2 °C 3,2 °C 19,3 km/h (3 Bft)
01.03.2019 04:31 5,9 °C 72 % 1014,1 hPa 0,0 mm 9,0 km/h (2 Bft) S-SW 205 ° 0 min 0,000 mm 0,0 UV-I 0 W/m² 1,2 °C 4,0 °C 19,3 km/h (3 Bft)
01.03.2019 04:32 5,9 °C 71 % 1014,1 hPa 0,0 mm 13,1 km/h (3 Bft) W 265 ° 0 min 0,000 mm 0,0 UV-I 0 W/m² 1,1 °C 3,2 °C 19,3 km/h (3 Bft)
01.03.2019 04:33 5,9 °C 71 % 1014,1 hPa 0,0 mm 13,0 km/h (3 Bft) W 265 ° 0 min 0,000 mm 0,0 UV-I 0 W/m² 1,1 °C 3,2 °C 19,3 km/h (3 Bft)
01.03.2019 04:34 6,0 °C 71 % 1014,1 hPa 0,0 mm 13,1 km/h (3 Bft) W 267 ° 0 min 0,000 mm 0,0 UV-I 0 W/m² 1,1 °C 3,3 °C 16,1 km/h (3 Bft)
01.03.2019 04:35 5,9 °C 71 % 1014,1 hPa 0,0 mm 12,7 km/h (3 Bft) W 268 ° 0 min 0,000 mm 0,0 UV-I 0 W/m² 1,1 °C 3,2 °C 16,1 km/h (3 Bft)
01.03.2019 04:36 5,9 °C 71 % 1014,1 hPa 0,0 mm 8,4 km/h (2 Bft) W 260 ° 0 min 0,000 mm 0,0 UV-I 0 W/m² 1,1 °C 4,1 °C 14,5 km/h (3 Bft)
01.03.2019 04:37 5,8 °C 72 % 1014,1 hPa 0,0 mm 11,8 km/h (2 Bft) W 273 ° 0 min 0,000 mm 0,0 UV-I 0 W/m² 1,2 °C 3,3 °C 17,7 km/h (3 Bft)
01.03.2019 04:38 5,8 °C 72 % 1014,1 hPa 0,0 mm 11,6 km/h (2 Bft) W-SW 256 ° 0 min 0,000 mm 0,0 UV-I 0 W/m² 1,2 °C 3,3 °C 14,5 km/h (3 Bft)
01.03.2019 04:39 5,8 °C 72 % 1014,2 hPa 0,0 mm 10,9 km/h (2 Bft) W-SW 257 ° 0 min 0,000 mm 0,0 UV-I 0 W/m² 1,2 °C 3,4 °C 14,5 km/h (3 Bft)
01.03.2019 04:40 5,7 °C 72 % 1014,1 hPa 0,0 mm 11,5 km/h (2 Bft) W-SW 251 ° 0 min 0,000 mm 0,0 UV-I 0 W/m² 1,1 °C 3,2 °C 17,7 km/h (3 Bft)
01.03.2019 04:41 5,7 °C 72 % 1014,2 hPa 0,0 mm 10,3 km/h (2 Bft) W 280 ° 0 min 0,000 mm 0,0 UV-I 0 W/m² 1,1 °C 3,4 °C 16,1 km/h (3 Bft)
01.03.2019 04:42 5,7 °C 72 % 1014,2 hPa 0,0 mm 11,7 km/h (2 Bft) W 279 ° 0 min 0,000 mm 0,0 UV-I 0 W/m² 1,1 °C 3,2 °C 16,1 km/h (3 Bft)
01.03.2019 04:43 5,7 °C 72 % 1014,0 hPa 0,0 mm 8,9 km/h (2 Bft) W-NW 301 ° 0 min 0,000 mm 0,0 UV-I 0 W/m² 1,1 °C 3,7 °C 12,9 km/h (3 Bft)
01.03.2019 04:44 5,8 °C 72 % 1014,0 hPa 0,0 mm 10,8 km/h (2 Bft) W-SW 239 ° 0 min 0,000 mm 0,0 UV-I 0 W/m² 1,2 °C 3,5 °C 16,1 km/h (3 Bft)
01.03.2019 04:45 5,8 °C 72 % 1014,0 hPa 0,0 mm 12,9 km/h (3 Bft) SW 226 ° 0 min 0,000 mm 0,0 UV-I 0 W/m² 1,2 °C 3,1 °C 22,5 km/h (4 Bft)
01.03.2019 04:46 5,8 °C 72 % 1014,0 hPa 0,0 mm 8,0 km/h (2 Bft) W 264 ° 0 min 0,000 mm 0,0 UV-I 0 W/m² 1,2 °C 4,1 °C 14,5 km/h (3 Bft)
01.03.2019 04:47 5,8 °C 72 % 1014,0 hPa 0,0 mm 9,6 km/h (2 Bft) W-SW 252 ° 0 min 0,000 mm 0,0 UV-I 0 W/m² 1,2 °C 3,7 °C 16,1 km/h (3 Bft)
01.03.2019 04:48 5,8 °C 72 % 1014,0 hPa 0,0 mm 11,3 km/h (2 Bft) W 279 ° 0 min 0,000 mm 0,0 UV-I 0 W/m² 1,2 °C 3,4 °C 14,5 km/h (3 Bft)
01.03.2019 04:49 5,7 °C 71 % 1014,0 hPa 0,0 mm 11,4 km/h (2 Bft) W-SW 252 ° 0 min 0,000 mm 0,0 UV-I 0 W/m² 0,9 °C 3,2 °C 17,7 km/h (3 Bft)
01.03.2019 04:50 5,7 °C 72 % 1014,0 hPa 0,0 mm 14,3 km/h (3 Bft) W-SW 249 ° 0 min 0,000 mm 0,0 UV-I 0 W/m² 1,1 °C 2,7 °C 19,3 km/h (3 Bft)
01.03.2019 04:51 5,7 °C 72 % 1014,0 hPa 0,0 mm 15,0 km/h (3 Bft) W-SW 252 ° 0 min 0,000 mm 0,0 UV-I 0 W/m² 1,1 °C 2,6 °C 22,5 km/h (4 Bft)
01.03.2019 04:52 5,7 °C 72 % 1014,0 hPa 0,0 mm 13,5 km/h (3 Bft) W 273 ° 0 min 0,000 mm 0,0 UV-I 0 W/m² 1,1 °C 2,8 °C 20,9 km/h (4 Bft)
01.03.2019 04:53 5,7 °C 72 % 1013,9 hPa 0,0 mm 15,9 km/h (3 Bft) W-SW 246 ° 0 min 0,000 mm 0,0 UV-I 0 W/m² 1,1 °C 2,5 °C 20,9 km/h (4 Bft)
01.03.2019 04:54 5,6 °C 72 % 1013,9 hPa 0,0 mm 11,9 km/h (2 Bft) W-SW 258 ° 0 min 0,000 mm 0,0 UV-I 0 W/m² 1,0 °C 3,0 °C 16,1 km/h (3 Bft)
01.03.2019 04:55 5,6 °C 72 % 1013,9 hPa 0,0 mm 11,3 km/h (2 Bft) W-NW 286 ° 0 min 0,000 mm 0,0 UV-I 0 W/m² 1,0 °C 3,1 °C 17,7 km/h (3 Bft)
01.03.2019 04:56 5,6 °C 72 % 1013,9 hPa 0,0 mm 15,0 km/h (3 Bft) W-SW 254 ° 0 min 0,000 mm 0,0 UV-I 0 W/m² 1,0 °C 2,5 °C 19,3 km/h (3 Bft)
01.03.2019 04:57 5,6 °C 72 % 1013,9 hPa 0,0 mm 12,2 km/h (2 Bft) W 260 ° 0 min 0,000 mm 0,0 UV-I 0 W/m² 1,0 °C 2,9 °C 16,1 km/h (3 Bft)
01.03.2019 04:58 5,6 °C 72 % 1013,9 hPa 0,0 mm 10,6 km/h (2 Bft) W 273 ° 0 min 0,000 mm 0,0 UV-I 0 W/m² 1,0 °C 3,3 °C 16,1 km/h (3 Bft)
01.03.2019 04:59 5,6 °C 72 % 1013,9 hPa 0,0 mm 10,9 km/h (2 Bft) W-NW 291 ° 0 min 0,000 mm 0,0 UV-I 0 W/m² 1,0 °C 3,2 °C 17,7 km/h (3 Bft)
01.03.2019 05:00 5,6 °C 72 % 1013,7 hPa 0,0 mm 11,9 km/h (2 Bft) W-NW 286 ° 0 min 0,000 mm 0,0 UV-I 0 W/m² 1,0 °C 3,0 °C 19,3 km/h (3 Bft)
01.03.2019 05:01 5,6 °C 72 % 1013,8 hPa 0,0 mm 8,6 km/h (2 Bft) W-SW 250 ° 0 min 0,050 mm 0,0 UV-I 0 W/m² 1,0 °C 3,7 °C 14,5 km/h (3 Bft)
01.03.2019 05:02 5,6 °C 72 % 1013,8 hPa 0,0 mm 12,2 km/h (2 Bft) W-NW 283 ° 0 min 0,000 mm 0,0 UV-I 0 W/m² 1,0 °C 2,9 °C 16,1 km/h (3 Bft)
01.03.2019 05:03 5,6 °C 72 % 1013,8 hPa 0,0 mm 10,4 km/h (2 Bft) W 262 ° 0 min 0,000 mm 0,0 UV-I 0 W/m² 1,0 °C 3,3 °C 14,5 km/h (3 Bft)
01.03.2019 05:04 5,7 °C 72 % 1013,7 hPa 0,0 mm 11,1 km/h (2 Bft) W 264 ° 0 min 0,000 mm 0,0 UV-I 0 W/m² 1,1 °C 3,3 °C 16,1 km/h (3 Bft)
01.03.2019 05:05 5,6 °C 71 % 1013,7 hPa 0,0 mm 12,9 km/h (3 Bft) W 263 ° 0 min 0,000 mm 0,0 UV-I 0 W/m² 0,8 °C 2,8 °C 17,7 km/h (3 Bft)
01.03.2019 05:06 5,6 °C 71 % 1013,7 hPa 0,0 mm 14,8 km/h (3 Bft) W 281 ° 0 min 0,000 mm 0,0 UV-I 0 W/m² 0,8 °C 2,5 °C 20,9 km/h (4 Bft)
01.03.2019 05:07 5,6 °C 71 % 1013,6 hPa 0,0 mm 12,6 km/h (3 Bft) W-SW 248 ° 0 min 0,000 mm 0,0 UV-I 0 W/m² 0,8 °C 2,9 °C 25,7 km/h (4 Bft)
01.03.2019 05:08 5,7 °C 71 % 1013,7 hPa 0,0 mm 11,1 km/h (2 Bft) W-SW 240 ° 0 min 0,000 mm 0,0 UV-I 0 W/m² 0,9 °C 3,3 °C 17,7 km/h (3 Bft)
01.03.2019 05:09 5,7 °C 71 % 1013,7 hPa 0,0 mm 9,9 km/h (2 Bft) W 260 ° 0 min 0,000 mm 0,0 UV-I 0 W/m² 0,9 °C 3,5 °C 17,7 km/h (3 Bft)
01.03.2019 05:10 5,7 °C 71 % 1013,8 hPa 0,0 mm 15,8 km/h (3 Bft) W-SW 256 ° 0 min 0,000 mm 0,0 UV-I 0 W/m² 0,9 °C 2,5 °C 22,5 km/h (4 Bft)
01.03.2019 05:11 5,6 °C 71 % 1013,7 hPa 0,0 mm 16,8 km/h (3 Bft) W-SW 247 ° 0 min 0,000 mm 0,0 UV-I 0 W/m² 0,8 °C 2,2 °C 22,5 km/h (4 Bft)
01.03.2019 05:12 5,6 °C 71 % 1013,8 hPa 0,0 mm 15,2 km/h (3 Bft) W 274 ° 0 min 0,000 mm 0,0 UV-I 0 W/m² 0,8 °C 2,5 °C 22,5 km/h (4 Bft)
01.03.2019 05:13 5,6 °C 71 % 1013,8 hPa 0,0 mm 16,9 km/h (3 Bft) W-NW 286 ° 0 min 0,000 mm 0,0 UV-I 0 W/m² 0,8 °C 2,2 °C 20,9 km/h (4 Bft)
01.03.2019 05:14 5,6 °C 71 % 1013,7 hPa 0,0 mm 14,4 km/h (3 Bft) W 262 ° 0 min 0,000 mm 0,0 UV-I 0 W/m² 0,8 °C 2,6 °C 20,9 km/h (4 Bft)
01.03.2019 05:15 5,6 °C 71 % 1013,7 hPa 0,0 mm 12,1 km/h (2 Bft) W-SW 248 ° 0 min 0,000 mm 0,0 UV-I 0 W/m² 0,8 °C 3,0 °C 16,1 km/h (3 Bft)
01.03.2019 05:16 5,7 °C 71 % 1013,7 hPa 0,0 mm 11,3 km/h (2 Bft) W 265 ° 0 min 0,000 mm 0,0 UV-I 0 W/m² 0,9 °C 3,2 °C 14,5 km/h (3 Bft)
01.03.2019 05:17 5,7 °C 71 % 1013,7 hPa 0,0 mm 13,6 km/h (3 Bft) W 262 ° 0 min 0,000 mm 0,0 UV-I 0 W/m² 0,9 °C 2,8 °C 17,7 km/h (3 Bft)
01.03.2019 05:18 5,8 °C 71 % 1013,8 hPa 0,0 mm 12,4 km/h (3 Bft) W-SW 244 ° 0 min 0,000 mm 0,0 UV-I 0 W/m² 1,0 °C 3,2 °C 16,1 km/h (3 Bft)
01.03.2019 05:19 5,8 °C 70 % 1013,7 hPa 0,0 mm 11,0 km/h (2 Bft) SW 222 ° 0 min 0,000 mm 0,0 UV-I 0 W/m² 0,8 °C 3,4 °C 16,1 km/h (3 Bft)
01.03.2019 05:20 5,9 °C 70 % 1013,7 hPa 0,0 mm 9,4 km/h (2 Bft) SW 234 ° 0 min 0,000 mm 0,0 UV-I 0 W/m² 0,9 °C 3,9 °C 17,7 km/h (3 Bft)
01.03.2019 05:21 5,9 °C 70 % 1013,7 hPa 0,0 mm 18,2 km/h (3 Bft) W 267 ° 0 min 0,000 mm 0,0 UV-I 0 W/m² 0,9 °C 2,4 °C 22,5 km/h (4 Bft)
01.03.2019 05:22 5,9 °C 70 % 1013,7 hPa 0,0 mm 11,9 km/h (2 Bft) NW 315 ° 0 min 0,000 mm 0,0 UV-I 0 W/m² 0,9 °C 3,4 °C 16,1 km/h (3 Bft)
01.03.2019 05:23 5,9 °C 70 % 1013,7 hPa 0,0 mm 11,0 km/h (2 Bft) W-SW 248 ° 0 min 0,000 mm 0,0 UV-I 0 W/m² 0,9 °C 3,5 °C 16,1 km/h (3 Bft)
01.03.2019 05:24 5,9 °C 70 % 1013,7 hPa 0,0 mm 8,9 km/h (2 Bft) W 275 ° 0 min 0,000 mm 0,0 UV-I 0 W/m² 0,9 °C 4,0 °C 11,3 km/h (2 Bft)
01.03.2019 05:25 5,8 °C 70 % 1013,7 hPa 0,0 mm 14,3 km/h (3 Bft) W 277 ° 0 min 0,000 mm 0,0 UV-I 0 W/m² 0,8 °C 2,8 °C 19,3 km/h (3 Bft)
01.03.2019 05:26 5,8 °C 70 % 1013,7 hPa 0,0 mm 10,9 km/h (2 Bft) W 263 ° 0 min 0,000 mm 0,0 UV-I 0 W/m² 0,8 °C 3,4 °C 16,1 km/h (3 Bft)
01.03.2019 05:27 5,7 °C 70 % 1013,7 hPa 0,0 mm 10,1 km/h (2 Bft) W-SW 238 ° 0 min 0,000 mm 0,0 UV-I 0 W/m² 0,7 °C 3,5 °C 16,1 km/h (3 Bft)
01.03.2019 05:28 5,7 °C 70 % 1013,7 hPa 0,0 mm 9,1 km/h (2 Bft) W-SW 255 ° 0 min 0,000 mm 0,0 UV-I 0 W/m² 0,7 °C 3,7 °C 17,7 km/h (3 Bft)
01.03.2019 05:29 5,7 °C 70 % 1013,7 hPa 0,0 mm 13,2 km/h (3 Bft) W-SW 251 ° 0 min 0,000 mm 0,0 UV-I 0 W/m² 0,7 °C 2,9 °C 20,9 km/h (4 Bft)
01.03.2019 05:30 5,7 °C 70 % 1013,6 hPa 0,0 mm 11,4 km/h (2 Bft) W 269 ° 0 min 0,000 mm 0,0 UV-I 0 W/m² 0,7 °C 3,2 °C 14,5 km/h (3 Bft)
01.03.2019 05:31 5,7 °C 70 % 1013,6 hPa 0,0 mm 9,5 km/h (2 Bft) W-SW 257 ° 0 min 0,000 mm 0,0 UV-I 0 W/m² 0,7 °C 3,6 °C 11,3 km/h (2 Bft)
01.03.2019 05:32 5,7 °C 70 % 1013,6 hPa 0,0 mm 8,0 km/h (2 Bft) W 270 ° 0 min 0,000 mm 0,0 UV-I 0 W/m² 0,7 °C 4,0 °C 11,3 km/h (2 Bft)
01.03.2019 05:33 5,7 °C 70 % 1013,7 hPa 0,0 mm 10,6 km/h (2 Bft) W 267 ° 0 min 0,000 mm 0,0 UV-I 0 W/m² 0,7 °C 3,4 °C 16,1 km/h (3 Bft)
01.03.2019 05:34 5,6 °C 71 % 1013,6 hPa 0,0 mm 11,9 km/h (2 Bft) W-SW 244 ° 0 min 0,000 mm 0,0 UV-I 0 W/m² 0,8 °C 3,0 °C 16,1 km/h (3 Bft)
01.03.2019 05:35 5,6 °C 71 % 1013,6 hPa 0,0 mm 5,0 km/h (1 Bft) W 260 ° 0 min 0,000 mm 0,0 UV-I 0 W/m² 0,8 °C 4,8 °C 6,4 km/h (2 Bft)
01.03.2019 05:36 5,6 °C 71 % 1013,6 hPa 0,0 mm 12,5 km/h (3 Bft) W 274 ° 0 min 0,000 mm 0,0 UV-I 0 W/m² 0,8 °C 2,9 °C 17,7 km/h (3 Bft)
01.03.2019 05:37 5,6 °C 71 % 1013,5 hPa 0,0 mm 13,3 km/h (3 Bft) W 259 ° 0 min 0,000 mm 0,0 UV-I 0 W/m² 0,8 °C 2,8 °C 17,7 km/h (3 Bft)
01.03.2019 05:38 5,6 °C 71 % 1013,5 hPa 0,0 mm 10,7 km/h (2 Bft) W 270 ° 0 min 0,000 mm 0,0 UV-I 0 W/m² 0,8 °C 3,2 °C 16,1 km/h (3 Bft)
01.03.2019 05:39 5,6 °C 71 % 1013,5 hPa 0,0 mm 11,5 km/h (2 Bft) W-SW 248 ° 0 min 0,000 mm 0,0 UV-I 0 W/m² 0,8 °C 3,1 °C 16,1 km/h (3 Bft)
01.03.2019 05:40 5,6 °C 71 % 1013,6 hPa 0,0 mm 8,7 km/h (2 Bft) W-SW 258 ° 0 min 0,000 mm 0,0 UV-I 0 W/m² 0,8 °C 3,7 °C 11,3 km/h (2 Bft)
01.03.2019 05:41 5,6 °C 71 % 1013,5 hPa 0,0 mm 10,8 km/h (2 Bft) W 278 ° 0 min 0,000 mm 0,0 UV-I 0 W/m² 0,8 °C 3,2 °C 16,1 km/h (3 Bft)
01.03.2019 05:42 5,5 °C 71 % 1013,5 hPa 0,0 mm 7,3 km/h (2 Bft) W 264 ° 0 min 0,000 mm 0,0 UV-I 0 W/m² 0,7 °C 3,9 °C 11,3 km/h (2 Bft)
01.03.2019 05:43 5,5 °C 71 % 1013,5 hPa 0,0 mm 11,9 km/h (2 Bft) W-SW 254 ° 0 min 0,000 mm 0,0 UV-I 0 W/m² 0,7 °C 2,9 °C 19,3 km/h (3 Bft)
01.03.2019 05:44 5,4 °C 71 % 1013,5 hPa 0,0 mm 14,5 km/h (3 Bft) W-SW 256 ° 0 min 0,000 mm 0,0 UV-I 0 W/m² 0,6 °C 2,3 °C 22,5 km/h (4 Bft)
01.03.2019 05:45 5,4 °C 71 % 1013,5 hPa 0,0 mm 11,9 km/h (2 Bft) W 277 ° 0 min 0,000 mm 0,0 UV-I 0 W/m² 0,6 °C 2,8 °C 17,7 km/h (3 Bft)
01.03.2019 05:46 5,4 °C 71 % 1013,4 hPa 0,0 mm 9,1 km/h (2 Bft) W-SW 247 ° 0 min 0,000 mm 0,0 UV-I 0 W/m² 0,6 °C 3,3 °C 14,5 km/h (3 Bft)
01.03.2019 05:47 5,4 °C 71 % 1013,4 hPa 0,0 mm 12,3 km/h (3 Bft) W 273 ° 0 min 0,000 mm 0,0 UV-I 0 W/m² 0,6 °C 2,7 °C 16,1 km/h (3 Bft)
01.03.2019 05:48 5,4 °C 71 % 1013,4 hPa 0,0 mm 7,6 km/h (2 Bft) W 277 ° 0 min 0,000 mm 0,0 UV-I 0 W/m² 0,6 °C 3,7 °C 9,7 km/h (2 Bft)
01.03.2019 05:49 5,4 °C 71 % 1013,4 hPa 0,0 mm 11,0 km/h (2 Bft) W 273 ° 0 min 0,000 mm 0,0 UV-I 0 W/m² 0,6 °C 2,9 °C 14,5 km/h (3 Bft)
01.03.2019 05:50 5,3 °C 71 % 1013,4 hPa 0,0 mm 11,1 km/h (2 Bft) W-SW 252 ° 0 min 0,000 mm 0,0 UV-I 0 W/m² 0,5 °C 2,8 °C 14,5 km/h (3 Bft)
01.03.2019 05:51 5,4 °C 72 % 1013,5 hPa 0,0 mm 15,5 km/h (3 Bft) W-SW 245 ° 0 min 0,000 mm 0,0 UV-I 0 W/m² 0,8 °C 2,2 °C 24,1 km/h (4 Bft)
01.03.2019 05:52 5,3 °C 72 % 1013,5 hPa 0,0 mm 12,0 km/h (2 Bft) W-SW 245 ° 0 min 0,000 mm 0,0 UV-I 0 W/m² 0,7 °C 2,6 °C 16,1 km/h (3 Bft)
01.03.2019 05:53 5,4 °C 71 % 1013,5 hPa 0,0 mm 12,0 km/h (2 Bft) W 272 ° 0 min 0,000 mm 0,0 UV-I 0 W/m² 0,6 °C 2,7 °C 20,9 km/h (4 Bft)
01.03.2019 05:54 5,4 °C 71 % 1013,5 hPa 0,0 mm 10,5 km/h (2 Bft) W 263 ° 0 min 0,000 mm 0,0 UV-I 0 W/m² 0,6 °C 3,0 °C 12,9 km/h (3 Bft)
01.03.2019 05:55 5,4 °C 71 % 1013,4 hPa 0,0 mm 7,2 km/h (2 Bft) W 275 ° 0 min 0,000 mm 0,0 UV-I 0 W/m² 0,6 °C 3,8 °C 11,3 km/h (2 Bft)
01.03.2019 05:56 5,4 °C 71 % 1013,4 hPa 0,0 mm 9,3 km/h (2 Bft) NW 304 ° 0 min 0,000 mm 0,0 UV-I 0 W/m² 0,6 °C 3,3 °C 17,7 km/h (3 Bft)
01.03.2019 05:57 5,4 °C 71 % 1013,4 hPa 0,0 mm 13,4 km/h (3 Bft) W 277 ° 0 min 0,000 mm 0,0 UV-I 0 W/m² 0,6 °C 2,5 °C 19,3 km/h (3 Bft)
01.03.2019 05:58 5,4 °C 71 % 1013,3 hPa 0,0 mm 13,8 km/h (3 Bft) W-SW 252 ° 0 min 0,000 mm 0,0 UV-I 0 W/m² 0,6 °C 2,4 °C 17,7 km/h (3 Bft)
01.03.2019 05:59 5,5 °C 71 % 1013,3 hPa 0,0 mm 12,2 km/h (2 Bft) W-SW 256 ° 0 min 0,000 mm 0,0 UV-I 0 W/m² 0,7 °C 2,8 °C 17,7 km/h (3 Bft)
01.03.2019 06:00 5,6 °C 71 % 1013,3 hPa 0,0 mm 13,7 km/h (3 Bft) W-NW 291 ° 0 min 0,000 mm 0,0 UV-I 0 W/m² 0,8 °C 2,7 °C 17,7 km/h (3 Bft)
01.03.2019 06:01 5,6 °C 71 % 1013,3 hPa 0,0 mm 10,5 km/h (2 Bft) W 271 ° 0 min 0,051 mm 0,0 UV-I 0 W/m² 0,8 °C 3,3 °C 16,1 km/h (3 Bft)
01.03.2019 06:02 5,6 °C 71 % 1013,3 hPa 0,0 mm 9,4 km/h (2 Bft) W 279 ° 0 min 0,000 mm 0,0 UV-I 0 W/m² 0,8 °C 3,5 °C 12,9 km/h (3 Bft)
01.03.2019 06:03 5,6 °C 71 % 1013,3 hPa 0,0 mm 9,4 km/h (2 Bft) W 281 ° 0 min 0,000 mm 0,0 UV-I 0 W/m² 0,8 °C 3,5 °C 12,9 km/h (3 Bft)
01.03.2019 06:04 5,6 °C 71 % 1013,3 hPa 0,0 mm 11,5 km/h (2 Bft) W-SW 250 ° 0 min 0,000 mm 0,0 UV-I 0 W/m² 0,8 °C 3,1 °C 17,7 km/h (3 Bft)
01.03.2019 06:05 5,6 °C 71 % 1013,3 hPa 0,0 mm 13,3 km/h (3 Bft) W 269 ° 0 min 0,000 mm 0,0 UV-I 0 W/m² 0,8 °C 2,8 °C 17,7 km/h (3 Bft)
01.03.2019 06:06 5,6 °C 71 % 1013,4 hPa 0,0 mm 9,0 km/h (2 Bft) W 274 ° 0 min 0,000 mm 0,0 UV-I 0 W/m² 0,8 °C 3,6 °C 14,5 km/h (3 Bft)
01.03.2019 06:07 5,6 °C 71 % 1013,3 hPa 0,0 mm 11,9 km/h (2 Bft) W-SW 237 ° 0 min 0,000 mm 0,0 UV-I 0 W/m² 0,8 °C 3,0 °C 22,5 km/h (4 Bft)
01.03.2019 06:08 5,6 °C 71 % 1013,3 hPa 0,0 mm 7,8 km/h (2 Bft) W 272 ° 0 min 0,000 mm 0,0 UV-I 0 W/m² 0,8 °C 3,9 °C 12,9 km/h (3 Bft)
01.03.2019 06:09 5,6 °C 71 % 1013,3 hPa 0,0 mm 11,3 km/h (2 Bft) W-NW 300 ° 0 min 0,000 mm 0,0 UV-I 0 W/m² 0,8 °C 3,1 °C 17,7 km/h (3 Bft)
01.03.2019 06:10 5,6 °C 71 % 1013,3 hPa 0,0 mm 12,5 km/h (3 Bft) W-SW 238 ° 0 min 0,000 mm 0,0 UV-I 0 W/m² 0,8 °C 2,9 °C 19,3 km/h (3 Bft)
01.03.2019 06:11 5,7 °C 71 % 1013,3 hPa 0,0 mm 15,6 km/h (3 Bft) W 263 ° 0 min 0,000 mm 0,0 UV-I 0 W/m² 0,9 °C 2,5 °C 20,9 km/h (4 Bft)
01.03.2019 06:12 5,7 °C 70 % 1013,3 hPa 0,0 mm 18,7 km/h (3 Bft) W 269 ° 0 min 0,000 mm 0,0 UV-I 0 W/m² 0,7 °C 2,1 °C 24,1 km/h (4 Bft)
01.03.2019 06:13 5,7 °C 70 % 1013,3 hPa 0,0 mm 14,1 km/h (3 Bft) W 261 ° 0 min 0,000 mm 0,0 UV-I 0 W/m² 0,7 °C 2,8 °C 20,9 km/h (4 Bft)
01.03.2019 06:14 5,7 °C 70 % 1013,3 hPa 0,0 mm 12,9 km/h (3 Bft) SW 234 ° 0 min 0,000 mm 0,0 UV-I 0 W/m² 0,7 °C 2,9 °C 17,7 km/h (3 Bft)
01.03.2019 06:15 5,8 °C 70 % 1013,3 hPa 0,0 mm 16,0 km/h (3 Bft) W-SW 257 ° 0 min 0,000 mm 0,0 UV-I 0 W/m² 0,8 °C 2,6 °C 19,3 km/h (3 Bft)
01.03.2019 06:16 5,8 °C 70 % 1013,3 hPa 0,0 mm 15,0 km/h (3 Bft) W-SW 248 ° 0 min 0,000 mm 0,0 UV-I 0 W/m² 0,8 °C 2,7 °C 27,4 km/h (4 Bft)
01.03.2019 06:17 5,8 °C 70 % 1013,3 hPa 0,0 mm 17,7 km/h (3 Bft) W 268 ° 0 min 0,000 mm 0,0 UV-I 0 W/m² 0,8 °C 2,4 °C 27,4 km/h (4 Bft)
01.03.2019 06:18 5,8 °C 70 % 1013,4 hPa 0,0 mm 13,2 km/h (3 Bft) W 267 ° 0 min 0,000 mm 0,0 UV-I 0 W/m² 0,8 °C 3,0 °C 17,7 km/h (3 Bft)
01.03.2019 06:19 5,8 °C 70 % 1013,4 hPa 0,0 mm 7,2 km/h (2 Bft) W-NW 296 ° 0 min 0,000 mm 0,0 UV-I 0 W/m² 0,8 °C 4,3 °C 11,3 km/h (2 Bft)
01.03.2019 06:20 5,8 °C 70 % 1013,3 hPa 0,0 mm 8,5 km/h (2 Bft) W 281 ° 0 min 0,000 mm 0,0 UV-I 0 W/m² 0,8 °C 4,0 °C 17,7 km/h (3 Bft)
01.03.2019 06:21 5,8 °C 70 % 1013,3 hPa 0,0 mm 12,3 km/h (3 Bft) W 270 ° 0 min 0,000 mm 0,0 UV-I 0 W/m² 0,8 °C 3,2 °C 17,7 km/h (3 Bft)
01.03.2019 06:22 5,8 °C 70 % 1013,3 hPa 0,0 mm 12,8 km/h (3 Bft) W 273 ° 0 min 0,000 mm 0,0 UV-I 0 W/m² 0,8 °C 3,1 °C 17,7 km/h (3 Bft)
01.03.2019 06:23 5,8 °C 70 % 1013,3 hPa 0,0 mm 13,1 km/h (3 Bft) W 279 ° 0 min 0,000 mm 0,0 UV-I 0 W/m² 0,8 °C 3,0 °C 17,7 km/h (3 Bft)
01.03.2019 06:24 5,8 °C 70 % 1013,4 hPa 0,0 mm 16,7 km/h (3 Bft) W 261 ° 0 min 0,000 mm 0,0 UV-I 0 W/m² 0,8 °C 2,5 °C 30,6 km/h (5 Bft)
01.03.2019 06:25 5,8 °C 70 % 1013,3 hPa 0,0 mm 17,8 km/h (3 Bft) W 267 ° 0 min 0,000 mm 0,0 UV-I 0 W/m² 0,8 °C 2,3 °C 24,1 km/h (4 Bft)
01.03.2019 06:26 5,8 °C 70 % 1013,3 hPa 0,0 mm 17,4 km/h (3 Bft) W 269 ° 0 min 0,000 mm 0,0 UV-I 0 W/m² 0,8 °C 2,4 °C 24,1 km/h (4 Bft)
01.03.2019 06:27 5,8 °C 70 % 1013,3 hPa 0,0 mm 16,4 km/h (3 Bft) W-NW 288 ° 0 min 0,000 mm 0,0 UV-I 0 W/m² 0,8 °C 2,5 °C 30,6 km/h (5 Bft)
01.03.2019 06:28 5,8 °C 70 % 1013,2 hPa 0,0 mm 15,5 km/h (3 Bft) W 281 ° 0 min 0,000 mm 0,0 UV-I 0 W/m² 0,8 °C 2,7 °C 20,9 km/h (4 Bft)
01.03.2019 06:29 5,8 °C 71 % 1013,3 hPa 0,0 mm 14,3 km/h (3 Bft) W 270 ° 0 min 0,000 mm 0,0 UV-I 0 W/m² 1,0 °C 2,8 °C 22,5 km/h (4 Bft)
01.03.2019 06:30 5,8 °C 71 % 1013,3 hPa 0,0 mm 14,6 km/h (3 Bft) W 279 ° 0 min 0,000 mm 0,0 UV-I 0 W/m² 1,0 °C 2,8 °C 19,3 km/h (3 Bft)
01.03.2019 06:31 5,8 °C 71 % 1013,3 hPa 0,0 mm 12,8 km/h (3 Bft) W 273 ° 0 min 0,000 mm 0,0 UV-I 0 W/m² 1,0 °C 3,1 °C 16,1 km/h (3 Bft)
01.03.2019 06:32 5,8 °C 71 % 1013,3 hPa 0,0 mm 14,9 km/h (3 Bft) W-NW 289 ° 0 min 0,000 mm 0,0 UV-I 0 W/m² 1,0 °C 2,8 °C 22,5 km/h (4 Bft)
01.03.2019 06:33 5,8 °C 71 % 1013,1 hPa 0,0 mm 16,0 km/h (3 Bft) W-NW 302 ° 0 min 0,000 mm 0,0 UV-I 0 W/m² 1,0 °C 2,6 °C 20,9 km/h (4 Bft)
01.03.2019 06:34 5,8 °C 71 % 1013,1 hPa 0,0 mm 13,9 km/h (3 Bft) W 267 ° 0 min 0,000 mm 0,0 UV-I 0 W/m² 1,0 °C 2,9 °C 20,9 km/h (4 Bft)
01.03.2019 06:35 5,8 °C 71 % 1013,1 hPa 0,0 mm 14,5 km/h (3 Bft) W 263 ° 0 min 0,000 mm 0,0 UV-I 0 W/m² 1,0 °C 2,8 °C 20,9 km/h (4 Bft)
01.03.2019 06:36 5,8 °C 72 % 1013,0 hPa 0,0 mm 15,6 km/h (3 Bft) NW 311 ° 0 min 0,000 mm 0,0 UV-I 0 W/m² 1,2 °C 2,6 °C 22,5 km/h (4 Bft)
01.03.2019 06:37 5,8 °C 72 % 1013,0 hPa 0,0 mm 13,4 km/h (3 Bft) W 280 ° 0 min 0,000 mm 0,0 UV-I 0 W/m² 1,2 °C 3,0 °C 24,1 km/h (4 Bft)
01.03.2019 06:38 5,7 °C 72 % 1013,0 hPa 0,0 mm 19,3 km/h (3 Bft) W-NW 296 ° 0 min 0,000 mm 0,0 UV-I 0 W/m² 1,1 °C 2,0 °C 30,6 km/h (5 Bft)
01.03.2019 06:39 5,7 °C 72 % 1013,0 hPa 0,0 mm 16,3 km/h (3 Bft) W 269 ° 0 min 0,000 mm 0,0 UV-I 0 W/m² 1,1 °C 2,4 °C 25,7 km/h (4 Bft)
01.03.2019 06:40 5,7 °C 72 % 1012,9 hPa 0,0 mm 16,1 km/h (3 Bft) W-SW 248 ° 0 min 0,000 mm 0,0 UV-I 0 W/m² 1,1 °C 2,5 °C 22,5 km/h (4 Bft)
01.03.2019 06:41 5,7 °C 72 % 1012,9 hPa 0,0 mm 21,3 km/h (4 Bft) W 273 ° 0 min 0,000 mm 0,0 UV-I 0 W/m² 1,1 °C 1,8 °C 27,4 km/h (4 Bft)
01.03.2019 06:42 5,7 °C 72 % 1012,9 hPa 0,0 mm 19,0 km/h (3 Bft) W-SW 251 ° 0 min 0,000 mm 0,0 UV-I 0 W/m² 1,1 °C 2,1 °C 24,1 km/h (4 Bft)
01.03.2019 06:43 5,7 °C 72 % 1012,9 hPa 0,0 mm 11,0 km/h (2 Bft) W-NW 296 ° 0 min 0,000 mm 0,0 UV-I 0 W/m² 1,1 °C 3,3 °C 14,5 km/h (3 Bft)
01.03.2019 06:44 5,7 °C 72 % 1012,9 hPa 0,0 mm 13,1 km/h (3 Bft) W 266 ° 0 min 0,000 mm 0,0 UV-I 0 W/m² 1,1 °C 2,9 °C 19,3 km/h (3 Bft)
01.03.2019 06:45 5,7 °C 72 % 1012,9 hPa 0,0 mm 14,9 km/h (3 Bft) W 267 ° 0 min 0,000 mm 0,0 UV-I 0 W/m² 1,1 °C 2,6 °C 17,7 km/h (3 Bft)
01.03.2019 06:46 5,7 °C 72 % 1013,0 hPa 0,0 mm 15,1 km/h (3 Bft) W-SW 254 ° 0 min 0,000 mm 0,0 UV-I 0 W/m² 1,1 °C 2,6 °C 22,5 km/h (4 Bft)
01.03.2019 06:47 5,7 °C 72 % 1012,9 hPa 0,0 mm 13,7 km/h (3 Bft) W-NW 286 ° 0 min 0,000 mm 0,0 UV-I 0 W/m² 1,1 °C 2,8 °C 20,9 km/h (4 Bft)
01.03.2019 06:48 5,7 °C 73 % 1012,9 hPa 0,0 mm 11,8 km/h (2 Bft) W 261 ° 0 min 0,000 mm 0,0 UV-I 0 W/m² 1,2 °C 3,1 °C 14,5 km/h (3 Bft)
01.03.2019 06:49 5,6 °C 72 % 1012,9 hPa 0,0 mm 9,1 km/h (2 Bft) W 259 ° 0 min 0,000 mm 0,0 UV-I 0 W/m² 1,0 °C 3,6 °C 14,5 km/h (3 Bft)
01.03.2019 06:50 5,6 °C 73 % 1012,9 hPa 0,0 mm 9,3 km/h (2 Bft) W 269 ° 0 min 0,000 mm 0,0 UV-I 0 W/m² 1,2 °C 3,5 °C 14,5 km/h (3 Bft)
01.03.2019 06:51 5,5 °C 73 % 1012,9 hPa 0,0 mm 10,5 km/h (2 Bft) W 261 ° 0 min 0,000 mm 0,0 UV-I 0 W/m² 1,1 °C 3,2 °C 14,5 km/h (3 Bft)
01.03.2019 06:52 5,5 °C 73 % 1012,9 hPa 0,0 mm 8,3 km/h (2 Bft) W 272 ° 0 min 0,000 mm 0,0 UV-I 0 W/m² 1,1 °C 3,6 °C 14,5 km/h (3 Bft)
01.03.2019 06:53 5,5 °C 73 % 1012,9 hPa 0,0 mm 12,5 km/h (3 Bft) W-SW 250 ° 0 min 0,000 mm 0,0 UV-I 0 W/m² 1,1 °C 2,8 °C 17,7 km/h (3 Bft)
01.03.2019 06:54 5,4 °C 73 % 1012,9 hPa 0,0 mm 10,8 km/h (2 Bft) W-SW 249 ° 0 min 0,000 mm 0,0 UV-I 0 W/m² 1,0 °C 3,0 °C 14,5 km/h (3 Bft)
01.03.2019 06:55 5,4 °C 73 % 1012,9 hPa 0,0 mm 11,4 km/h (2 Bft) W 280 ° 0 min 0,000 mm 0,0 UV-I 0 W/m² 1,0 °C 2,9 °C 19,3 km/h (3 Bft)
01.03.2019 06:56 5,4 °C 73 % 1012,8 hPa 0,0 mm 12,5 km/h (3 Bft) W 274 ° 0 min 0,000 mm 0,0 UV-I 0 W/m² 1,0 °C 2,7 °C 17,7 km/h (3 Bft)
01.03.2019 06:57 5,4 °C 73 % 1012,8 hPa 0,0 mm 10,9 km/h (2 Bft) W 261 ° 0 min 0,000 mm 0,0 UV-I 0 W/m² 1,0 °C 3,0 °C 16,1 km/h (3 Bft)
01.03.2019 06:58 5,4 °C 74 % 1012,8 hPa 0,0 mm 8,7 km/h (2 Bft) W-SW 254 ° 0 min 0,000 mm 0,0 UV-I 0 W/m² 1,1 °C 3,4 °C 14,5 km/h (3 Bft)
01.03.2019 06:59 5,4 °C 74 % 1012,8 hPa 0,0 mm 12,7 km/h (3 Bft) W 271 ° 0 min 0,000 mm 0,0 UV-I 0 W/m² 1,1 °C 2,6 °C 16,1 km/h (3 Bft)
01.03.2019 07:00 5,3 °C 74 % 1012,8 hPa 0,0 mm 12,0 km/h (2 Bft) W-NW 283 ° 0 min 0,000 mm 0,0 UV-I 0 W/m² 1,0 °C 2,6 °C 17,7 km/h (3 Bft)
01.03.2019 07:01 5,3 °C 74 % 1012,7 hPa 0,0 mm 11,6 km/h (2 Bft) W-NW 286 ° 0 min 0,026 mm 0,0 UV-I 0 W/m² 1,0 °C 2,7 °C 16,1 km/h (3 Bft)
01.03.2019 07:02 5,3 °C 74 % 1012,6 hPa 0,0 mm 9,0 km/h (2 Bft) W 262 ° 0 min 0,000 mm 0,0 UV-I 0 W/m² 1,0 °C 3,2 °C 14,5 km/h (3 Bft)
01.03.2019 07:03 5,3 °C 74 % 1012,7 hPa 0,0 mm 12,9 km/h (3 Bft) W-NW 292 ° 0 min 0,000 mm 0,0 UV-I 0 W/m² 1,0 °C 2,5 °C 17,7 km/h (3 Bft)
01.03.2019 07:04 5,3 °C 74 % 1012,7 hPa 0,0 mm 9,0 km/h (2 Bft) W 265 ° 0 min 0,000 mm 0,0 UV-I 5 W/m² 1,0 °C 3,2 °C 16,1 km/h (3 Bft)
01.03.2019 07:05 5,3 °C 74 % 1012,7 hPa 0,0 mm 14,8 km/h (3 Bft) W 270 ° 0 min 0,000 mm 0,0 UV-I 5 W/m² 1,0 °C 2,1 °C 20,9 km/h (4 Bft)
01.03.2019 07:06 5,3 °C 74 % 1012,7 hPa 0,0 mm 11,0 km/h (2 Bft) W 280 ° 0 min 0,000 mm 0,0 UV-I 5 W/m² 1,0 °C 2,8 °C 17,7 km/h (3 Bft)
01.03.2019 07:07 5,3 °C 74 % 1012,7 hPa 0,0 mm 11,1 km/h (2 Bft) W 263 ° 0 min 0,000 mm 0,0 UV-I 7 W/m² 1,0 °C 2,8 °C 14,5 km/h (3 Bft)
01.03.2019 07:08 5,3 °C 74 % 1012,7 hPa 0,0 mm 10,6 km/h (2 Bft) W-NW 286 ° 0 min 0,000 mm 0,0 UV-I 7 W/m² 1,0 °C 2,9 °C 14,5 km/h (3 Bft)
01.03.2019 07:09 5,3 °C 74 % 1012,7 hPa 0,0 mm 10,8 km/h (2 Bft) W 261 ° 0 min 0,000 mm 0,0 UV-I 7 W/m² 1,0 °C 2,9 °C 20,9 km/h (4 Bft)
01.03.2019 07:10 5,2 °C 74 % 1012,8 hPa 0,0 mm 16,5 km/h (3 Bft) W 274 ° 0 min 0,000 mm 0,0 UV-I 7 W/m² 1,0 °C 1,8 °C 20,9 km/h (4 Bft)
01.03.2019 07:11 5,3 °C 75 % 1012,7 hPa 0,0 mm 10,0 km/h (2 Bft) SW 233 ° 0 min 0,000 mm 0,0 UV-I 7 W/m² 1,2 °C 3,0 °C 20,9 km/h (4 Bft)
01.03.2019 07:12 5,3 °C 75 % 1012,8 hPa 0,0 mm 8,3 km/h (2 Bft) W 266 ° 0 min 0,000 mm 0,0 UV-I 7 W/m² 1,2 °C 3,4 °C 16,1 km/h (3 Bft)
01.03.2019 07:13 5,3 °C 74 % 1012,7 hPa 0,0 mm 14,8 km/h (3 Bft) W-NW 282 ° 0 min 0,000 mm 0,0 UV-I 9 W/m² 1,0 °C 2,1 °C 19,3 km/h (3 Bft)
01.03.2019 07:14 5,3 °C 74 % 1012,7 hPa 0,0 mm 8,9 km/h (2 Bft) W 263 ° 0 min 0,000 mm 0,0 UV-I 11 W/m² 1,0 °C 3,3 °C 14,5 km/h (3 Bft)
01.03.2019 07:15 5,3 °C 75 % 1012,7 hPa 0,0 mm 11,9 km/h (2 Bft) W-SW 240 ° 0 min 0,000 mm 0,0 UV-I 11 W/m² 1,2 °C 2,6 °C 17,7 km/h (3 Bft)
01.03.2019 07:16 5,2 °C 75 % 1012,6 hPa 0,0 mm 10,2 km/h (2 Bft) W-SW 258 ° 0 min 0,000 mm 0,0 UV-I 12 W/m² 1,1 °C 2,9 °C 12,9 km/h (3 Bft)
01.03.2019 07:17 5,2 °C 75 % 1012,6 hPa 0,0 mm 11,9 km/h (2 Bft) W 262 ° 0 min 0,000 mm 0,0 UV-I 14 W/m² 1,1 °C 2,5 °C 16,1 km/h (3 Bft)
01.03.2019 07:18 5,2 °C 74 % 1012,6 hPa 0,0 mm 9,2 km/h (2 Bft) W 260 ° 0 min 0,000 mm 0,0 UV-I 16 W/m² 1,0 °C 3,1 °C 12,9 km/h (3 Bft)
01.03.2019 07:19 5,2 °C 75 % 1012,6 hPa 0,0 mm 9,6 km/h (2 Bft) W-SW 250 ° 0 min 0,000 mm 0,0 UV-I 18 W/m² 1,1 °C 3,0 °C 12,9 km/h (3 Bft)
01.03.2019 07:20 5,2 °C 75 % 1012,6 hPa 0,0 mm 13,0 km/h (3 Bft) W 270 ° 0 min 0,000 mm 0,0 UV-I 18 W/m² 1,1 °C 2,3 °C 16,1 km/h (3 Bft)
01.03.2019 07:21 5,2 °C 75 % 1012,7 hPa 0,0 mm 9,2 km/h (2 Bft) W-SW 244 ° 0 min 0,000 mm 0,0 UV-I 18 W/m² 1,1 °C 3,1 °C 12,9 km/h (3 Bft)
01.03.2019 07:22 5,1 °C 75 % 1012,7 hPa 0,0 mm 10,4 km/h (2 Bft) W 259 ° 0 min 0,000 mm 0,0 UV-I 18 W/m² 1,0 °C 2,7 °C 14,5 km/h (3 Bft)
01.03.2019 07:23 5,1 °C 75 % 1012,6 hPa 0,0 mm 12,0 km/h (2 Bft) W-SW 244 ° 0 min 0,000 mm 0,0 UV-I 18 W/m² 1,0 °C 2,4 °C 16,1 km/h (3 Bft)
01.03.2019 07:24 5,1 °C 75 % 1012,6 hPa 0,0 mm 11,5 km/h (2 Bft) W-SW 254 ° 0 min 0,000 mm 0,0 UV-I 19 W/m² 1,0 °C 2,5 °C 17,7 km/h (3 Bft)
01.03.2019 07:25 5,1 °C 75 % 1012,7 hPa 0,0 mm 12,9 km/h (3 Bft) W 280 ° 0 min 0,000 mm 0,0 UV-I 19 W/m² 1,0 °C 2,2 °C 19,3 km/h (3 Bft)
01.03.2019 07:26 5,1 °C 75 % 1012,7 hPa 0,0 mm 9,4 km/h (2 Bft) W 271 ° 0 min 0,000 mm 0,0 UV-I 21 W/m² 1,0 °C 2,9 °C 12,9 km/h (3 Bft)
01.03.2019 07:27 5,0 °C 75 % 1012,7 hPa 0,0 mm 12,0 km/h (2 Bft) W-SW 252 ° 0 min 0,000 mm 0,0 UV-I 21 W/m² 0,9 °C 2,3 °C 16,1 km/h (3 Bft)
01.03.2019 07:28 5,0 °C 76 % 1012,7 hPa 0,0 mm 12,7 km/h (3 Bft) W-SW 258 ° 0 min 0,000 mm 0,0 UV-I 23 W/m² 1,1 °C 2,1 °C 17,7 km/h (3 Bft)
01.03.2019 07:29 5,1 °C 75 % 1012,7 hPa 0,0 mm 11,9 km/h (2 Bft) W 267 ° 0 min 0,000 mm 0,0 UV-I 23 W/m² 1,0 °C 2,4 °C 16,1 km/h (3 Bft)
01.03.2019 07:30 5,1 °C 76 % 1012,6 hPa 0,0 mm 9,5 km/h (2 Bft) W 264 ° 0 min 0,000 mm 0,0 UV-I 23 W/m² 1,2 °C 2,9 °C 14,5 km/h (3 Bft)
01.03.2019 07:31 5,1 °C 75 % 1012,6 hPa 0,0 mm 10,1 km/h (2 Bft) W-SW 257 ° 0 min 0,000 mm 0,0 UV-I 25 W/m² 1,0 °C 2,8 °C 12,9 km/h (3 Bft)
01.03.2019 07:32 5,1 °C 75 % 1012,6 hPa 0,0 mm 9,3 km/h (2 Bft) W 260 ° 0 min 0,000 mm 0,0 UV-I 25 W/m² 1,0 °C 2,9 °C 11,3 km/h (2 Bft)
01.03.2019 07:33 5,0 °C 75 % 1012,6 hPa 0,0 mm 7,0 km/h (2 Bft) W-NW 296 ° 0 min 0,000 mm 0,0 UV-I 26 W/m² 0,9 °C 3,4 °C 11,3 km/h (2 Bft)
01.03.2019 07:34 4,9 °C 75 % 1012,5 hPa 0,0 mm 12,1 km/h (2 Bft) W-SW 252 ° 0 min 0,000 mm 0,0 UV-I 30 W/m² 0,8 °C 2,1 °C 16,1 km/h (3 Bft)
01.03.2019 07:35 4,9 °C 75 % 1012,7 hPa 0,0 mm 11,5 km/h (2 Bft) W-NW 293 ° 0 min 0,000 mm 0,0 UV-I 32 W/m² 0,8 °C 2,2 °C 14,5 km/h (3 Bft)
01.03.2019 07:36 4,9 °C 75 % 1012,6 hPa 0,0 mm 10,5 km/h (2 Bft) W 271 ° 0 min 0,000 mm 0,0 UV-I 35 W/m² 0,8 °C 2,4 °C 16,1 km/h (3 Bft)
01.03.2019 07:37 4,9 °C 76 % 1012,6 hPa 0,0 mm 10,4 km/h (2 Bft) W 265 ° 0 min 0,000 mm 0,0 UV-I 37 W/m² 1,0 °C 2,5 °C 17,7 km/h (3 Bft)
01.03.2019 07:38 4,9 °C 76 % 1012,5 hPa 0,0 mm 6,8 km/h (2 Bft) W-SW 244 ° 0 min 0,000 mm 0,0 UV-I 39 W/m² 1,0 °C 3,4 °C 11,3 km/h (2 Bft)
01.03.2019 07:39 5,0 °C 76 % 1012,6 hPa 0,0 mm 12,0 km/h (2 Bft) W-SW 257 ° 0 min 0,000 mm 0,0 UV-I 39 W/m² 1,1 °C 2,3 °C 16,1 km/h (3 Bft)
01.03.2019 07:40 5,1 °C 76 % 1012,6 hPa 0,0 mm 15,8 km/h (3 Bft) W 275 ° 0 min 0,000 mm 0,0 UV-I 40 W/m² 1,2 °C 1,8 °C 22,5 km/h (4 Bft)
01.03.2019 07:41 5,1 °C 75 % 1012,6 hPa 0,0 mm 9,7 km/h (2 Bft) W-SW 256 ° 0 min 0,000 mm 0,0 UV-I 40 W/m² 1,0 °C 2,8 °C 14,5 km/h (3 Bft)
01.03.2019 07:42 5,2 °C 75 % 1012,6 hPa 0,0 mm 9,4 km/h (2 Bft) W-NW 290 ° 0 min 0,000 mm 0,0 UV-I 42 W/m² 1,1 °C 3,0 °C 14,5 km/h (3 Bft)
01.03.2019 07:43 5,2 °C 75 % 1012,6 hPa 0,0 mm 8,6 km/h (2 Bft) W-NW 300 ° 0 min 0,000 mm 0,0 UV-I 39 W/m² 1,1 °C 3,2 °C 12,9 km/h (3 Bft)
01.03.2019 07:44 5,2 °C 75 % 1012,5 hPa 0,0 mm 12,6 km/h (3 Bft) W 260 ° 0 min 0,000 mm 0,0 UV-I 33 W/m² 1,1 °C 2,4 °C 20,9 km/h (4 Bft)
01.03.2019 07:45 5,2 °C 75 % 1012,5 hPa 0,0 mm 13,3 km/h (3 Bft) W 279 ° 0 min 0,000 mm 0,0 UV-I 30 W/m² 1,1 °C 2,3 °C 19,3 km/h (3 Bft)
01.03.2019 07:46 5,3 °C 75 % 1012,7 hPa 0,0 mm 9,3 km/h (2 Bft) W 271 ° 0 min 0,000 mm 0,0 UV-I 26 W/m² 1,2 °C 3,2 °C 16,1 km/h (3 Bft)
01.03.2019 07:47 5,2 °C 75 % 1012,7 hPa 0,0 mm 11,4 km/h (2 Bft) W 263 ° 0 min 0,000 mm 0,0 UV-I 25 W/m² 1,1 °C 2,6 °C 19,3 km/h (3 Bft)
01.03.2019 07:48 5,3 °C 75 % 1012,6 hPa 0,0 mm 12,3 km/h (3 Bft) W 261 ° 0 min 0,000 mm 0,0 UV-I 19 W/m² 1,2 °C 2,6 °C 19,3 km/h (3 Bft)
01.03.2019 07:49 5,3 °C 75 % 1012,7 hPa 0,0 mm 12,5 km/h (3 Bft) W-SW 252 ° 0 min 0,000 mm 0,0 UV-I 18 W/m² 1,2 °C 2,5 °C 19,3 km/h (3 Bft)
01.03.2019 07:50 5,3 °C 75 % 1012,7 hPa 0,0 mm 15,8 km/h (3 Bft) W 272 ° 0 min 0,000 mm 0,0 UV-I 16 W/m² 1,2 °C 2,0 °C 22,5 km/h (4 Bft)
01.03.2019 07:51 5,3 °C 75 % 1012,7 hPa 0,0 mm 18,7 km/h (3 Bft) W 267 ° 0 min 0,000 mm 0,0 UV-I 14 W/m² 1,2 °C 1,6 °C 24,1 km/h (4 Bft)
01.03.2019 07:52 5,3 °C 75 % 1012,7 hPa 0,0 mm 15,5 km/h (3 Bft) W 260 ° 0 min 0,000 mm 0,0 UV-I 14 W/m² 1,2 °C 2,0 °C 22,5 km/h (4 Bft)
01.03.2019 07:53 5,4 °C 75 % 1012,7 hPa 0,0 mm 12,0 km/h (2 Bft) W 273 ° 0 min 0,000 mm 0,0 UV-I 14 W/m² 1,3 °C 2,7 °C 22,5 km/h (4 Bft)
01.03.2019 07:54 5,4 °C 75 % 1012,6 hPa 0,0 mm 18,2 km/h (3 Bft) W 259 ° 0 min 0,000 mm 0,0 UV-I 16 W/m² 1,3 °C 1,8 °C 29,0 km/h (5 Bft)
01.03.2019 07:55 5,4 °C 75 % 1012,7 hPa 0,0 mm 19,6 km/h (3 Bft) W 278 ° 0 min 0,000 mm 0,0 UV-I 18 W/m² 1,3 °C 1,6 °C 25,7 km/h (4 Bft)
01.03.2019 07:56 5,4 °C 75 % 1012,7 hPa 0,0 mm 19,1 km/h (3 Bft) NW 304 ° 0 min 0,000 mm 0,0 UV-I 21 W/m² 1,3 °C 1,7 °C 27,4 km/h (4 Bft)
01.03.2019 07:57 5,4 °C 75 % 1012,7 hPa 0,0 mm 16,0 km/h (3 Bft) W 263 ° 0 min 0,000 mm 0,0 UV-I 26 W/m² 1,3 °C 2,1 °C 25,7 km/h (4 Bft)
01.03.2019 07:58 5,4 °C 75 % 1012,6 hPa 0,0 mm 19,3 km/h (3 Bft) W 259 ° 0 min 0,000 mm 0,0 UV-I 33 W/m² 1,3 °C 1,7 °C 33,8 km/h (5 Bft)
01.03.2019 07:59 5,4 °C 75 % 1012,7 hPa 0,0 mm 15,2 km/h (3 Bft) W 265 ° 0 min 0,000 mm 0,0 UV-I 51 W/m² 1,3 °C 2,2 °C 20,9 km/h (4 Bft)
01.03.2019 08:00 5,3 °C 75 % 1012,6 hPa 0,0 mm 16,0 km/h (3 Bft) W-SW 242 ° 0 min 0,000 mm 0,0 UV-I 51 W/m² 1,2 °C 2,0 °C 24,1 km/h (4 Bft)
01.03.2019 08:01 5,3 °C 75 % 1012,6 hPa 0,0 mm 17,3 km/h (3 Bft) W 276 ° 0 min 0,025 mm 0,0 UV-I 77 W/m² 1,2 °C 1,8 °C 24,1 km/h (4 Bft)
01.03.2019 08:02 5,3 °C 75 % 1012,6 hPa 0,0 mm 13,0 km/h (3 Bft) W-NW 294 ° 0 min 0,000 mm 0,0 UV-I 86 W/m² 1,2 °C 2,4 °C 20,9 km/h (4 Bft)
01.03.2019 08:03 5,4 °C 76 % 1012,7 hPa 0,0 mm 12,8 km/h (3 Bft) W-SW 248 ° 0 min 0,000 mm 0,0 UV-I 93 W/m² 1,5 °C 2,6 °C 20,9 km/h (4 Bft)
01.03.2019 08:04 5,4 °C 76 % 1012,6 hPa 0,0 mm 15,4 km/h (3 Bft) W 262 ° 0 min 0,000 mm 0,0 UV-I 93 W/m² 1,5 °C 2,2 °C 22,5 km/h (4 Bft)
01.03.2019 08:05 5,4 °C 75 % 1012,7 hPa 0,0 mm 15,4 km/h (3 Bft) W-NW 296 ° 0 min 0,000 mm 0,0 UV-I 98 W/m² 1,3 °C 2,2 °C 22,5 km/h (4 Bft)
01.03.2019 08:06 5,4 °C 75 % 1012,6 hPa 0,0 mm 10,9 km/h (2 Bft) W-NW 284 ° 0 min 0,000 mm 0,0 UV-I 97 W/m² 1,3 °C 3,0 °C 16,1 km/h (3 Bft)
01.03.2019 08:07 5,4 °C 75 % 1012,6 hPa 0,0 mm 10,9 km/h (2 Bft) W 271 ° 0 min 0,000 mm 0,0 UV-I 90 W/m² 1,3 °C 3,0 °C 19,3 km/h (3 Bft)
01.03.2019 08:08 5,4 °C 75 % 1012,5 hPa 0,0 mm 11,4 km/h (2 Bft) W 281 ° 0 min 0,000 mm 0,0 UV-I 84 W/m² 1,3 °C 2,9 °C 17,7 km/h (3 Bft)
01.03.2019 08:09 5,4 °C 76 % 1012,5 hPa 0,0 mm 11,1 km/h (2 Bft) W-SW 255 ° 0 min 0,000 mm 0,0 UV-I 84 W/m² 1,5 °C 2,9 °C 24,1 km/h (4 Bft)
01.03.2019 08:10 5,4 °C 76 % 1012,5 hPa 0,0 mm 16,7 km/h (3 Bft) W-NW 294 ° 0 min 0,000 mm 0,0 UV-I 88 W/m² 1,5 °C 2,0 °C 22,5 km/h (4 Bft)
01.03.2019 08:11 5,4 °C 76 % 1012,5 hPa 0,0 mm 12,6 km/h (3 Bft) W-SW 249 ° 0 min 0,000 mm 0,0 UV-I 98 W/m² 1,5 °C 2,6 °C 17,7 km/h (3 Bft)
01.03.2019 08:12 5,4 °C 76 % 1012,5 hPa 0,0 mm 12,9 km/h (3 Bft) W 273 ° 0 min 0,000 mm 0,0 UV-I 102 W/m² 1,5 °C 2,6 °C 20,9 km/h (4 Bft)
01.03.2019 08:13 5,4 °C 76 % 1012,5 hPa 0,0 mm 15,1 km/h (3 Bft) W 270 ° 0 min 0,000 mm 0,0 UV-I 104 W/m² 1,5 °C 2,2 °C 24,1 km/h (4 Bft)
01.03.2019 08:14 5,4 °C 76 % 1012,5 hPa 0,0 mm 14,2 km/h (3 Bft) W 275 ° 0 min 0,000 mm 0,0 UV-I 102 W/m² 1,5 °C 2,4 °C 17,7 km/h (3 Bft)
01.03.2019 08:15 5,4 °C 76 % 1012,5 hPa 0,0 mm 13,1 km/h (3 Bft) W 261 ° 0 min 0,000 mm 0,0 UV-I 98 W/m² 1,5 °C 2,5 °C 19,3 km/h (3 Bft)
01.03.2019 08:16 5,4 °C 76 % 1012,5 hPa 0,0 mm 15,3 km/h (3 Bft) W 271 ° 0 min 0,000 mm 0,0 UV-I 95 W/m² 1,5 °C 2,2 °C 20,9 km/h (4 Bft)
01.03.2019 08:17 5,4 °C 76 % 1012,5 hPa 0,0 mm 18,8 km/h (3 Bft) W 265 ° 0 min 0,000 mm 0,5 UV-I 93 W/m² 1,5 °C 1,7 °C 25,7 km/h (4 Bft)
01.03.2019 08:18 5,4 °C 76 % 1012,4 hPa 0,0 mm 18,2 km/h (3 Bft) SW 221 ° 0 min 0,000 mm 0,0 UV-I 95 W/m² 1,5 °C 1,8 °C 22,5 km/h (4 Bft)
01.03.2019 08:19 5,4 °C 76 % 1012,5 hPa 0,0 mm 17,7 km/h (3 Bft) W 265 ° 0 min 0,000 mm 0,0 UV-I 93 W/m² 1,5 °C 1,9 °C 24,1 km/h (4 Bft)
01.03.2019 08:20 5,4 °C 76 % 1012,5 hPa 0,0 mm 12,8 km/h (3 Bft) W 262 ° 0 min 0,000 mm 0,0 UV-I 91 W/m² 1,5 °C 2,6 °C 20,9 km/h (4 Bft)
01.03.2019 08:21 5,5 °C 76 % 1012,5 hPa 0,0 mm 11,9 km/h (2 Bft) W 260 ° 0 min 0,000 mm 0,5 UV-I 88 W/m² 1,6 °C 2,9 °C 17,7 km/h (3 Bft)
01.03.2019 08:22 5,5 °C 76 % 1012,5 hPa 0,0 mm 15,0 km/h (3 Bft) W-SW 246 ° 0 min 0,000 mm 0,5 UV-I 86 W/m² 1,6 °C 2,4 °C 22,5 km/h (4 Bft)
01.03.2019 08:23 5,5 °C 76 % 1012,6 hPa 0,0 mm 18,6 km/h (3 Bft) W-SW 254 ° 0 min 0,000 mm 0,5 UV-I 88 W/m² 1,6 °C 1,9 °C 25,7 km/h (4 Bft)
01.03.2019 08:24 5,4 °C 76 % 1012,6 hPa 0,0 mm 15,2 km/h (3 Bft) SW 218 ° 0 min 0,000 mm 0,5 UV-I 90 W/m² 1,5 °C 2,2 °C 22,5 km/h (4 Bft)
01.03.2019 08:25 5,5 °C 76 % 1012,5 hPa 0,0 mm 10,7 km/h (2 Bft) W 263 ° 0 min 0,000 mm 0,5 UV-I 91 W/m² 1,6 °C 3,1 °C 14,5 km/h (3 Bft)
01.03.2019 08:26 5,4 °C 76 % 1012,6 hPa 0,0 mm 12,7 km/h (3 Bft) W-SW 245 ° 0 min 0,000 mm 0,5 UV-I 91 W/m² 1,5 °C 2,6 °C 19,3 km/h (3 Bft)
01.03.2019 08:27 5,4 °C 76 % 1012,5 hPa 0,0 mm 12,1 km/h (2 Bft) W 272 ° 0 min 0,000 mm 0,5 UV-I 93 W/m² 1,5 °C 2,7 °C 19,3 km/h (3 Bft)
01.03.2019 08:28 5,4 °C 76 % 1012,5 hPa 0,0 mm 9,4 km/h (2 Bft) W-SW 252 ° 0 min 0,000 mm 0,5 UV-I 93 W/m² 1,5 °C 3,3 °C 16,1 km/h (3 Bft)
01.03.2019 08:29 5,5 °C 76 % 1012,5 hPa 0,0 mm 7,6 km/h (2 Bft) W 260 ° 0 min 0,000 mm 0,5 UV-I 100 W/m² 1,6 °C 3,8 °C 14,5 km/h (3 Bft)
01.03.2019 08:30 5,5 °C 76 % 1012,4 hPa 0,0 mm 5,5 km/h (1 Bft) W-NW 288 ° 0 min 0,000 mm 0,5 UV-I 102 W/m² 1,6 °C 4,5 °C 12,9 km/h (3 Bft)
01.03.2019 08:31 5,5 °C 76 % 1012,4 hPa 0,0 mm 11,2 km/h (2 Bft) W-SW 250 ° 0 min 0,000 mm 0,5 UV-I 98 W/m² 1,6 °C 3,0 °C 24,1 km/h (4 Bft)
01.03.2019 08:32 5,5 °C 76 % 1012,4 hPa 0,0 mm 9,9 km/h (2 Bft) W-SW 254 ° 0 min 0,000 mm 0,5 UV-I 98 W/m² 1,6 °C 3,3 °C 14,5 km/h (3 Bft)
01.03.2019 08:33 5,6 °C 76 % 1012,4 hPa 0,0 mm 14,4 km/h (3 Bft) W-SW 243 ° 0 min 0,000 mm 0,5 UV-I 98 W/m² 1,7 °C 2,6 °C 19,3 km/h (3 Bft)
01.03.2019 08:34 5,6 °C 75 % 1012,4 hPa 0,0 mm 10,3 km/h (2 Bft) W-SW 257 ° 0 min 0,000 mm 0,5 UV-I 100 W/m² 1,5 °C 3,3 °C 16,1 km/h (3 Bft)
01.03.2019 08:35 5,6 °C 75 % 1012,4 hPa 0,0 mm 12,8 km/h (3 Bft) W 263 ° 0 min 0,000 mm 0,5 UV-I 102 W/m² 1,5 °C 2,8 °C 16,1 km/h (3 Bft)
01.03.2019 08:36 5,5 °C 75 % 1012,4 hPa 0,0 mm 15,8 km/h (3 Bft) W-NW 292 ° 0 min 0,000 mm 0,5 UV-I 98 W/m² 1,4 °C 2,2 °C 22,5 km/h (4 Bft)
01.03.2019 08:37 5,4 °C 75 % 1012,4 hPa 0,0 mm 9,0 km/h (2 Bft) W-SW 250 ° 0 min 0,000 mm 0,5 UV-I 95 W/m² 1,3 °C 3,4 °C 16,1 km/h (3 Bft)
01.03.2019 08:38 5,4 °C 76 % 1012,4 hPa 0,0 mm 13,6 km/h (3 Bft) W-SW 252 ° 0 min 0,000 mm 0,5 UV-I 90 W/m² 1,5 °C 2,5 °C 22,5 km/h (4 Bft)
01.03.2019 08:39 5,4 °C 76 % 1012,4 hPa 0,0 mm 10,8 km/h (2 Bft) W 270 ° 0 min 0,000 mm 0,5 UV-I 88 W/m² 1,5 °C 3,0 °C 14,5 km/h (3 Bft)
01.03.2019 08:40 5,4 °C 75 % 1012,4 hPa 0,0 mm 11,6 km/h (2 Bft) W-SW 257 ° 0 min 0,000 mm 0,5 UV-I 86 W/m² 1,3 °C 2,8 °C 17,7 km/h (3 Bft)
01.03.2019 08:41 5,4 °C 76 % 1012,4 hPa 0,0 mm 8,4 km/h (2 Bft) W 270 ° 0 min 0,000 mm 0,5 UV-I 86 W/m² 1,5 °C 3,5 °C 12,9 km/h (3 Bft)
01.03.2019 08:42 5,4 °C 76 % 1012,4 hPa 0,0 mm 8,5 km/h (2 Bft) W 259 ° 0 min 0,000 mm 0,6 UV-I 90 W/m² 1,5 °C 3,5 °C 16,1 km/h (3 Bft)
01.03.2019 08:43 5,4 °C 76 % 1012,4 hPa 0,0 mm 11,7 km/h (2 Bft) W 265 ° 0 min 0,000 mm 0,6 UV-I 93 W/m² 1,5 °C 2,8 °C 16,1 km/h (3 Bft)
01.03.2019 08:44 5,4 °C 76 % 1012,4 hPa 0,0 mm 7,9 km/h (2 Bft) W-SW 254 ° 0 min 0,000 mm 0,6 UV-I 98 W/m² 1,5 °C 3,6 °C 11,3 km/h (2 Bft)
01.03.2019 08:45 5,4 °C 75 % 1012,4 hPa 0,0 mm 8,9 km/h (2 Bft) W 274 ° 0 min 0,000 mm 0,6 UV-I 104 W/m² 1,3 °C 3,4 °C 11,3 km/h (2 Bft)
01.03.2019 08:46 5,4 °C 75 % 1012,4 hPa 0,0 mm 12,8 km/h (3 Bft) W 269 ° 0 min 0,000 mm 0,6 UV-I 105 W/m² 1,3 °C 2,6 °C 17,7 km/h (3 Bft)
01.03.2019 08:47 5,4 °C 76 % 1012,5 hPa 0,0 mm 11,0 km/h (2 Bft) W 281 ° 0 min 0,000 mm 0,6 UV-I 105 W/m² 1,5 °C 2,9 °C 17,7 km/h (3 Bft)
01.03.2019 08:48 5,4 °C 75 % 1012,4 hPa 0,0 mm 15,1 km/h (3 Bft) W-SW 257 ° 0 min 0,000 mm 0,6 UV-I 105 W/m² 1,3 °C 2,2 °C 20,9 km/h (4 Bft)
01.03.2019 08:49 5,5 °C 75 % 1012,5 hPa 0,0 mm 17,0 km/h (3 Bft) W-SW 248 ° 0 min 0,000 mm 0,5 UV-I 104 W/m² 1,4 °C 2,1 °C 20,9 km/h (4 Bft)
01.03.2019 08:50 5,5 °C 75 % 1012,5 hPa 0,0 mm 12,9 km/h (3 Bft) W-SW 244 ° 0 min 0,000 mm 0,5 UV-I 104 W/m² 1,4 °C 2,7 °C 19,3 km/h (3 Bft)
01.03.2019 08:51 5,6 °C 75 % 1012,4 hPa 0,0 mm 11,8 km/h (2 Bft) SW 234 ° 0 min 0,000 mm 0,5 UV-I 104 W/m² 1,5 °C 3,0 °C 17,7 km/h (3 Bft)
01.03.2019 08:52 5,6 °C 75 % 1012,5 hPa 0,0 mm 17,5 km/h (3 Bft) W 271 ° 0 min 0,000 mm 0,5 UV-I 98 W/m² 1,5 °C 2,1 °C 20,9 km/h (4 Bft)
01.03.2019 08:53 5,6 °C 75 % 1012,5 hPa 0,0 mm 10,3 km/h (2 Bft) W-NW 294 ° 0 min 0,000 mm 0,5 UV-I 97 W/m² 1,5 °C 3,3 °C 19,3 km/h (3 Bft)
01.03.2019 08:54 5,6 °C 75 % 1012,5 hPa 0,0 mm 10,8 km/h (2 Bft) W 277 ° 0 min 0,000 mm 0,5 UV-I 98 W/m² 1,5 °C 3,2 °C 16,1 km/h (3 Bft)
01.03.2019 08:55 5,6 °C 75 % 1012,5 hPa 0,0 mm 12,7 km/h (3 Bft) W 279 ° 0 min 0,000 mm 0,5 UV-I 97 W/m² 1,5 °C 2,9 °C 16,1 km/h (3 Bft)
01.03.2019 08:56 5,6 °C 75 % 1012,4 hPa 0,0 mm 8,8 km/h (2 Bft) W-SW 257 ° 0 min 0,000 mm 0,5 UV-I 98 W/m² 1,5 °C 3,6 °C 19,3 km/h (3 Bft)
01.03.2019 08:57 5,6 °C 75 % 1012,5 hPa 0,0 mm 10,8 km/h (2 Bft) W 263 ° 0 min 0,000 mm 0,5 UV-I 98 W/m² 1,5 °C 3,2 °C 17,7 km/h (3 Bft)
01.03.2019 08:58 5,5 °C 75 % 1012,5 hPa 0,0 mm 10,8 km/h (2 Bft) W-SW 252 ° 0 min 0,000 mm 0,5 UV-I 98 W/m² 1,4 °C 3,1 °C 14,5 km/h (3 Bft)
01.03.2019 08:59 5,5 °C 75 % 1012,5 hPa 0,0 mm 9,4 km/h (2 Bft) W-SW 254 ° 0 min 0,000 mm 0,5 UV-I 98 W/m² 1,4 °C 3,4 °C 14,5 km/h (3 Bft)
01.03.2019 09:00 5,5 °C 75 % 1012,5 hPa 0,0 mm 12,1 km/h (2 Bft) W 267 ° 0 min 0,000 mm 0,5 UV-I 98 W/m² 1,4 °C 2,8 °C 17,7 km/h (3 Bft)
01.03.2019 09:01 5,5 °C 75 % 1012,5 hPa 0,0 mm 8,9 km/h (2 Bft) W 275 ° 0 min 0,076 mm 0,5 UV-I 98 W/m² 1,4 °C 3,5 °C 14,5 km/h (3 Bft)
01.03.2019 09:02 5,6 °C 75 % 1012,5 hPa 0,0 mm 12,1 km/h (2 Bft) W 260 ° 0 min 0,000 mm 0,6 UV-I 98 W/m² 1,5 °C 3,0 °C 16,1 km/h (3 Bft)
01.03.2019 09:03 5,6 °C 75 % 1012,5 hPa 0,0 mm 10,9 km/h (2 Bft) W 270 ° 0 min 0,000 mm 0,5 UV-I 97 W/m² 1,5 °C 3,2 °C 12,9 km/h (3 Bft)
01.03.2019 09:04 5,6 °C 75 % 1012,5 hPa 0,0 mm 10,9 km/h (2 Bft) W 262 ° 0 min 0,000 mm 0,5 UV-I 88 W/m² 1,5 °C 3,2 °C 12,9 km/h (3 Bft)
01.03.2019 09:05 5,6 °C 75 % 1012,5 hPa 0,0 mm 15,1 km/h (3 Bft) W 260 ° 0 min 0,000 mm 0,5 UV-I 84 W/m² 1,5 °C 2,5 °C 22,5 km/h (4 Bft)
01.03.2019 09:06 5,6 °C 75 % 1012,5 hPa 0,0 mm 12,8 km/h (3 Bft) W-SW 257 ° 0 min 0,000 mm 0,5 UV-I 84 W/m² 1,5 °C 2,8 °C 19,3 km/h (3 Bft)
01.03.2019 09:07 5,6 °C 75 % 1012,5 hPa 0,0 mm 11,8 km/h (2 Bft) W-SW 241 ° 0 min 0,000 mm 0,5 UV-I 88 W/m² 1,5 °C 3,0 °C 22,5 km/h (4 Bft)
01.03.2019 09:08 5,6 °C 74 % 1012,5 hPa 0,0 mm 16,8 km/h (3 Bft) W-SW 258 ° 0 min 0,000 mm 0,5 UV-I 88 W/m² 1,3 °C 2,2 °C 25,7 km/h (4 Bft)
01.03.2019 09:09 5,6 °C 75 % 1012,5 hPa 0,0 mm 19,6 km/h (3 Bft) W-SW 258 ° 0 min 0,000 mm 0,6 UV-I 91 W/m² 1,5 °C 1,9 °C 29,0 km/h (5 Bft)
01.03.2019 09:10 5,6 °C 74 % 1012,5 hPa 0,0 mm 14,6 km/h (3 Bft) W-SW 257 ° 0 min 0,000 mm 0,6 UV-I 100 W/m² 1,3 °C 2,5 °C 20,9 km/h (4 Bft)
01.03.2019 09:11 5,6 °C 75 % 1012,4 hPa 0,0 mm 13,0 km/h (3 Bft) W 276 ° 0 min 0,000 mm 0,7 UV-I 105 W/m² 1,5 °C 2,8 °C 16,1 km/h (3 Bft)
01.03.2019 09:12 5,6 °C 75 % 1012,5 hPa 0,0 mm 12,5 km/h (3 Bft) W 271 ° 0 min 0,000 mm 0,7 UV-I 107 W/m² 1,5 °C 2,9 °C 17,7 km/h (3 Bft)
01.03.2019 09:13 5,6 °C 75 % 1012,5 hPa 0,0 mm 13,5 km/h (3 Bft) W 279 ° 0 min 0,000 mm 0,7 UV-I 111 W/m² 1,5 °C 2,7 °C 20,9 km/h (4 Bft)
01.03.2019 09:14 5,6 °C 75 % 1012,5 hPa 0,0 mm 9,3 km/h (2 Bft) W-SW 244 ° 0 min 0,000 mm 0,7 UV-I 116 W/m² 1,5 °C 3,5 °C 12,9 km/h (3 Bft)
01.03.2019 09:15 5,6 °C 75 % 1012,5 hPa 0,0 mm 13,1 km/h (3 Bft) W-SW 252 ° 0 min 0,000 mm 0,8 UV-I 123 W/m² 1,5 °C 2,8 °C 22,5 km/h (4 Bft)
01.03.2019 09:16 5,6 °C 75 % 1012,5 hPa 0,0 mm 15,7 km/h (3 Bft) SW 235 ° 0 min 0,000 mm 0,8 UV-I 127 W/m² 1,5 °C 2,4 °C 19,3 km/h (3 Bft)
01.03.2019 09:17 5,6 °C 75 % 1012,5 hPa 0,0 mm 9,9 km/h (2 Bft) W 280 ° 0 min 0,000 mm 0,8 UV-I 123 W/m² 1,5 °C 3,4 °C 14,5 km/h (3 Bft)
01.03.2019 09:18 5,6 °C 75 % 1012,6 hPa 0,0 mm 12,4 km/h (3 Bft) W-SW 257 ° 0 min 0,000 mm 0,7 UV-I 118 W/m² 1,5 °C 2,9 °C 19,3 km/h (3 Bft)
01.03.2019 09:19 5,5 °C 76 % 1012,7 hPa 0,0 mm 13,7 km/h (3 Bft) W 262 ° 0 min 0,000 mm 0,7 UV-I 111 W/m² 1,6 °C 2,6 °C 19,3 km/h (3 Bft)
01.03.2019 09:20 5,6 °C 76 % 1012,7 hPa 0,0 mm 18,8 km/h (3 Bft) W 264 ° 0 min 0,000 mm 0,7 UV-I 109 W/m² 1,7 °C 2,0 °C 25,7 km/h (4 Bft)
01.03.2019 09:21 5,6 °C 76 % 1012,7 hPa 0,0 mm 14,9 km/h (3 Bft) NW 307 ° 0 min 0,000 mm 0,7 UV-I 109 W/m² 1,7 °C 2,5 °C 22,5 km/h (4 Bft)
01.03.2019 09:22 5,6 °C 76 % 1012,7 hPa 0,0 mm 17,4 km/h (3 Bft) W 262 ° 0 min 0,000 mm 0,7 UV-I 111 W/m² 1,7 °C 2,1 °C 29,0 km/h (5 Bft)
01.03.2019 09:23 5,6 °C 76 % 1012,7 hPa 0,0 mm 18,1 km/h (3 Bft) W-NW 289 ° 0 min 0,000 mm 0,7 UV-I 114 W/m² 1,7 °C 2,1 °C 20,9 km/h (4 Bft)
01.03.2019 09:24 5,6 °C 76 % 1012,7 hPa 0,0 mm 11,1 km/h (2 Bft) W 259 ° 0 min 0,000 mm 0,8 UV-I 118 W/m² 1,7 °C 3,2 °C 16,1 km/h (3 Bft)
01.03.2019 09:25 5,6 °C 76 % 1012,7 hPa 0,0 mm 21,1 km/h (4 Bft) NW 321 ° 0 min 0,000 mm 0,8 UV-I 118 W/m² 1,7 °C 1,7 °C 30,6 km/h (5 Bft)
01.03.2019 09:26 5,6 °C 76 % 1012,8 hPa 0,0 mm 21,4 km/h (4 Bft) W 271 ° 0 min 0,000 mm 0,7 UV-I 116 W/m² 1,7 °C 1,7 °C 30,6 km/h (5 Bft)
01.03.2019 09:27 5,6 °C 76 % 1012,8 hPa 0,0 mm 15,1 km/h (3 Bft) W 262 ° 0 min 0,000 mm 0,7 UV-I 114 W/m² 1,7 °C 2,5 °C 20,9 km/h (4 Bft)
01.03.2019 09:28 5,6 °C 76 % 1012,8 hPa 0,0 mm 12,5 km/h (3 Bft) SW 235 ° 0 min 0,000 mm 0,7 UV-I 113 W/m² 1,7 °C 2,9 °C 20,9 km/h (4 Bft)
01.03.2019 09:29 5,6 °C 76 % 1012,7 hPa 0,0 mm 12,5 km/h (3 Bft) W-SW 251 ° 0 min 0,000 mm 0,7 UV-I 113 W/m² 1,7 °C 2,9 °C 17,7 km/h (3 Bft)
01.03.2019 09:30 5,5 °C 77 % 1012,8 hPa 0,0 mm 13,2 km/h (3 Bft) W-SW 253 ° 0 min 0,000 mm 0,7 UV-I 109 W/m² 1,8 °C 2,7 °C 19,3 km/h (3 Bft)
01.03.2019 09:31 5,4 °C 77 % 1012,8 hPa 0,0 mm 18,5 km/h (3 Bft) W-SW 254 ° 0 min 0,000 mm 0,7 UV-I 107 W/m² 1,7 °C 1,8 °C 25,7 km/h (4 Bft)
01.03.2019 09:32 5,4 °C 78 % 1012,9 hPa 0,0 mm 18,1 km/h (3 Bft) W 267 ° 0 min 0,000 mm 0,6 UV-I 100 W/m² 1,9 °C 1,8 °C 22,5 km/h (4 Bft)
01.03.2019 09:33 5,3 °C 78 % 1012,9 hPa 0,0 mm 14,3 km/h (3 Bft) W 272 ° 0 min 0,000 mm 0,6 UV-I 81 W/m² 1,8 °C 2,2 °C 20,9 km/h (4 Bft)
01.03.2019 09:34 5,3 °C 78 % 1012,9 hPa 0,0 mm 13,9 km/h (3 Bft) W 264 ° 0 min 0,000 mm 0,5 UV-I 77 W/m² 1,8 °C 2,3 °C 27,4 km/h (4 Bft)
01.03.2019 09:35 5,3 °C 79 % 1013,0 hPa 0,0 mm 20,0 km/h (4 Bft) W 265 ° 0 min 0,000 mm 0,5 UV-I 74 W/m² 2,0 °C 1,4 °C 32,2 km/h (5 Bft)
01.03.2019 09:36 5,2 °C 79 % 1013,0 hPa 0,0 mm 21,6 km/h (4 Bft) W-NW 283 ° 0 min 0,000 mm 0,5 UV-I 70 W/m² 1,9 °C 1,1 °C 27,4 km/h (4 Bft)
01.03.2019 09:37 5,1 °C 80 % 1012,9 hPa 0,0 mm 18,7 km/h (3 Bft) W-SW 248 ° 0 min 0,000 mm 0,5 UV-I 69 W/m² 1,9 °C 1,4 °C 27,4 km/h (4 Bft)
01.03.2019 09:38 5,1 °C 80 % 1012,9 hPa 0,0 mm 20,4 km/h (4 Bft) W 260 ° 0 min 0,000 mm 0,5 UV-I 69 W/m² 1,9 °C 1,1 °C 30,6 km/h (5 Bft)
01.03.2019 09:39 5,0 °C 80 % 1013,0 hPa 0,2 mm 29,6 km/h (5 Bft) W 260 ° 0 min 0,000 mm 0,5 UV-I 65 W/m² 1,8 °C 0,1 °C 35,4 km/h (5 Bft)
01.03.2019 09:40 4,9 °C 81 % 1012,9 hPa 0,0 mm 24,7 km/h (4 Bft) W-NW 284 ° 0 min 0,000 mm 0,5 UV-I 65 W/m² 1,9 °C 0,4 °C 37,0 km/h (5 Bft)
01.03.2019 09:41 4,8 °C 81 % 1013,0 hPa 0,0 mm 22,9 km/h (4 Bft) W 265 ° 0 min 0,000 mm 0,5 UV-I 69 W/m² 1,8 °C 0,5 °C 38,6 km/h (5 Bft)
01.03.2019 09:42 4,8 °C 81 % 1013,1 hPa 0,0 mm 26,0 km/h (4 Bft) W-SW 258 ° 0 min 0,000 mm 0,5 UV-I 72 W/m² 1,8 °C 0,2 °C 33,8 km/h (5 Bft)
01.03.2019 09:43 4,7 °C 82 % 1013,0 hPa 0,0 mm 23,0 km/h (4 Bft) SW 232 ° 0 min 0,000 mm 0,5 UV-I 74 W/m² 1,9 °C 0,3 °C 30,6 km/h (5 Bft)
01.03.2019 09:44 4,6 °C 83 % 1012,9 hPa 0,0 mm 20,8 km/h (4 Bft) W-SW 253 ° 0 min 0,000 mm 0,6 UV-I 77 W/m² 2,0 °C 0,5 °C 29,0 km/h (5 Bft)
01.03.2019 09:45 4,6 °C 83 % 1013,0 hPa 0,0 mm 24,9 km/h (4 Bft) W 263 ° 0 min 0,000 mm 0,6 UV-I 84 W/m² 2,0 °C 0,0 °C 37,0 km/h (5 Bft)
01.03.2019 09:46 4,4 °C 83 % 1013,0 hPa 0,0 mm 18,6 km/h (3 Bft) W-NW 284 ° 0 min 0,000 mm 0,6 UV-I 84 W/m² 1,8 °C 0,5 °C 27,4 km/h (4 Bft)
01.03.2019 09:47 4,4 °C 83 % 1013,0 hPa 0,0 mm 20,3 km/h (4 Bft) W 277 ° 0 min 0,000 mm 0,6 UV-I 84 W/m² 1,8 °C 0,3 °C 30,6 km/h (5 Bft)
01.03.2019 09:48 4,3 °C 84 % 1013,0 hPa 0,0 mm 23,1 km/h (4 Bft) W 267 ° 0 min 0,000 mm 0,6 UV-I 83 W/m² 1,8 °C -0,2 °C 29,0 km/h (5 Bft)
01.03.2019 09:49 4,2 °C 84 % 1013,0 hPa 0,2 mm 21,9 km/h (4 Bft) W-NW 284 ° 0 min 0,000 mm 0,6 UV-I 79 W/m² 1,7 °C -0,2 °C 33,8 km/h (5 Bft)
01.03.2019 09:50 4,2 °C 84 % 1013,0 hPa 0,0 mm 15,2 km/h (3 Bft) W 265 ° 0 min 0,000 mm 0,5 UV-I 77 W/m² 1,7 °C 0,7 °C 32,2 km/h (5 Bft)
01.03.2019 09:51 4,2 °C 85 % 1013,0 hPa 0,0 mm 15,2 km/h (3 Bft) W-NW 286 ° 0 min 0,000 mm 0,5 UV-I 77 W/m² 1,9 °C 0,7 °C 24,1 km/h (4 Bft)
01.03.2019 09:52 4,1 °C 85 % 1013,0 hPa 0,0 mm 18,5 km/h (3 Bft) W 265 ° 0 min 0,000 mm 0,5 UV-I 76 W/m² 1,8 °C 0,1 °C 24,1 km/h (4 Bft)
01.03.2019 09:53 4,1 °C 85 % 1013,0 hPa 0,0 mm 21,1 km/h (4 Bft) W 263 ° 0 min 0,000 mm 0,6 UV-I 77 W/m² 1,8 °C -0,2 °C 32,2 km/h (5 Bft)
01.03.2019 09:54 4,0 °C 86 % 1013,0 hPa 0,0 mm 20,3 km/h (4 Bft) W-NW 284 ° 0 min 0,000 mm 0,6 UV-I 77 W/m² 1,9 °C -0,2 °C 24,1 km/h (4 Bft)
01.03.2019 09:55 4,0 °C 86 % 1013,0 hPa 0,0 mm 12,2 km/h (2 Bft) W 274 ° 0 min 0,000 mm 0,5 UV-I 76 W/m² 1,9 °C 1,0 °C 17,7 km/h (3 Bft)
01.03.2019 09:56 4,0 °C 86 % 1013,0 hPa 0,0 mm 10,8 km/h (2 Bft) W 263 ° 0 min 0,000 mm 0,5 UV-I 74 W/m² 1,9 °C 1,3 °C 14,5 km/h (3 Bft)
01.03.2019 09:57 3,9 °C 86 % 1013,0 hPa 0,0 mm 14,6 km/h (3 Bft) W 265 ° 0 min 0,000 mm 0,5 UV-I 67 W/m² 1,8 °C 0,5 °C 19,3 km/h (3 Bft)
01.03.2019 09:58 3,9 °C 86 % 1013,0 hPa 0,0 mm 14,8 km/h (3 Bft) W 261 ° 0 min 0,000 mm 0,5 UV-I 63 W/m² 1,8 °C 0,4 °C 22,5 km/h (4 Bft)
01.03.2019 09:59 3,8 °C 86 % 1013,0 hPa 0,0 mm 13,0 km/h (3 Bft) W 264 ° 0 min 0,000 mm 0,5 UV-I 62 W/m² 1,7 °C 0,6 °C 19,3 km/h (3 Bft)
01.03.2019 10:00 3,8 °C 87 % 1013,0 hPa 0,0 mm 9,8 km/h (2 Bft) SW 236 ° 0 min 0,000 mm 0,0 UV-I 60 W/m² 1,8 °C 1,3 °C 17,7 km/h (3 Bft)
01.03.2019 10:01 3,7 °C 87 % 1013,0 hPa 0,2 mm 13,0 km/h (3 Bft) SW 231 ° 0 min 0,076 mm 0,0 UV-I 60 W/m² 1,7 °C 0,5 °C 19,3 km/h (3 Bft)
01.03.2019 10:02 3,7 °C 87 % 1013,0 hPa 0,0 mm 14,6 km/h (3 Bft) W 267 ° 0 min 0,000 mm 0,0 UV-I 60 W/m² 1,7 °C 0,2 °C 17,7 km/h (3 Bft)
01.03.2019 10:03 3,7 °C 87 % 1013,0 hPa 0,0 mm 13,6 km/h (3 Bft) W 281 ° 0 min 0,000 mm 0,5 UV-I 62 W/m² 1,7 °C 0,4 °C 19,3 km/h (3 Bft)
01.03.2019 10:04 3,7 °C 88 % 1013,0 hPa 0,0 mm 13,3 km/h (3 Bft) W-SW 245 ° 0 min 0,000 mm 0,5 UV-I 63 W/m² 1,9 °C 0,4 °C 20,9 km/h (4 Bft)
01.03.2019 10:05 3,7 °C 88 % 1013,0 hPa 0,0 mm 15,7 km/h (3 Bft) W 268 ° 0 min 0,000 mm 0,5 UV-I 62 W/m² 1,9 °C 0,0 °C 20,9 km/h (4 Bft)
01.03.2019 10:06 3,6 °C 88 % 1013,0 hPa 0,0 mm 12,2 km/h (2 Bft) W 259 ° 0 min 0,000 mm 0,5 UV-I 60 W/m² 1,8 °C 0,5 °C 16,1 km/h (3 Bft)
01.03.2019 10:07 3,6 °C 88 % 1013,0 hPa 0,0 mm 7,9 km/h (2 Bft) W-SW 239 ° 0 min 0,000 mm 0,5 UV-I 60 W/m² 1,8 °C 1,5 °C 11,3 km/h (2 Bft)
01.03.2019 10:08 3,6 °C 88 % 1013,0 hPa 0,0 mm 9,4 km/h (2 Bft) W 277 ° 0 min 0,000 mm 0,5 UV-I 62 W/m² 1,8 °C 1,1 °C 12,9 km/h (3 Bft)
01.03.2019 10:09 3,5 °C 88 % 1013,0 hPa 0,0 mm 12,1 km/h (2 Bft) W 267 ° 0 min 0,000 mm 0,5 UV-I 63 W/m² 1,7 °C 0,4 °C 17,7 km/h (3 Bft)
01.03.2019 10:10 3,4 °C 88 % 1013,0 hPa 0,0 mm 10,9 km/h (2 Bft) W 261 ° 0 min 0,000 mm 0,5 UV-I 67 W/m² 1,6 °C 0,5 °C 12,9 km/h (3 Bft)
01.03.2019 10:11 3,4 °C 89 % 1013,0 hPa 0,2 mm 7,8 km/h (2 Bft) W 265 ° 0 min 0,000 mm 0,5 UV-I 69 W/m² 1,8 °C 1,3 °C 12,9 km/h (3 Bft)
01.03.2019 10:12 3,4 °C 89 % 1013,0 hPa 0,0 mm 9,6 km/h (2 Bft) W-SW 238 ° 0 min 0,000 mm 0,5 UV-I 67 W/m² 1,8 °C 0,8 °C 14,5 km/h (3 Bft)
01.03.2019 10:13 3,4 °C 89 % 1013,0 hPa 0,0 mm 10,1 km/h (2 Bft) W 265 ° 0 min 0,000 mm 0,5 UV-I 69 W/m² 1,8 °C 0,7 °C 17,7 km/h (3 Bft)
01.03.2019 10:14 3,4 °C 89 % 1013,0 hPa 0,0 mm 12,0 km/h (2 Bft) W 270 ° 0 min 0,000 mm 0,5 UV-I 72 W/m² 1,8 °C 0,3 °C 16,1 km/h (3 Bft)
01.03.2019 10:15 3,4 °C 89 % 1013,0 hPa 0,0 mm 10,6 km/h (2 Bft) W-NW 290 ° 0 min 0,000 mm 0,6 UV-I 77 W/m² 1,8 °C 0,6 °C 14,5 km/h (3 Bft)
01.03.2019 10:16 3,4 °C 89 % 1013,0 hPa 0,0 mm 8,1 km/h (2 Bft) W-SW 250 ° 0 min 0,000 mm 0,6 UV-I 83 W/m² 1,8 °C 1,2 °C 12,9 km/h (3 Bft)
01.03.2019 10:17 3,4 °C 89 % 1013,0 hPa 0,0 mm 9,3 km/h (2 Bft) W-NW 284 ° 0 min 0,000 mm 0,7 UV-I 86 W/m² 1,8 °C 0,9 °C 14,5 km/h (3 Bft)
01.03.2019 10:18 3,4 °C 89 % 1013,1 hPa 0,0 mm 8,9 km/h (2 Bft) W-SW 258 ° 0 min 0,000 mm 0,7 UV-I 90 W/m² 1,8 °C 1,0 °C 12,9 km/h (3 Bft)
01.03.2019 10:19 3,4 °C 89 % 1013,1 hPa 0,0 mm 9,7 km/h (2 Bft) W-SW 248 ° 0 min 0,000 mm 0,7 UV-I 95 W/m² 1,8 °C 0,8 °C 12,9 km/h (3 Bft)
01.03.2019 10:20 3,4 °C 89 % 1013,1 hPa 0,0 mm 11,3 km/h (2 Bft) W 265 ° 0 min 0,000 mm 0,8 UV-I 102 W/m² 1,8 °C 0,5 °C 22,5 km/h (4 Bft)
01.03.2019 10:21 3,4 °C 89 % 1013,0 hPa 0,2 mm 16,4 km/h (3 Bft) W 273 ° 0 min 0,000 mm 0,8 UV-I 105 W/m² 1,8 °C -0,4 °C 20,9 km/h (4 Bft)
01.03.2019 10:22 3,4 °C 89 % 1013,1 hPa 0,0 mm 11,1 km/h (2 Bft) W-NW 283 ° 0 min 0,000 mm 0,8 UV-I 109 W/m² 1,8 °C 0,5 °C 14,5 km/h (3 Bft)
01.03.2019 10:23 3,4 °C 90 % 1013,0 hPa 0,0 mm 7,0 km/h (2 Bft) W-NW 292 ° 0 min 0,000 mm 0,8 UV-I 109 W/m² 1,9 °C 1,6 °C 11,3 km/h (2 Bft)
01.03.2019 10:24 3,4 °C 90 % 1013,0 hPa 0,0 mm 8,6 km/h (2 Bft) W 273 ° 0 min 0,000 mm 0,8 UV-I 109 W/m² 1,9 °C 1,1 °C 12,9 km/h (3 Bft)
01.03.2019 10:25 3,3 °C 89 % 1013,0 hPa 0,0 mm 8,7 km/h (2 Bft) W-SW 254 ° 0 min 0,000 mm 0,8 UV-I 109 W/m² 1,7 °C 0,9 °C 12,9 km/h (3 Bft)
01.03.2019 10:26 3,4 °C 89 % 1013,0 hPa 0,0 mm 8,0 km/h (2 Bft) W 259 ° 0 min 0,000 mm 0,8 UV-I 114 W/m² 1,8 °C 1,3 °C 12,9 km/h (3 Bft)
01.03.2019 10:27 3,4 °C 90 % 1012,9 hPa 0,0 mm 8,1 km/h (2 Bft) W 261 ° 0 min 0,000 mm 0,9 UV-I 120 W/m² 1,9 °C 1,2 °C 12,9 km/h (3 Bft)
01.03.2019 10:28 3,4 °C 90 % 1013,0 hPa 0,0 mm 11,8 km/h (2 Bft) W 260 ° 0 min 0,000 mm 0,9 UV-I 123 W/m² 1,9 °C 0,4 °C 16,1 km/h (3 Bft)
01.03.2019 10:29 3,4 °C 90 % 1013,0 hPa 0,0 mm 10,0 km/h (2 Bft) W 260 ° 0 min 0,000 mm 1,0 UV-I 127 W/m² 1,9 °C 0,7 °C 12,9 km/h (3 Bft)
01.03.2019 10:30 3,4 °C 90 % 1012,9 hPa 0,0 mm 9,5 km/h (2 Bft) W 272 ° 0 min 0,000 mm 1,0 UV-I 128 W/m² 1,9 °C 0,9 °C 12,9 km/h (3 Bft)
01.03.2019 10:31 3,4 °C 90 % 1012,9 hPa 0,0 mm 10,3 km/h (2 Bft) W-SW 253 ° 0 min 0,000 mm 1,0 UV-I 132 W/m² 1,9 °C 0,7 °C 14,5 km/h (3 Bft)
01.03.2019 10:32 3,4 °C 90 % 1012,9 hPa 0,0 mm 5,5 km/h (1 Bft) W-SW 254 ° 0 min 0,000 mm 1,0 UV-I 130 W/m² 1,9 °C 2,1 °C 9,7 km/h (2 Bft)
01.03.2019 10:33 3,4 °C 90 % 1012,9 hPa 0,0 mm 6,1 km/h (2 Bft) W-SW 249 ° 0 min 0,000 mm 1,0 UV-I 128 W/m² 1,9 °C 1,8 °C 11,3 km/h (2 Bft)
01.03.2019 10:34 3,4 °C 90 % 1012,9 hPa 0,0 mm 6,2 km/h (2 Bft) W 265 ° 0 min 0,000 mm 0,9 UV-I 123 W/m² 1,9 °C 1,8 °C 9,7 km/h (2 Bft)
01.03.2019 10:35 3,4 °C 90 % 1012,9 hPa 0,0 mm 5,3 km/h (1 Bft) W 270 ° 0 min 0,000 mm 0,9 UV-I 116 W/m² 1,9 °C 2,1 °C 8,0 km/h (2 Bft)
01.03.2019 10:36 3,5 °C 90 % 1012,8 hPa 0,0 mm 9,9 km/h (2 Bft) W 259 ° 0 min 0,000 mm 0,8 UV-I 109 W/m² 2,0 °C 0,9 °C 14,5 km/h (3 Bft)
01.03.2019 10:37 3,5 °C 90 % 1012,9 hPa 0,0 mm 14,1 km/h (3 Bft) W-SW 250 ° 0 min 0,000 mm 0,8 UV-I 105 W/m² 2,0 °C 0,1 °C 17,7 km/h (3 Bft)
01.03.2019 10:38 3,4 °C 90 % 1012,9 hPa 0,0 mm 9,4 km/h (2 Bft) W 259 ° 0 min 0,000 mm 0,8 UV-I 104 W/m² 1,9 °C 0,9 °C 12,9 km/h (3 Bft)
01.03.2019 10:39 3,4 °C 90 % 1012,9 hPa 0,0 mm 9,7 km/h (2 Bft) W-SW 244 ° 0 min 0,000 mm 0,8 UV-I 104 W/m² 1,9 °C 0,8 °C 14,5 km/h (3 Bft)
01.03.2019 10:40 3,4 °C 90 % 1012,9 hPa 0,0 mm 8,2 km/h (2 Bft) W 266 ° 0 min 0,000 mm 0,8 UV-I 105 W/m² 1,9 °C 1,2 °C 14,5 km/h (3 Bft)
01.03.2019 10:41 3,4 °C 90 % 1012,9 hPa 0,0 mm 7,9 km/h (2 Bft) W-SW 256 ° 0 min 0,000 mm 0,8 UV-I 109 W/m² 1,9 °C 1,3 °C 12,9 km/h (3 Bft)
01.03.2019 10:42 3,4 °C 90 % 1012,9 hPa 0,0 mm 8,7 km/h (2 Bft) W 263 ° 0 min 0,000 mm 0,9 UV-I 109 W/m² 1,9 °C 1,1 °C 16,1 km/h (3 Bft)
01.03.2019 10:43 3,4 °C 90 % 1012,9 hPa 0,2 mm 5,4 km/h (1 Bft) W 267 ° 0 min 0,000 mm 0,8 UV-I 109 W/m² 1,9 °C 2,1 °C 9,7 km/h (2 Bft)
01.03.2019 10:44 3,4 °C 90 % 1012,9 hPa 0,0 mm 5,1 km/h (1 Bft) W-SW 246 ° 0 min 0,000 mm 0,9 UV-I 113 W/m² 1,9 °C 2,2 °C 6,4 km/h (2 Bft)
01.03.2019 10:45 3,4 °C 90 % 1012,9 hPa 0,0 mm 9,4 km/h (2 Bft) W 261 ° 0 min 0,000 mm 0,9 UV-I 114 W/m² 1,9 °C 0,9 °C 17,7 km/h (3 Bft)
01.03.2019 10:46 3,4 °C 90 % 1012,9 hPa 0,0 mm 11,1 km/h (2 Bft) W-NW 291 ° 0 min 0,000 mm 0,9 UV-I 113 W/m² 1,9 °C 0,5 °C 16,1 km/h (3 Bft)
01.03.2019 10:47 3,4 °C 90 % 1012,9 hPa 0,0 mm 11,4 km/h (2 Bft) SW 233 ° 0 min 0,000 mm 0,9 UV-I 111 W/m² 1,9 °C 0,4 °C 14,5 km/h (3 Bft)
01.03.2019 10:48 3,5 °C 90 % 1012,9 hPa 0,0 mm 11,5 km/h (2 Bft) W-SW 240 ° 0 min 0,000 mm 0,9 UV-I 111 W/m² 2,0 °C 0,5 °C 14,5 km/h (3 Bft)
01.03.2019 10:49 3,5 °C 90 % 1012,9 hPa 0,0 mm 4,9 km/h (1 Bft) W 261 ° 0 min 0,000 mm 0,9 UV-I 118 W/m² 2,0 °C 2,4 °C 9,7 km/h (2 Bft)
01.03.2019 10:50 3,6 °C 90 % 1012,8 hPa 0,0 mm 8,9 km/h (2 Bft) SW 230 ° 0 min 0,000 mm 0,9 UV-I 120 W/m² 2,1 °C 1,3 °C 11,3 km/h (2 Bft)
01.03.2019 10:51 3,5 °C 90 % 1012,9 hPa 0,0 mm 4,3 km/h (1 Bft) W-SW 244 ° 0 min 0,000 mm 0,9 UV-I 120 W/m² 2,0 °C 3,5 °C 6,4 km/h (2 Bft)
01.03.2019 10:52 3,5 °C 90 % 1012,8 hPa 0,2 mm 4,5 km/h (1 Bft) W-SW 249 ° 0 min 0,000 mm 0,9 UV-I 120 W/m² 2,0 °C 3,5 °C 8,0 km/h (2 Bft)
01.03.2019 10:53 3,5 °C 90 % 1012,9 hPa 0,0 mm 7,1 km/h (2 Bft) W-SW 242 ° 0 min 0,000 mm 0,9 UV-I 120 W/m² 2,0 °C 1,6 °C 11,3 km/h (2 Bft)
01.03.2019 10:54 3,5 °C 90 % 1012,9 hPa 0,0 mm 4,9 km/h (1 Bft) SW 233 ° 0 min 0,000 mm 0,9 UV-I 118 W/m² 2,0 °C 2,4 °C 6,4 km/h (2 Bft)
01.03.2019 10:55 3,5 °C 90 % 1012,9 hPa 0,0 mm 5,4 km/h (1 Bft) SW 234 ° 0 min 0,000 mm 0,9 UV-I 123 W/m² 2,0 °C 2,2 °C 8,0 km/h (2 Bft)
01.03.2019 10:56 3,6 °C 90 % 1012,9 hPa 0,0 mm 4,5 km/h (1 Bft) SW 236 ° 0 min 0,000 mm 1,0 UV-I 123 W/m² 2,1 °C 3,6 °C 8,0 km/h (2 Bft)
01.03.2019 10:57 3,6 °C 90 % 1012,9 hPa 0,0 mm 4,5 km/h (1 Bft) W-SW 256 ° 0 min 0,000 mm 0,9 UV-I 120 W/m² 2,1 °C 3,6 °C 6,4 km/h (2 Bft)
01.03.2019 10:58 3,6 °C 90 % 1012,9 hPa 0,0 mm 8,4 km/h (2 Bft) SW 229 ° 0 min 0,000 mm 0,9 UV-I 118 W/m² 2,1 °C 1,4 °C 17,7 km/h (3 Bft)
01.03.2019 10:59 3,6 °C 90 % 1012,9 hPa 0,0 mm 14,3 km/h (3 Bft) W 267 ° 0 min 0,000 mm 0,9 UV-I 114 W/m² 2,1 °C 0,1 °C 22,5 km/h (4 Bft)
01.03.2019 11:00 3,6 °C 90 % 1012,9 hPa 0,0 mm 9,9 km/h (2 Bft) W-SW 242 ° 0 min 0,000 mm 0,9 UV-I 113 W/m² 2,1 °C 1,0 °C 19,3 km/h (3 Bft)
01.03.2019 11:01 3,6 °C 90 % 1012,9 hPa 0,0 mm 10,0 km/h (2 Bft) W 264 ° 0 min 0,051 mm 0,9 UV-I 114 W/m² 2,1 °C 1,0 °C 14,5 km/h (3 Bft)
01.03.2019 11:02 3,6 °C 90 % 1012,9 hPa 0,2 mm 11,2 km/h (2 Bft) W-SW 238 ° 0 min 0,000 mm 0,9 UV-I 120 W/m² 2,1 °C 0,7 °C 14,5 km/h (3 Bft)
01.03.2019 11:03 3,6 °C 90 % 1012,9 hPa 0,0 mm 6,5 km/h (2 Bft) W-SW 245 ° 0 min 0,000 mm 1,0 UV-I 125 W/m² 2,1 °C 1,9 °C 11,3 km/h (2 Bft)
01.03.2019 11:04 3,6 °C 90 % 1012,9 hPa 0,0 mm 5,9 km/h (2 Bft) W 260 ° 0 min 0,000 mm 1,0 UV-I 125 W/m² 2,1 °C 2,1 °C 11,3 km/h (2 Bft)
01.03.2019 11:05 3,6 °C 90 % 1012,9 hPa 0,0 mm 8,9 km/h (2 Bft) S-SW 213 ° 0 min 0,000 mm 1,0 UV-I 125 W/m² 2,1 °C 1,3 °C 14,5 km/h (3 Bft)
01.03.2019 11:06 3,6 °C 90 % 1012,9 hPa 0,0 mm 9,7 km/h (2 Bft) W-NW 282 ° 0 min 0,000 mm 1,0 UV-I 125 W/m² 2,1 °C 1,1 °C 16,1 km/h (3 Bft)
01.03.2019 11:07 3,6 °C 90 % 1013,0 hPa 0,0 mm 19,4 km/h (3 Bft) W-SW 255 ° 0 min 0,000 mm 1,0 UV-I 127 W/m² 2,1 °C -0,6 °C 24,1 km/h (4 Bft)
01.03.2019 11:08 3,6 °C 90 % 1012,9 hPa 0,0 mm 13,0 km/h (3 Bft) W-SW 239 ° 0 min 0,000 mm 1,0 UV-I 128 W/m² 2,1 °C 0,4 °C 16,1 km/h (3 Bft)
01.03.2019 11:09 3,6 °C 90 % 1012,9 hPa 0,0 mm 11,9 km/h (2 Bft) W-SW 258 ° 0 min 0,000 mm 1,0 UV-I 132 W/m² 2,1 °C 0,6 °C 17,7 km/h (3 Bft)
01.03.2019 11:10 3,6 °C 90 % 1013,0 hPa 0,0 mm 11,2 km/h (2 Bft) W-SW 240 ° 0 min 0,000 mm 1,1 UV-I 137 W/m² 2,1 °C 0,7 °C 16,1 km/h (3 Bft)
01.03.2019 11:11 3,7 °C 90 % 1012,9 hPa 0,0 mm 17,4 km/h (3 Bft) W-NW 288 ° 0 min 0,000 mm 1,1 UV-I 139 W/m² 2,2 °C -0,2 °C 29,0 km/h (5 Bft)
01.03.2019 11:12 3,7 °C 90 % 1012,9 hPa 0,0 mm 19,5 km/h (3 Bft) W 263 ° 0 min 0,000 mm 1,1 UV-I 141 W/m² 2,2 °C -0,5 °C 30,6 km/h (5 Bft)
01.03.2019 11:13 3,7 °C 90 % 1013,0 hPa 0,0 mm 18,4 km/h (3 Bft) N-NW 329 ° 0 min 0,000 mm 1,1 UV-I 141 W/m² 2,2 °C -0,4 °C 27,4 km/h (4 Bft)
01.03.2019 11:14 3,7 °C 90 % 1013,0 hPa 0,0 mm 20,5 km/h (4 Bft) W-NW 284 ° 0 min 0,000 mm 1,1 UV-I 141 W/m² 2,2 °C -0,6 °C 32,2 km/h (5 Bft)
01.03.2019 11:15 3,7 °C 90 % 1012,9 hPa 0,0 mm 20,5 km/h (4 Bft) W 259 ° 0 min 0,000 mm 1,1 UV-I 144 W/m² 2,2 °C -0,6 °C 30,6 km/h (5 Bft)
01.03.2019 11:16 3,7 °C 89 % 1013,0 hPa 0,0 mm 20,7 km/h (4 Bft) W 260 ° 0 min 0,000 mm 1,2 UV-I 148 W/m² 2,1 °C -0,7 °C 29,0 km/h (5 Bft)
01.03.2019 11:17 3,7 °C 89 % 1013,0 hPa 0,2 mm 19,8 km/h (3 Bft) W-NW 288 ° 0 min 0,000 mm 1,2 UV-I 149 W/m² 2,1 °C -0,5 °C 24,1 km/h (4 Bft)
01.03.2019 11:18 3,7 °C 89 % 1013,0 hPa 0,0 mm 22,5 km/h (4 Bft) W-NW 286 ° 0 min 0,000 mm 1,2 UV-I 149 W/m² 2,1 °C -0,9 °C 32,2 km/h (5 Bft)
01.03.2019 11:19 3,7 °C 89 % 1013,0 hPa 0,0 mm 12,2 km/h (2 Bft) W-NW 292 ° 0 min 0,000 mm 1,1 UV-I 142 W/m² 2,1 °C 0,6 °C 16,1 km/h (3 Bft)
01.03.2019 11:20 3,7 °C 89 % 1013,1 hPa 0,0 mm 16,0 km/h (3 Bft) W 277 ° 0 min 0,000 mm 1,1 UV-I 134 W/m² 2,1 °C -0,0 °C 19,3 km/h (3 Bft)
01.03.2019 11:21 3,7 °C 89 % 1012,9 hPa 0,0 mm 17,4 km/h (3 Bft) W-NW 289 ° 0 min 0,000 mm 1,1 UV-I 135 W/m² 2,1 °C -0,2 °C 29,0 km/h (5 Bft)
01.03.2019 11:22 3,6 °C 89 % 1012,9 hPa 0,0 mm 21,3 km/h (4 Bft) W 280 ° 0 min 0,000 mm 1,2 UV-I 137 W/m² 2,0 °C -0,9 °C 29,0 km/h (5 Bft)
01.03.2019 11:23 3,6 °C 89 % 1013,0 hPa 0,0 mm 17,5 km/h (3 Bft) W-SW 241 ° 0 min 0,000 mm 1,2 UV-I 141 W/m² 2,0 °C -0,4 °C 27,4 km/h (4 Bft)
01.03.2019 11:24 3,6 °C 89 % 1013,0 hPa 0,0 mm 13,6 km/h (3 Bft) W-NW 282 ° 0 min 0,000 mm 1,3 UV-I 142 W/m² 2,0 °C 0,3 °C 22,5 km/h (4 Bft)
01.03.2019 11:25 3,6 °C 89 % 1013,0 hPa 0,0 mm 15,0 km/h (3 Bft) W 267 ° 0 min 0,000 mm 1,3 UV-I 144 W/m² 2,0 °C 0,0 °C 19,3 km/h (3 Bft)
01.03.2019 11:26 3,6 °C 89 % 1013,1 hPa 0,0 mm 22,5 km/h (4 Bft) W 275 ° 0 min 0,000 mm 1,2 UV-I 137 W/m² 2,0 °C -1,0 °C 32,2 km/h (5 Bft)
01.03.2019 11:27 3,6 °C 89 % 1013,1 hPa 0,0 mm 15,7 km/h (3 Bft) W-SW 245 ° 0 min 0,000 mm 1,1 UV-I 134 W/m² 2,0 °C -0,1 °C 25,7 km/h (4 Bft)
01.03.2019 11:28 3,6 °C 89 % 1013,1 hPa 0,0 mm 8,9 km/h (2 Bft) W-NW 301 ° 0 min 0,000 mm 1,1 UV-I 128 W/m² 2,0 °C 1,3 °C 14,5 km/h (3 Bft)
01.03.2019 11:29 3,6 °C 89 % 1013,1 hPa 0,0 mm 13,6 km/h (3 Bft) W-SW 252 ° 0 min 0,000 mm 1,1 UV-I 128 W/m² 2,0 °C 0,3 °C 17,7 km/h (3 Bft)
01.03.2019 11:30 3,6 °C 89 % 1013,1 hPa 0,2 mm 9,8 km/h (2 Bft) S-SW 213 ° 0 min 0,000 mm 1,1 UV-I 132 W/m² 2,0 °C 1,0 °C 20,9 km/h (4 Bft)
01.03.2019 11:31 3,6 °C 89 % 1012,9 hPa 0,0 mm 9,8 km/h (2 Bft) SW 226 ° 0 min 0,000 mm 1,1 UV-I 128 W/m² 2,0 °C 1,0 °C 20,9 km/h (4 Bft)
01.03.2019 11:32 3,6 °C 89 % 1013,1 hPa 0,0 mm 11,0 km/h (2 Bft) SW 232 ° 0 min 0,000 mm 1,1 UV-I 125 W/m² 2,0 °C 0,8 °C 16,1 km/h (3 Bft)
01.03.2019 11:33 3,6 °C 89 % 1013,1 hPa 0,0 mm 20,0 km/h (4 Bft) W 273 ° 0 min 0,000 mm 1,1 UV-I 125 W/m² 2,0 °C -0,7 °C 27,4 km/h (4 Bft)
01.03.2019 11:34 3,5 °C 89 % 1013,1 hPa 0,0 mm 15,5 km/h (3 Bft) W-SW 252 ° 0 min 0,000 mm 1,1 UV-I 130 W/m² 1,9 °C -0,2 °C 24,1 km/h (4 Bft)
01.03.2019 11:35 3,5 °C 89 % 1013,1 hPa 0,0 mm 15,6 km/h (3 Bft) W 263 ° 0 min 0,000 mm 1,2 UV-I 135 W/m² 1,9 °C -0,2 °C 20,9 km/h (4 Bft)
01.03.2019 11:36 3,5 °C 89 % 1013,1 hPa 0,0 mm 20,9 km/h (4 Bft) W 263 ° 0 min 0,000 mm 1,2 UV-I 144 W/m² 1,9 °C -0,9 °C 27,4 km/h (4 Bft)
01.03.2019 11:37 3,5 °C 89 % 1013,2 hPa 0,0 mm 17,0 km/h (3 Bft) W-SW 258 ° 0 min 0,000 mm 1,2 UV-I 151 W/m² 1,9 °C -0,4 °C 24,1 km/h (4 Bft)
01.03.2019 11:38 3,5 °C 89 % 1013,2 hPa 0,0 mm 16,6 km/h (3 Bft) W 266 ° 0 min 0,000 mm 1,3 UV-I 156 W/m² 1,9 °C -0,4 °C 25,7 km/h (4 Bft)
01.03.2019 11:39 3,5 °C 89 % 1013,2 hPa 0,0 mm 12,3 km/h (3 Bft) SW 235 ° 0 min 0,000 mm 1,3 UV-I 158 W/m² 1,9 °C 0,4 °C 20,9 km/h (4 Bft)
01.03.2019 11:40 3,5 °C 89 % 1013,2 hPa 0,0 mm 8,9 km/h (2 Bft) W-SW 253 ° 0 min 0,000 mm 1,3 UV-I 162 W/m² 1,9 °C 1,1 °C 17,7 km/h (3 Bft)
01.03.2019 11:41 3,5 °C 90 % 1013,2 hPa 0,0 mm 10,1 km/h (2 Bft) W-SW 243 ° 0 min 0,000 mm 1,3 UV-I 165 W/m² 2,0 °C 0,8 °C 14,5 km/h (3 Bft)
01.03.2019 11:42 3,5 °C 89 % 1013,2 hPa 0,0 mm 10,9 km/h (2 Bft) W 259 ° 0 min 0,000 mm 1,2 UV-I 156 W/m² 1,9 °C 0,7 °C 16,1 km/h (3 Bft)
01.03.2019 11:43 3,5 °C 89 % 1013,3 hPa 0,0 mm 11,1 km/h (2 Bft) W 271 ° 0 min 0,000 mm 1,2 UV-I 156 W/m² 1,9 °C 0,6 °C 16,1 km/h (3 Bft)
01.03.2019 11:44 3,4 °C 90 % 1013,3 hPa 0,0 mm 12,5 km/h (3 Bft) W 268 ° 0 min 0,000 mm 1,2 UV-I 162 W/m² 1,9 °C 0,2 °C 17,7 km/h (3 Bft)
01.03.2019 11:45 3,4 °C 89 % 1013,2 hPa 0,0 mm 10,1 km/h (2 Bft) W 265 ° 0 min 0,000 mm 1,2 UV-I 162 W/m² 1,8 °C 0,7 °C 14,5 km/h (3 Bft)
01.03.2019 11:46 3,4 °C 90 % 1013,2 hPa 0,0 mm 11,7 km/h (2 Bft) W 267 ° 0 min 0,000 mm 1,2 UV-I 156 W/m² 1,9 °C 0,4 °C 16,1 km/h (3 Bft)
01.03.2019 11:47 3,4 °C 90 % 1013,2 hPa 0,2 mm 10,1 km/h (2 Bft) W 270 ° 0 min 0,000 mm 1,1 UV-I 148 W/m² 1,9 °C 0,7 °C 12,9 km/h (3 Bft)
01.03.2019 11:48 3,4 °C 90 % 1013,3 hPa 0,0 mm 10,8 km/h (2 Bft) W 271 ° 0 min 0,000 mm 1,1 UV-I 139 W/m² 1,9 °C 0,6 °C 14,5 km/h (3 Bft)
01.03.2019 11:49 3,4 °C 90 % 1013,3 hPa 0,0 mm 7,5 km/h (2 Bft) W 268 ° 0 min 0,000 mm 1,0 UV-I 134 W/m² 1,9 °C 1,4 °C 9,7 km/h (2 Bft)
01.03.2019 11:50 3,3 °C 90 % 1013,3 hPa 0,0 mm 7,9 km/h (2 Bft) W 263 ° 0 min 0,000 mm 1,0 UV-I 130 W/m² 1,8 °C 1,2 °C 11,3 km/h (2 Bft)
01.03.2019 11:51 3,4 °C 90 % 1013,3 hPa 0,0 mm 10,5 km/h (2 Bft) W 264 ° 0 min 0,000 mm 1,0 UV-I 130 W/m² 1,9 °C 0,6 °C 16,1 km/h (3 Bft)
01.03.2019 11:52 3,4 °C 90 % 1013,2 hPa 0,0 mm 10,2 km/h (2 Bft) W 264 ° 0 min 0,000 mm 1,0 UV-I 130 W/m² 1,9 °C 0,7 °C 16,1 km/h (3 Bft)
01.03.2019 11:53 3,4 °C 90 % 1013,3 hPa 0,0 mm 9,7 km/h (2 Bft) W 265 ° 0 min 0,000 mm 1,0 UV-I 130 W/m² 1,9 °C 0,8 °C 14,5 km/h (3 Bft)
01.03.2019 11:54 3,3 °C 90 % 1013,3 hPa 0,0 mm 8,5 km/h (2 Bft) W-SW 257 ° 0 min 0,000 mm 1,0 UV-I 128 W/m² 1,8 °C 1,0 °C 12,9 km/h (3 Bft)
01.03.2019 11:55 3,3 °C 90 % 1013,3 hPa 0,0 mm 9,0 km/h (2 Bft) W 273 ° 0 min 0,000 mm 1,0 UV-I 128 W/m² 1,8 °C 0,9 °C 12,9 km/h (3 Bft)
01.03.2019 11:56 3,3 °C 90 % 1013,3 hPa 0,0 mm 9,6 km/h (2 Bft) W 263 ° 0 min 0,000 mm 1,0 UV-I 128 W/m² 1,8 °C 0,7 °C 14,5 km/h (3 Bft)
01.03.2019 11:57 3,3 °C 90 % 1013,3 hPa 0,0 mm 5,0 km/h (1 Bft) SW 227 ° 0 min 0,000 mm 0,9 UV-I 123 W/m² 1,8 °C 2,2 °C 9,7 km/h (2 Bft)
01.03.2019 11:58 3,4 °C 90 % 1013,3 hPa 0,0 mm 3,6 km/h (1 Bft) S-SW 211 ° 0 min 0,000 mm 0,9 UV-I 120 W/m² 1,9 °C 3,4 °C 8,0 km/h (2 Bft)
01.03.2019 11:59 3,4 °C 90 % 1013,2 hPa 0,0 mm 6,4 km/h (2 Bft) W-SW 254 ° 0 min 0,000 mm 0,9 UV-I 116 W/m² 1,9 °C 1,7 °C 11,3 km/h (2 Bft)
01.03.2019 12:00 3,4 °C 90 % 1013,2 hPa 0,0 mm 6,3 km/h (2 Bft) W 272 ° 0 min 0,000 mm 0,9 UV-I 111 W/m² 1,9 °C 1,8 °C 16,1 km/h (3 Bft)
01.03.2019 12:01 3,4 °C 90 % 1013,2 hPa 0,0 mm 9,8 km/h (2 Bft) SW 232 ° 0 min 0,051 mm 0,9 UV-I 109 W/m² 1,9 °C 0,8 °C 14,5 km/h (3 Bft)
01.03.2019 12:02 3,4 °C 90 % 1013,3 hPa 0,2 mm 9,4 km/h (2 Bft) W-SW 253 ° 0 min 0,000 mm 0,8 UV-I 105 W/m² 1,9 °C 0,9 °C 16,1 km/h (3 Bft)
01.03.2019 12:03 3,4 °C 90 % 1013,3 hPa 0,0 mm 7,6 km/h (2 Bft) W-SW 250 ° 0 min 0,000 mm 0,8 UV-I 98 W/m² 1,9 °C 1,4 °C 14,5 km/h (3 Bft)
01.03.2019 12:04 3,4 °C 90 % 1013,3 hPa 0,0 mm 8,7 km/h (2 Bft) SW 230 ° 0 min 0,000 mm 0,8 UV-I 95 W/m² 1,9 °C 1,1 °C 14,5 km/h (3 Bft)
01.03.2019 12:05 3,4 °C 90 % 1013,3 hPa 0,0 mm 9,1 km/h (2 Bft) W-SW 254 ° 0 min 0,000 mm 0,8 UV-I 90 W/m² 1,9 °C 1,0 °C 12,9 km/h (3 Bft)
01.03.2019 12:06 3,4 °C 90 % 1013,3 hPa 0,0 mm 9,4 km/h (2 Bft) W-SW 254 ° 0 min 0,000 mm 0,8 UV-I 90 W/m² 1,9 °C 0,9 °C 16,1 km/h (3 Bft)
01.03.2019 12:07 3,3 °C 90 % 1013,3 hPa 0,0 mm 8,9 km/h (2 Bft) W-SW 250 ° 0 min 0,000 mm 0,8 UV-I 90 W/m² 1,8 °C 0,9 °C 11,3 km/h (2 Bft)
01.03.2019 12:08 3,3 °C 90 % 1013,2 hPa 0,0 mm 9,2 km/h (2 Bft) W 266 ° 0 min 0,000 mm 0,8 UV-I 90 W/m² 1,8 °C 0,8 °C 12,9 km/h (3 Bft)
01.03.2019 12:09 3,3 °C 90 % 1013,3 hPa 0,0 mm 8,7 km/h (2 Bft) W 265 ° 0 min 0,000 mm 0,8 UV-I 91 W/m² 1,8 °C 0,9 °C 14,5 km/h (3 Bft)
01.03.2019 12:10 3,3 °C 90 % 1013,3 hPa 0,0 mm 10,1 km/h (2 Bft) W 268 ° 0 min 0,000 mm 0,8 UV-I 97 W/m² 1,8 °C 0,6 °C 14,5 km/h (3 Bft)
01.03.2019 12:11 3,3 °C 90 % 1013,3 hPa 0,0 mm 10,5 km/h (2 Bft) W-NW 290 ° 0 min 0,000 mm 0,8 UV-I 102 W/m² 1,8 °C 0,5 °C 19,3 km/h (3 Bft)
01.03.2019 12:12 3,4 °C 90 % 1013,3 hPa 0,0 mm 13,3 km/h (3 Bft) W-NW 293 ° 0 min 0,000 mm 0,8 UV-I 105 W/m² 1,9 °C 0,1 °C 17,7 km/h (3 Bft)
01.03.2019 12:13 3,3 °C 90 % 1013,3 hPa 0,0 mm 10,7 km/h (2 Bft) S 178 ° 0 min 0,000 mm 0,9 UV-I 109 W/m² 1,8 °C 0,5 °C 16,1 km/h (3 Bft)
01.03.2019 12:14 3,4 °C 90 % 1013,2 hPa 0,0 mm 11,1 km/h (2 Bft) W 261 ° 0 min 0,000 mm 0,9 UV-I 113 W/m² 1,9 °C 0,5 °C 25,7 km/h (4 Bft)
01.03.2019 12:15 3,4 °C 90 % 1013,3 hPa 0,0 mm 17,6 km/h (3 Bft) W-SW 254 ° 0 min 0,000 mm 0,9 UV-I 114 W/m² 1,9 °C -0,6 °C 24,1 km/h (4 Bft)
01.03.2019 12:16 3,4 °C 90 % 1013,2 hPa 0,0 mm 9,7 km/h (2 Bft) W 259 ° 0 min 0,000 mm 0,9 UV-I 113 W/m² 1,9 °C 0,8 °C 14,5 km/h (3 Bft)
01.03.2019 12:17 3,4 °C 90 % 1013,2 hPa 0,0 mm 17,2 km/h (3 Bft) W-SW 256 ° 0 min 0,000 mm 0,9 UV-I 111 W/m² 1,9 °C -0,6 °C 24,1 km/h (4 Bft)
01.03.2019 12:18 3,4 °C 90 % 1013,2 hPa 0,0 mm 16,6 km/h (3 Bft) W 272 ° 0 min 0,000 mm 0,9 UV-I 109 W/m² 1,9 °C -0,5 °C 22,5 km/h (4 Bft)
01.03.2019 12:19 3,4 °C 90 % 1013,2 hPa 0,2 mm 14,9 km/h (3 Bft) W 260 ° 0 min 0,000 mm 0,9 UV-I 111 W/m² 1,9 °C -0,2 °C 19,3 km/h (3 Bft)
01.03.2019 12:20 3,4 °C 90 % 1013,2 hPa 0,0 mm 12,1 km/h (2 Bft) W 270 ° 0 min 0,000 mm 0,9 UV-I 111 W/m² 1,9 °C 0,3 °C 17,7 km/h (3 Bft)
01.03.2019 12:21 3,4 °C 90 % 1013,2 hPa 0,0 mm 9,3 km/h (2 Bft) W 266 ° 0 min 0,000 mm 0,9 UV-I 111 W/m² 1,9 °C 0,9 °C 14,5 km/h (3 Bft)
01.03.2019 12:22 3,4 °C 90 % 1013,2 hPa 0,0 mm 6,9 km/h (2 Bft) W 267 ° 0 min 0,000 mm 0,9 UV-I 113 W/m² 1,9 °C 1,6 °C 11,3 km/h (2 Bft)
01.03.2019 12:23 3,4 °C 90 % 1013,2 hPa 0,0 mm 8,9 km/h (2 Bft) W 275 ° 0 min 0,000 mm 0,9 UV-I 116 W/m² 1,9 °C 1,0 °C 11,3 km/h (2 Bft)
01.03.2019 12:24 3,4 °C 90 % 1013,2 hPa 0,0 mm 5,9 km/h (2 Bft) W 279 ° 0 min 0,000 mm 0,9 UV-I 116 W/m² 1,9 °C 1,9 °C 9,7 km/h (2 Bft)
01.03.2019 12:25 3,4 °C 90 % 1013,2 hPa 0,0 mm 4,4 km/h (1 Bft) W 273 ° 0 min 0,000 mm 0,9 UV-I 118 W/m² 1,9 °C 3,4 °C 6,4 km/h (2 Bft)
01.03.2019 12:26 3,4 °C 90 % 1013,2 hPa 0,0 mm 7,2 km/h (2 Bft) W 265 ° 0 min 0,000 mm 0,9 UV-I 118 W/m² 1,9 °C 1,5 °C 14,5 km/h (3 Bft)
01.03.2019 12:27 3,4 °C 90 % 1013,2 hPa 0,0 mm 7,7 km/h (2 Bft) W-SW 252 ° 0 min 0,000 mm 0,9 UV-I 118 W/m² 1,9 °C 1,3 °C 14,5 km/h (3 Bft)
01.03.2019 12:28 3,5 °C 90 % 1013,2 hPa 0,0 mm 12,8 km/h (3 Bft) W 271 ° 0 min 0,000 mm 0,9 UV-I 118 W/m² 2,0 °C 0,3 °C 16,1 km/h (3 Bft)
01.03.2019 12:29 3,5 °C 90 % 1013,2 hPa 0,0 mm 5,7 km/h (1 Bft) W 259 ° 0 min 0,000 mm 0,9 UV-I 116 W/m² 2,0 °C 2,1 °C 9,7 km/h (2 Bft)
01.03.2019 12:30 3,5 °C 90 % 1013,2 hPa 0,0 mm 9,4 km/h (2 Bft) W 271 ° 0 min 0,000 mm 0,9 UV-I 116 W/m² 2,0 °C 1,0 °C 14,5 km/h (3 Bft)
01.03.2019 12:31 3,6 °C 90 % 1013,2 hPa 0,0 mm 7,7 km/h (2 Bft) W-SW 239 ° 0 min 0,000 mm 0,9 UV-I 118 W/m² 2,1 °C 1,6 °C 12,9 km/h (3 Bft)
01.03.2019 12:32 3,6 °C 90 % 1013,1 hPa 0,0 mm 6,0 km/h (2 Bft) W-SW 258 ° 0 min 0,000 mm 0,9 UV-I 120 W/m² 2,1 °C 2,1 °C 8,0 km/h (2 Bft)
01.03.2019 12:33 3,6 °C 90 % 1013,1 hPa 0,0 mm 3,6 km/h (1 Bft) W-SW 257 ° 0 min 0,000 mm 0,9 UV-I 120 W/m² 2,1 °C 3,6 °C 6,4 km/h (2 Bft)
01.03.2019 12:34 3,6 °C 90 % 1013,1 hPa 0,0 mm 8,7 km/h (2 Bft) W-SW 251 ° 0 min 0,000 mm 1,0 UV-I 120 W/m² 2,1 °C 1,3 °C 12,9 km/h (3 Bft)
01.03.2019 12:35 3,6 °C 90 % 1013,1 hPa 0,0 mm 8,4 km/h (2 Bft) W-SW 256 ° 0 min 0,000 mm 1,0 UV-I 123 W/m² 2,1 °C 1,4 °C 12,9 km/h (3 Bft)
01.03.2019 12:36 3,6 °C 90 % 1013,1 hPa 0,0 mm 8,6 km/h (2 Bft) SW 236 ° 0 min 0,000 mm 1,0 UV-I 125 W/m² 2,1 °C 1,3 °C 14,5 km/h (3 Bft)
01.03.2019 12:37 3,6 °C 90 % 1013,1 hPa 0,0 mm 7,4 km/h (2 Bft) W-NW 293 ° 0 min 0,000 mm 1,0 UV-I 127 W/m² 2,1 °C 1,7 °C 12,9 km/h (3 Bft)
01.03.2019 12:38 3,6 °C 90 % 1013,1 hPa 0,2 mm 9,3 km/h (2 Bft) SW 226 ° 0 min 0,000 mm 1,0 UV-I 128 W/m² 2,1 °C 1,2 °C 14,5 km/h (3 Bft)
01.03.2019 12:39 3,6 °C 90 % 1013,1 hPa 0,0 mm 5,2 km/h (1 Bft) SW 215 ° 0 min 0,000 mm 1,0 UV-I 130 W/m² 2,1 °C 2,4 °C 11,3 km/h (2 Bft)
01.03.2019 12:40 3,6 °C 90 % 1013,1 hPa 0,0 mm 6,9 km/h (2 Bft) W 260 ° 0 min 0,000 mm 1,0 UV-I 130 W/m² 2,1 °C 1,8 °C 11,3 km/h (2 Bft)
01.03.2019 12:41 3,7 °C 90 % 1013,1 hPa 0,0 mm 9,1 km/h (2 Bft) W-SW 248 ° 0 min 0,000 mm 1,1 UV-I 135 W/m² 2,2 °C 1,3 °C 12,9 km/h (3 Bft)
01.03.2019 12:42 3,7 °C 90 % 1013,2 hPa 0,0 mm 10,7 km/h (2 Bft) W-SW 243 ° 0 min 0,000 mm 1,1 UV-I 139 W/m² 2,2 °C 0,9 °C 14,5 km/h (3 Bft)
01.03.2019 12:43 3,7 °C 90 % 1013,1 hPa 0,0 mm 8,9 km/h (2 Bft) W 270 ° 0 min 0,000 mm 1,1 UV-I 144 W/m² 2,2 °C 1,4 °C 16,1 km/h (3 Bft)
01.03.2019 12:44 3,7 °C 90 % 1013,1 hPa 0,0 mm 11,5 km/h (2 Bft) W-SW 251 ° 0 min 0,000 mm 1,2 UV-I 148 W/m² 2,2 °C 0,8 °C 14,5 km/h (3 Bft)
01.03.2019 12:45 3,7 °C 89 % 1013,1 hPa 0,0 mm 7,8 km/h (2 Bft) W-SW 258 ° 0 min 0,000 mm 1,2 UV-I 153 W/m² 2,1 °C 1,7 °C 11,3 km/h (2 Bft)
01.03.2019 12:46 3,8 °C 90 % 1013,2 hPa 0,0 mm 7,5 km/h (2 Bft) W-SW 252 ° 0 min 0,000 mm 1,2 UV-I 160 W/m² 2,3 °C 1,9 °C 11,3 km/h (2 Bft)
01.03.2019 12:47 3,8 °C 90 % 1013,1 hPa 0,0 mm 8,6 km/h (2 Bft) W 262 ° 0 min 0,000 mm 1,3 UV-I 171 W/m² 2,3 °C 1,6 °C 14,5 km/h (3 Bft)
01.03.2019 12:48 3,8 °C 90 % 1013,1 hPa 0,0 mm 8,6 km/h (2 Bft) W-SW 249 ° 0 min 0,000 mm 1,3 UV-I 174 W/m² 2,3 °C 1,6 °C 14,5 km/h (3 Bft)
01.03.2019 12:49 3,8 °C 90 % 1013,1 hPa 0,0 mm 5,0 km/h (1 Bft) W 273 ° 0 min 0,000 mm 1,3 UV-I 176 W/m² 2,3 °C 2,7 °C 6,4 km/h (2 Bft)
01.03.2019 12:50 3,8 °C 90 % 1013,1 hPa 0,0 mm 9,8 km/h (2 Bft) SW 234 ° 0 min 0,000 mm 1,3 UV-I 178 W/m² 2,3 °C 1,3 °C 12,9 km/h (3 Bft)
01.03.2019 12:51 3,8 °C 89 % 1013,2 hPa 0,0 mm 10,7 km/h (2 Bft) W 278 ° 0 min 0,000 mm 1,3 UV-I 178 W/m² 2,2 °C 1,1 °C 17,7 km/h (3 Bft)
01.03.2019 12:52 3,7 °C 89 % 1013,1 hPa 0,0 mm 8,3 km/h (2 Bft) W-SW 246 ° 0 min 0,000 mm 1,3 UV-I 179 W/m² 2,1 °C 1,5 °C 12,9 km/h (3 Bft)
01.03.2019 12:53 3,8 °C 90 % 1013,1 hPa 0,0 mm 5,7 km/h (1 Bft) W-NW 294 ° 0 min 0,000 mm 1,4 UV-I 186 W/m² 2,3 °C 2,5 °C 11,3 km/h (2 Bft)
01.03.2019 12:54 3,8 °C 90 % 1013,1 hPa 0,0 mm 10,6 km/h (2 Bft) W-SW 257 ° 0 min 0,000 mm 1,4 UV-I 188 W/m² 2,3 °C 1,1 °C 14,5 km/h (3 Bft)
01.03.2019 12:55 3,8 °C 90 % 1013,1 hPa 0,0 mm 8,9 km/h (2 Bft) W-SW 251 ° 0 min 0,000 mm 1,4 UV-I 193 W/m² 2,3 °C 1,5 °C 16,1 km/h (3 Bft)
01.03.2019 12:56 3,9 °C 89 % 1013,0 hPa 0,0 mm 10,7 km/h (2 Bft) W 261 ° 0 min 0,000 mm 1,5 UV-I 199 W/m² 2,3 °C 1,2 °C 14,5 km/h (3 Bft)
01.03.2019 12:57 3,9 °C 89 % 1013,1 hPa 0,0 mm 9,4 km/h (2 Bft) W 276 ° 0 min 0,000 mm 1,5 UV-I 207 W/m² 2,3 °C 1,5 °C 16,1 km/h (3 Bft)
01.03.2019 12:58 3,9 °C 89 % 1013,1 hPa 0,0 mm 13,7 km/h (3 Bft) W 271 ° 0 min 0,000 mm 1,6 UV-I 227 W/m² 2,3 °C 0,6 °C 25,7 km/h (4 Bft)
01.03.2019 12:59 3,9 °C 89 % 1013,1 hPa 0,0 mm 15,2 km/h (3 Bft) W-SW 251 ° 0 min 0,000 mm 1,6 UV-I 232 W/m² 2,3 °C 0,4 °C 22,5 km/h (4 Bft)
01.03.2019 13:00 3,9 °C 89 % 1013,1 hPa 0,0 mm 13,3 km/h (3 Bft) W 263 ° 0 min 0,051 mm 1,6 UV-I 236 W/m² 2,3 °C 0,7 °C 17,7 km/h (3 Bft)
01.03.2019 13:01 4,0 °C 89 % 1013,1 hPa 0,0 mm 12,8 km/h (3 Bft) W 269 ° 0 min 0,000 mm 1,6 UV-I 234 W/m² 2,4 °C 0,9 °C 19,3 km/h (3 Bft)
01.03.2019 13:02 4,0 °C 89 % 1013,0 hPa 0,0 mm 14,0 km/h (3 Bft) S-SW 192 ° 0 min 0,000 mm 1,6 UV-I 232 W/m² 2,4 °C 0,7 °C 22,5 km/h (4 Bft)
01.03.2019 13:03 4,1 °C 89 % 1013,0 hPa 0,0 mm 6,7 km/h (2 Bft) W-NW 301 ° 0 min 0,000 mm 1,6 UV-I 230 W/m² 2,5 °C 2,5 °C 14,5 km/h (3 Bft)
01.03.2019 13:04 4,1 °C 89 % 1013,0 hPa 0,0 mm 9,3 km/h (2 Bft) W 263 ° 0 min 0,000 mm 1,6 UV-I 229 W/m² 2,5 °C 1,7 °C 14,5 km/h (3 Bft)
01.03.2019 13:05 4,1 °C 89 % 1013,0 hPa 0,0 mm 6,5 km/h (2 Bft) W-SW 242 ° 0 min 0,000 mm 1,6 UV-I 227 W/m² 2,5 °C 2,5 °C 9,7 km/h (2 Bft)
01.03.2019 13:06 4,1 °C 88 % 1013,0 hPa 0,0 mm 12,1 km/h (2 Bft) W-SW 258 ° 0 min 0,000 mm 1,6 UV-I 223 W/m² 2,3 °C 1,1 °C 16,1 km/h (3 Bft)
01.03.2019 13:07 4,1 °C 88 % 1013,0 hPa 0,0 mm 9,9 km/h (2 Bft) NW 311 ° 0 min 0,000 mm 1,6 UV-I 216 W/m² 2,3 °C 1,6 °C 14,5 km/h (3 Bft)
01.03.2019 13:08 4,1 °C 89 % 1013,0 hPa 0,0 mm 9,4 km/h (2 Bft) W 263 ° 0 min 0,000 mm 1,6 UV-I 209 W/m² 2,5 °C 1,7 °C 14,5 km/h (3 Bft)
01.03.2019 13:09 4,1 °C 89 % 1013,0 hPa 0,0 mm 18,4 km/h (3 Bft) W-SW 254 ° 0 min 0,000 mm 1,5 UV-I 204 W/m² 2,5 °C 0,1 °C 24,1 km/h (4 Bft)
01.03.2019 13:10 4,1 °C 89 % 1013,0 hPa 0,0 mm 11,3 km/h (2 Bft) W-SW 252 ° 0 min 0,000 mm 1,5 UV-I 199 W/m² 2,5 °C 1,3 °C 17,7 km/h (3 Bft)
01.03.2019 13:11 4,2 °C 89 % 1013,0 hPa 0,0 mm 11,7 km/h (2 Bft) W-SW 243 ° 0 min 0,000 mm 1,5 UV-I 199 W/m² 2,6 °C 1,3 °C 16,1 km/h (3 Bft)
01.03.2019 13:12 4,2 °C 88 % 1013,0 hPa 0,0 mm 10,8 km/h (2 Bft) W 281 ° 0 min 0,000 mm 1,5 UV-I 197 W/m² 2,4 °C 1,5 °C 19,3 km/h (3 Bft)
01.03.2019 13:13 4,1 °C 88 % 1012,9 hPa 0,0 mm 13,9 km/h (3 Bft) W 276 ° 0 min 0,000 mm 1,5 UV-I 190 W/m² 2,3 °C 0,8 °C 20,9 km/h (4 Bft)
01.03.2019 13:14 4,1 °C 88 % 1013,0 hPa 0,0 mm 11,7 km/h (2 Bft) W 260 ° 0 min 0,000 mm 1,5 UV-I 188 W/m² 2,3 °C 1,2 °C 17,7 km/h (3 Bft)
01.03.2019 13:15 4,1 °C 88 % 1013,0 hPa 0,0 mm 11,6 km/h (2 Bft) W 265 ° 0 min 0,000 mm 1,5 UV-I 193 W/m² 2,3 °C 1,2 °C 16,1 km/h (3 Bft)
01.03.2019 13:16 4,1 °C 89 % 1013,0 hPa 0,0 mm 10,6 km/h (2 Bft) W 273 ° 0 min 0,000 mm 1,5 UV-I 207 W/m² 2,5 °C 1,5 °C 19,3 km/h (3 Bft)
01.03.2019 13:17 4,0 °C 89 % 1013,1 hPa 0,0 mm 10,8 km/h (2 Bft) W-SW 244 ° 0 min 0,000 mm 1,5 UV-I 211 W/m² 2,4 °C 1,3 °C 16,1 km/h (3 Bft)
01.03.2019 13:18 4,1 °C 89 % 1013,1 hPa 0,0 mm 10,2 km/h (2 Bft) W 267 ° 0 min 0,000 mm 1,5 UV-I 213 W/m² 2,5 °C 1,5 °C 14,5 km/h (3 Bft)
01.03.2019 13:19 4,0 °C 89 % 1013,0 hPa 0,0 mm 7,8 km/h (2 Bft) W-NW 284 ° 0 min 0,000 mm 1,5 UV-I 213 W/m² 2,4 °C 2,0 °C 16,1 km/h (3 Bft)
01.03.2019 13:20 4,0 °C 89 % 1013,1 hPa 0,0 mm 8,0 km/h (2 Bft) W-SW 254 ° 0 min 0,000 mm 1,5 UV-I 209 W/m² 2,4 °C 2,0 °C 14,5 km/h (3 Bft)
01.03.2019 13:21 4,0 °C 89 % 1013,1 hPa 0,0 mm 15,8 km/h (3 Bft) W-SW 258 ° 0 min 0,000 mm 1,4 UV-I 199 W/m² 2,4 °C 0,4 °C 25,7 km/h (4 Bft)
01.03.2019 13:22 4,1 °C 89 % 1013,1 hPa 0,0 mm 7,9 km/h (2 Bft) W 272 ° 0 min 0,000 mm 1,5 UV-I 206 W/m² 2,5 °C 2,1 °C 14,5 km/h (3 Bft)
01.03.2019 13:23 4,1 °C 89 % 1013,1 hPa 0,0 mm 15,4 km/h (3 Bft) W 271 ° 0 min 0,000 mm 1,5 UV-I 207 W/m² 2,5 °C 0,6 °C 22,5 km/h (4 Bft)
01.03.2019 13:24 4,2 °C 88 % 1013,1 hPa 0,0 mm 12,3 km/h (3 Bft) W 260 ° 0 min 0,000 mm 1,5 UV-I 206 W/m² 2,4 °C 1,2 °C 16,1 km/h (3 Bft)
01.03.2019 13:25 4,1 °C 88 % 1013,1 hPa 0,0 mm 9,8 km/h (2 Bft) W 278 ° 0 min 0,000 mm 1,4 UV-I 206 W/m² 2,3 °C 1,6 °C 17,7 km/h (3 Bft)
01.03.2019 13:26 4,1 °C 88 % 1013,1 hPa 0,0 mm 16,3 km/h (3 Bft) W-NW 286 ° 0 min 0,000 mm 1,4 UV-I 199 W/m² 2,3 °C 0,4 °C 22,5 km/h (4 Bft)
01.03.2019 13:27 4,1 °C 88 % 1013,1 hPa 0,0 mm 12,5 km/h (3 Bft) W 259 ° 0 min 0,000 mm 1,4 UV-I 197 W/m² 2,3 °C 1,1 °C 19,3 km/h (3 Bft)
01.03.2019 13:28 4,0 °C 88 % 1013,1 hPa 0,2 mm 14,1 km/h (3 Bft) W-SW 255 ° 0 min 0,000 mm 1,4 UV-I 214 W/m² 2,2 °C 0,7 °C 20,9 km/h (4 Bft)
01.03.2019 13:29 4,1 °C 88 % 1013,1 hPa 0,0 mm 12,5 km/h (3 Bft) W-SW 257 ° 0 min 0,000 mm 1,5 UV-I 207 W/m² 2,3 °C 1,1 °C 17,7 km/h (3 Bft)
01.03.2019 13:30 4,1 °C 88 % 1013,1 hPa 0,0 mm 16,9 km/h (3 Bft) W-SW 248 ° 0 min 0,000 mm 1,5 UV-I 234 W/m² 2,3 °C 0,3 °C 22,5 km/h (4 Bft)
01.03.2019 13:31 4,1 °C 88 % 1013,1 hPa 0,0 mm 17,6 km/h (3 Bft) W-SW 253 ° 0 min 0,000 mm 1,3 UV-I 193 W/m² 2,3 °C 0,2 °C 24,1 km/h (4 Bft)
01.03.2019 13:32 4,1 °C 88 % 1013,1 hPa 0,0 mm 8,4 km/h (2 Bft) W 273 ° 0 min 0,000 mm 1,4 UV-I 211 W/m² 2,3 °C 2,0 °C 12,9 km/h (3 Bft)
01.03.2019 13:33 4,1 °C 89 % 1013,0 hPa 0,0 mm 10,9 km/h (2 Bft) W 275 ° 0 min 0,000 mm 1,3 UV-I 181 W/m² 2,5 °C 1,4 °C 14,5 km/h (3 Bft)
01.03.2019 13:34 4,1 °C 88 % 1013,0 hPa 0,0 mm 12,0 km/h (2 Bft) W 277 ° 0 min 0,000 mm 1,3 UV-I 178 W/m² 2,3 °C 1,2 °C 16,1 km/h (3 Bft)
01.03.2019 13:35 4,1 °C 89 % 1013,0 hPa 0,0 mm 11,2 km/h (2 Bft) W-SW 246 ° 0 min 0,000 mm 1,3 UV-I 172 W/m² 2,5 °C 1,3 °C 14,5 km/h (3 Bft)
01.03.2019 13:36 4,1 °C 89 % 1013,1 hPa 0,0 mm 13,9 km/h (3 Bft) W-SW 254 ° 0 min 0,000 mm 1,4 UV-I 183 W/m² 2,5 °C 0,8 °C 19,3 km/h (3 Bft)
01.03.2019 13:37 4,1 °C 89 % 1013,1 hPa 0,0 mm 11,0 km/h (2 Bft) W 259 ° 0 min 0,000 mm 1,3 UV-I 183 W/m² 2,5 °C 1,4 °C 17,7 km/h (3 Bft)
01.03.2019 13:38 4,1 °C 88 % 1013,1 hPa 0,0 mm 11,2 km/h (2 Bft) W-SW 254 ° 0 min 0,000 mm 1,3 UV-I 169 W/m² 2,3 °C 1,3 °C 16,1 km/h (3 Bft)
01.03.2019 13:39 4,0 °C 89 % 1013,0 hPa 0,0 mm 11,1 km/h (2 Bft) W-SW 248 ° 0 min 0,000 mm 1,2 UV-I 172 W/m² 2,4 °C 1,2 °C 16,1 km/h (3 Bft)
01.03.2019 13:40 4,0 °C 89 % 1013,1 hPa 0,0 mm 7,2 km/h (2 Bft) W 277 ° 0 min 0,000 mm 1,3 UV-I 174 W/m² 2,4 °C 2,2 °C 11,3 km/h (2 Bft)
01.03.2019 13:41 4,0 °C 89 % 1013,1 hPa 0,0 mm 10,3 km/h (2 Bft) W 275 ° 0 min 0,000 mm 1,4 UV-I 185 W/m² 2,4 °C 1,4 °C 14,5 km/h (3 Bft)
01.03.2019 13:42 4,0 °C 89 % 1013,1 hPa 0,0 mm 10,9 km/h (2 Bft) W-NW 282 ° 0 min 0,000 mm 1,4 UV-I 188 W/m² 2,4 °C 1,3 °C 14,5 km/h (3 Bft)
01.03.2019 13:43 4,0 °C 89 % 1013,1 hPa 0,0 mm 6,4 km/h (2 Bft) W-SW 257 ° 0 min 0,000 mm 1,4 UV-I 190 W/m² 2,4 °C 2,4 °C 12,9 km/h (3 Bft)
01.03.2019 13:44 4,0 °C 89 % 1013,2 hPa 0,0 mm 9,8 km/h (2 Bft) SW 225 ° 0 min 0,000 mm 1,3 UV-I 186 W/m² 2,4 °C 1,5 °C 14,5 km/h (3 Bft)
01.03.2019 13:45 4,0 °C 89 % 1013,1 hPa 0,0 mm 11,3 km/h (2 Bft) W-SW 254 ° 0 min 0,000 mm 1,3 UV-I 160 W/m² 2,4 °C 1,2 °C 16,1 km/h (3 Bft)
01.03.2019 13:46 4,0 °C 89 % 1013,2 hPa 0,0 mm 8,2 km/h (2 Bft) W 277 ° 0 min 0,000 mm 1,2 UV-I 156 W/m² 2,4 °C 1,9 °C 12,9 km/h (3 Bft)
01.03.2019 13:47 3,9 °C 89 % 1013,2 hPa 0,0 mm 14,5 km/h (3 Bft) W-NW 282 ° 0 min 0,000 mm 1,1 UV-I 148 W/m² 2,3 °C 0,5 °C 17,7 km/h (3 Bft)
01.03.2019 13:48 3,9 °C 89 % 1013,2 hPa 0,0 mm 7,7 km/h (2 Bft) W-SW 249 ° 0 min 0,000 mm 1,0 UV-I 141 W/m² 2,3 °C 1,9 °C 14,5 km/h (3 Bft)
01.03.2019 13:49 3,9 °C 89 % 1013,2 hPa 0,0 mm 10,5 km/h (2 Bft) W 261 ° 0 min 0,000 mm 1,0 UV-I 135 W/m² 2,3 °C 1,2 °C 14,5 km/h (3 Bft)
01.03.2019 13:50 3,9 °C 89 % 1013,2 hPa 0,0 mm 13,5 km/h (3 Bft) W-SW 253 ° 0 min 0,000 mm 0,9 UV-I 130 W/m² 2,3 °C 0,6 °C 17,7 km/h (3 Bft)
01.03.2019 13:51 3,8 °C 89 % 1013,2 hPa 0,0 mm 9,2 km/h (2 Bft) W 259 ° 0 min 0,000 mm 0,9 UV-I 132 W/m² 2,2 °C 1,4 °C 12,9 km/h (3 Bft)
01.03.2019 13:52 3,8 °C 89 % 1013,2 hPa 0,0 mm 6,3 km/h (2 Bft) W-SW 253 ° 0 min 0,000 mm 1,0 UV-I 135 W/m² 2,2 °C 2,2 °C 9,7 km/h (2 Bft)
01.03.2019 13:53 3,8 °C 89 % 1013,2 hPa 0,0 mm 5,1 km/h (1 Bft) W 265 ° 0 min 0,000 mm 1,0 UV-I 139 W/m² 2,2 °C 2,7 °C 9,7 km/h (2 Bft)
01.03.2019 13:54 3,8 °C 90 % 1013,2 hPa 0,2 mm 7,4 km/h (2 Bft) W 273 ° 0 min 0,000 mm 1,0 UV-I 142 W/m² 2,3 °C 1,9 °C 17,7 km/h (3 Bft)
01.03.2019 13:55 3,8 °C 90 % 1013,2 hPa 0,0 mm 6,3 km/h (2 Bft) W-NW 293 ° 0 min 0,000 mm 1,1 UV-I 142 W/m² 2,3 °C 2,2 °C 12,9 km/h (3 Bft)
01.03.2019 13:56 3,8 °C 90 % 1013,1 hPa 0,0 mm 4,1 km/h (1 Bft) W-NW 287 ° 0 min 0,000 mm 1,0 UV-I 144 W/m² 2,3 °C 3,8 °C 6,4 km/h (2 Bft)
01.03.2019 13:57 3,9 °C 90 % 1013,2 hPa 0,0 mm 7,6 km/h (2 Bft) W 267 ° 0 min 0,000 mm 1,1 UV-I 155 W/m² 2,4 °C 2,0 °C 9,7 km/h (2 Bft)
01.03.2019 13:58 3,8 °C 90 % 1013,2 hPa 0,0 mm 7,1 km/h (2 Bft) W-SW 258 ° 0 min 0,000 mm 1,1 UV-I 158 W/m² 2,3 °C 2,0 °C 11,3 km/h (2 Bft)
01.03.2019 13:59 3,8 °C 90 % 1013,2 hPa 0,0 mm 7,2 km/h (2 Bft) W 266 ° 0 min 0,000 mm 1,1 UV-I 162 W/m² 2,3 °C 2,0 °C 11,3 km/h (2 Bft)
01.03.2019 14:00 3,8 °C 90 % 1013,2 hPa 0,0 mm 5,4 km/h (1 Bft) W 261 ° 0 min 0,000 mm 1,1 UV-I 165 W/m² 2,3 °C 2,6 °C 9,7 km/h (2 Bft)
01.03.2019 14:01 3,8 °C 90 % 1013,3 hPa 0,0 mm 4,2 km/h (1 Bft) W-SW 254 ° 0 min 0,076 mm 1,0 UV-I 149 W/m² 2,3 °C 3,8 °C 6,4 km/h (2 Bft)
01.03.2019 14:02 3,9 °C 90 % 1013,3 hPa 0,0 mm 6,4 km/h (2 Bft) W-SW 257 ° 0 min 0,000 mm 1,1 UV-I 156 W/m² 2,4 °C 2,3 °C 9,7 km/h (2 Bft)
01.03.2019 14:03 3,9 °C 90 % 1013,2 hPa 0,0 mm 8,4 km/h (2 Bft) W 265 ° 0 min 0,000 mm 1,1 UV-I 156 W/m² 2,4 °C 1,7 °C 11,3 km/h (2 Bft)
01.03.2019 14:04 3,9 °C 90 % 1013,2 hPa 0,0 mm 8,0 km/h (2 Bft) W-SW 244 ° 0 min 0,000 mm 1,2 UV-I 151 W/m² 2,4 °C 1,8 °C 12,9 km/h (3 Bft)
01.03.2019 14:05 3,9 °C 90 % 1013,2 hPa 0,0 mm 12,7 km/h (3 Bft) W 264 ° 0 min 0,000 mm 1,2 UV-I 153 W/m² 2,4 °C 0,8 °C 19,3 km/h (3 Bft)
01.03.2019 14:06 3,9 °C 90 % 1013,2 hPa 0,0 mm 5,3 km/h (1 Bft) W 259 ° 0 min 0,000 mm 1,2 UV-I 156 W/m² 2,4 °C 2,7 °C 11,3 km/h (2 Bft)
01.03.2019 14:07 3,9 °C 90 % 1013,2 hPa 0,0 mm 5,3 km/h (1 Bft) W 266 ° 0 min 0,000 mm 1,2 UV-I 153 W/m² 2,4 °C 2,7 °C 9,7 km/h (2 Bft)
01.03.2019 14:08 3,9 °C 90 % 1013,2 hPa 0,0 mm 5,8 km/h (2 Bft) W-SW 250 ° 0 min 0,000 mm 1,2 UV-I 155 W/m² 2,4 °C 2,5 °C 9,7 km/h (2 Bft)
01.03.2019 14:09 3,9 °C 90 % 1013,2 hPa 0,0 mm 7,6 km/h (2 Bft) W 270 ° 0 min 0,000 mm 1,2 UV-I 153 W/m² 2,4 °C 2,0 °C 9,7 km/h (2 Bft)
01.03.2019 14:10 3,9 °C 90 % 1013,3 hPa 0,0 mm 6,9 km/h (2 Bft) W-SW 248 ° 0 min 0,000 mm 1,3 UV-I 162 W/m² 2,4 °C 2,2 °C 12,9 km/h (3 Bft)
01.03.2019 14:11 3,9 °C 90 % 1013,3 hPa 0,0 mm 10,9 km/h (2 Bft) W 267 ° 0 min 0,000 mm 1,3 UV-I 171 W/m² 2,4 °C 1,1 °C 20,9 km/h (4 Bft)
01.03.2019 14:12 3,9 °C 90 % 1013,3 hPa 0,0 mm 8,0 km/h (2 Bft) SW 222 ° 0 min 0,000 mm 1,3 UV-I 174 W/m² 2,4 °C 1,8 °C 17,7 km/h (3 Bft)
01.03.2019 14:13 3,9 °C 90 % 1013,2 hPa 0,0 mm 6,4 km/h (2 Bft) SW 226 ° 0 min 0,000 mm 1,3 UV-I 174 W/m² 2,4 °C 2,3 °C 12,9 km/h (3 Bft)
01.03.2019 14:14 4,0 °C 90 % 1013,2 hPa 0,0 mm 8,7 km/h (2 Bft) W 272 ° 0 min 0,000 mm 1,3 UV-I 169 W/m² 2,5 °C 1,8 °C 12,9 km/h (3 Bft)
01.03.2019 14:15 4,1 °C 90 % 1013,3 hPa 0,0 mm 11,2 km/h (2 Bft) W-NW 290 ° 0 min 0,000 mm 1,3 UV-I 162 W/m² 2,6 °C 1,3 °C 16,1 km/h (3 Bft)
01.03.2019 14:16 4,1 °C 90 % 1013,2 hPa 0,0 mm 11,5 km/h (2 Bft) W 267 ° 0 min 0,000 mm 1,3 UV-I 167 W/m² 2,6 °C 1,3 °C 17,7 km/h (3 Bft)
01.03.2019 14:17 4,1 °C 89 % 1013,2 hPa 0,0 mm 8,6 km/h (2 Bft) W-SW 242 ° 0 min 0,000 mm 1,3 UV-I 167 W/m² 2,5 °C 1,9 °C 17,7 km/h (3 Bft)
01.03.2019 14:18 4,0 °C 90 % 1013,2 hPa 0,0 mm 7,6 km/h (2 Bft) W 263 ° 0 min 0,000 mm 1,3 UV-I 171 W/m² 2,5 °C 2,1 °C 12,9 km/h (3 Bft)
01.03.2019 14:19 4,0 °C 90 % 1013,2 hPa 0,0 mm 7,9 km/h (2 Bft) W-SW 249 ° 0 min 0,000 mm 1,3 UV-I 178 W/m² 2,5 °C 2,0 °C 12,9 km/h (3 Bft)
01.03.2019 14:20 4,1 °C 89 % 1013,3 hPa 0,0 mm 7,5 km/h (2 Bft) W-SW 252 ° 0 min 0,000 mm 1,3 UV-I 171 W/m² 2,5 °C 2,2 °C 11,3 km/h (2 Bft)
01.03.2019 14:21 4,1 °C 90 % 1013,2 hPa 0,0 mm 8,2 km/h (2 Bft) W 263 ° 0 min 0,000 mm 1,3 UV-I 171 W/m² 2,6 °C 2,0 °C 16,1 km/h (3 Bft)
01.03.2019 14:22 4,0 °C 90 % 1013,2 hPa 0,0 mm 6,8 km/h (2 Bft) W 269 ° 0 min 0,000 mm 1,2 UV-I 162 W/m² 2,5 °C 2,3 °C 11,3 km/h (2 Bft)
01.03.2019 14:23 4,0 °C 90 % 1013,3 hPa 0,0 mm 15,1 km/h (3 Bft) W 259 ° 0 min 0,000 mm 1,2 UV-I 156 W/m² 2,5 °C 0,5 °C 17,7 km/h (3 Bft)
01.03.2019 14:24 4,1 °C 89 % 1013,3 hPa 0,0 mm 14,6 km/h (3 Bft) W-NW 290 ° 0 min 0,000 mm 1,1 UV-I 149 W/m² 2,5 °C 0,7 °C 17,7 km/h (3 Bft)
01.03.2019 14:25 4,1 °C 89 % 1013,3 hPa 0,0 mm 11,4 km/h (2 Bft) SW 227 ° 0 min 0,000 mm 1,0 UV-I 127 W/m² 2,5 °C 1,3 °C 19,3 km/h (3 Bft)
01.03.2019 14:26 4,1 °C 89 % 1013,3 hPa 0,0 mm 8,6 km/h (2 Bft) W 261 ° 0 min 0,000 mm 1,0 UV-I 116 W/m² 2,5 °C 1,9 °C 12,9 km/h (3 Bft)
01.03.2019 14:27 4,1 °C 89 % 1013,3 hPa 0,0 mm 11,3 km/h (2 Bft) W 269 ° 0 min 0,000 mm 0,8 UV-I 107 W/m² 2,5 °C 1,3 °C 16,1 km/h (3 Bft)
01.03.2019 14:28 4,0 °C 89 % 1013,3 hPa 0,0 mm 10,7 km/h (2 Bft) W 277 ° 0 min 0,000 mm 0,9 UV-I 113 W/m² 2,4 °C 1,3 °C 12,9 km/h (3 Bft)
01.03.2019 14:29 4,0 °C 89 % 1013,3 hPa 0,0 mm 6,6 km/h (2 Bft) W 259 ° 0 min 0,000 mm 1,0 UV-I 121 W/m² 2,4 °C 2,4 °C 9,7 km/h (2 Bft)
01.03.2019 14:30 4,0 °C 89 % 1013,3 hPa 0,0 mm 7,2 km/h (2 Bft) W 271 ° 0 min 0,000 mm 1,0 UV-I 123 W/m² 2,4 °C 2,2 °C 9,7 km/h (2 Bft)
01.03.2019 14:31 4,0 °C 90 % 1013,2 hPa 0,0 mm 5,2 km/h (1 Bft) W 271 ° 0 min 0,000 mm 1,0 UV-I 123 W/m² 2,5 °C 2,9 °C 9,7 km/h (2 Bft)
01.03.2019 14:32 4,0 °C 90 % 1013,3 hPa 0,0 mm 5,9 km/h (2 Bft) W-SW 257 ° 0 min 0,000 mm 1,0 UV-I 139 W/m² 2,5 °C 2,6 °C 9,7 km/h (2 Bft)
01.03.2019 14:33 4,0 °C 90 % 1013,3 hPa 0,0 mm 1,9 km/h (1 Bft) W-SW 253 ° 0 min 0,000 mm 1,0 UV-I 135 W/m² 2,5 °C 4,0 °C 4,8 km/h (1 Bft)
01.03.2019 14:34 4,0 °C 90 % 1013,3 hPa 0,0 mm 9,0 km/h (2 Bft) W-SW 253 ° 0 min 0,000 mm 1,0 UV-I 132 W/m² 2,5 °C 1,7 °C 12,9 km/h (3 Bft)
01.03.2019 14:35 4,0 °C 90 % 1013,2 hPa 0,0 mm 10,6 km/h (2 Bft) W 271 ° 0 min 0,000 mm 1,0 UV-I 125 W/m² 2,5 °C 1,3 °C 14,5 km/h (3 Bft)
01.03.2019 14:36 4,0 °C 90 % 1013,3 hPa 0,0 mm 6,0 km/h (2 Bft) W-SW 246 ° 0 min 0,000 mm 1,1 UV-I 137 W/m² 2,5 °C 2,6 °C 9,7 km/h (2 Bft)
01.03.2019 14:37 4,0 °C 90 % 1013,2 hPa 0,0 mm 5,6 km/h (1 Bft) SW 229 ° 0 min 0,000 mm 1,1 UV-I 144 W/m² 2,5 °C 2,7 °C 8,0 km/h (2 Bft)
01.03.2019 14:38 4,1 °C 90 % 1013,3 hPa 0,0 mm 6,8 km/h (2 Bft) W-SW 257 ° 0 min 0,000 mm 1,2 UV-I 167 W/m² 2,6 °C 2,4 °C 12,9 km/h (3 Bft)
01.03.2019 14:39 4,1 °C 90 % 1013,2 hPa 0,0 mm 7,2 km/h (2 Bft) W-SW 248 ° 0 min 0,000 mm 1,2 UV-I 163 W/m² 2,6 °C 2,3 °C 11,3 km/h (2 Bft)
01.03.2019 14:40 4,1 °C 90 % 1013,2 hPa 0,0 mm 8,0 km/h (2 Bft) W-SW 251 ° 0 min 0,000 mm 1,3 UV-I 167 W/m² 2,6 °C 2,1 °C 12,9 km/h (3 Bft)
01.03.2019 14:41 4,1 °C 90 % 1013,3 hPa 0,0 mm 8,7 km/h (2 Bft) W-SW 250 ° 0 min 0,000 mm 1,3 UV-I 181 W/m² 2,6 °C 1,9 °C 16,1 km/h (3 Bft)
01.03.2019 14:42 4,1 °C 90 % 1013,3 hPa 0,0 mm 9,4 km/h (2 Bft) W 275 ° 0 min 0,000 mm 1,4 UV-I 193 W/m² 2,6 °C 1,7 °C 12,9 km/h (3 Bft)
01.03.2019 14:43 4,2 °C 90 % 1013,3 hPa 0,0 mm 10,6 km/h (2 Bft) SW 229 ° 0 min 0,000 mm 1,4 UV-I 190 W/m² 2,7 °C 1,6 °C 16,1 km/h (3 Bft)
01.03.2019 14:44 4,2 °C 89 % 1013,3 hPa 0,0 mm 13,9 km/h (3 Bft) W 263 ° 0 min 0,000 mm 1,4 UV-I 179 W/m² 2,6 °C 0,9 °C 22,5 km/h (4 Bft)
01.03.2019 14:45 4,2 °C 89 % 1013,3 hPa 0,0 mm 8,4 km/h (2 Bft) W 266 ° 0 min 0,000 mm 1,3 UV-I 179 W/m² 2,6 °C 2,1 °C 14,5 km/h (3 Bft)
01.03.2019 14:46 4,2 °C 89 % 1013,2 hPa 0,0 mm 11,8 km/h (2 Bft) W 277 ° 0 min 0,000 mm 1,3 UV-I 179 W/m² 2,6 °C 1,3 °C 20,9 km/h (4 Bft)
01.03.2019 14:47 4,2 °C 89 % 1013,3 hPa 0,0 mm 11,3 km/h (2 Bft) W-SW 251 ° 0 min 0,000 mm 1,2 UV-I 163 W/m² 2,6 °C 1,4 °C 17,7 km/h (3 Bft)
01.03.2019 14:48 4,2 °C 89 % 1013,2 hPa 0,0 mm 15,0 km/h (3 Bft) W 263 ° 0 min 0,000 mm 1,1 UV-I 158 W/m² 2,6 °C 0,8 °C 17,7 km/h (3 Bft)
01.03.2019 14:49 4,2 °C 89 % 1013,3 hPa 0,0 mm 15,6 km/h (3 Bft) W 279 ° 0 min 0,000 mm 1,1 UV-I 158 W/m² 2,6 °C 0,7 °C 20,9 km/h (4 Bft)
01.03.2019 14:50 4,1 °C 89 % 1013,3 hPa 0,0 mm 10,7 km/h (2 Bft) W-SW 253 ° 0 min 0,000 mm 1,0 UV-I 146 W/m² 2,5 °C 1,4 °C 16,1 km/h (3 Bft)
01.03.2019 14:51 4,1 °C 89 % 1013,3 hPa 0,0 mm 7,4 km/h (2 Bft) SW 227 ° 0 min 0,000 mm 1,0 UV-I 141 W/m² 2,5 °C 2,2 °C 11,3 km/h (2 Bft)
01.03.2019 14:52 4,1 °C 89 % 1013,3 hPa 0,0 mm 11,9 km/h (2 Bft) W 271 ° 0 min 0,000 mm 1,0 UV-I 137 W/m² 2,5 °C 1,2 °C 20,9 km/h (4 Bft)
01.03.2019 14:53 4,1 °C 88 % 1013,3 hPa 0,0 mm 10,0 km/h (2 Bft) W-SW 244 ° 0 min 0,000 mm 0,9 UV-I 128 W/m² 2,3 °C 1,6 °C 19,3 km/h (3 Bft)
01.03.2019 14:54 4,1 °C 88 % 1013,3 hPa 0,0 mm 8,6 km/h (2 Bft) W 263 ° 0 min 0,000 mm 0,9 UV-I 127 W/m² 2,3 °C 1,9 °C 14,5 km/h (3 Bft)
01.03.2019 14:55 4,1 °C 88 % 1013,3 hPa 0,0 mm 5,2 km/h (1 Bft) SW 227 ° 0 min 0,000 mm 0,9 UV-I 118 W/m² 2,3 °C 3,0 °C 9,7 km/h (2 Bft)
01.03.2019 14:56 4,1 °C 88 % 1013,4 hPa 0,0 mm 12,9 km/h (3 Bft) W 271 ° 0 min 0,000 mm 0,9 UV-I 114 W/m² 2,3 °C 1,0 °C 16,1 km/h (3 Bft)
01.03.2019 14:57 4,1 °C 88 % 1013,4 hPa 0,0 mm 11,6 km/h (2 Bft) W 270 ° 0 min 0,000 mm 0,8 UV-I 111 W/m² 2,3 °C 1,2 °C 16,1 km/h (3 Bft)
01.03.2019 14:58 4,1 °C 88 % 1013,4 hPa 0,0 mm 14,7 km/h (3 Bft) W-SW 252 ° 0 min 0,000 mm 0,8 UV-I 109 W/m² 2,3 °C 0,7 °C 20,9 km/h (4 Bft)
01.03.2019 14:59 4,1 °C 88 % 1013,4 hPa 0,0 mm 13,2 km/h (3 Bft) W-SW 250 ° 0 min 0,000 mm 0,8 UV-I 105 W/m² 2,3 °C 0,9 °C 19,3 km/h (3 Bft)
01.03.2019 15:00 4,0 °C 88 % 1013,4 hPa 0,0 mm 12,1 km/h (2 Bft) W 260 ° 0 min 0,000 mm 0,8 UV-I 105 W/m² 2,2 °C 1,0 °C 14,5 km/h (3 Bft)
01.03.2019 15:01 4,0 °C 88 % 1013,4 hPa 0,0 mm 6,8 km/h (2 Bft) W 265 ° 0 min 0,076 mm 0,8 UV-I 102 W/m² 2,2 °C 2,3 °C 11,3 km/h (2 Bft)
01.03.2019 15:02 3,9 °C 88 % 1013,4 hPa 0,0 mm 7,3 km/h (2 Bft) W 263 ° 0 min 0,000 mm 0,7 UV-I 98 W/m² 2,1 °C 2,0 °C 12,9 km/h (3 Bft)
01.03.2019 15:03 4,0 °C 88 % 1013,4 hPa 0,0 mm 8,6 km/h (2 Bft) W 262 ° 0 min 0,000 mm 0,7 UV-I 93 W/m² 2,2 °C 1,8 °C 11,3 km/h (2 Bft)
01.03.2019 15:04 4,0 °C 88 % 1013,5 hPa 0,0 mm 16,5 km/h (3 Bft) W-SW 251 ° 0 min 0,000 mm 0,7 UV-I 97 W/m² 2,2 °C 0,3 °C 27,4 km/h (4 Bft)
01.03.2019 15:05 4,0 °C 88 % 1013,5 hPa 0,0 mm 9,0 km/h (2 Bft) W 279 ° 0 min 0,000 mm 0,7 UV-I 97 W/m² 2,2 °C 1,7 °C 14,5 km/h (3 Bft)
01.03.2019 15:06 4,0 °C 88 % 1013,4 hPa 0,0 mm 11,8 km/h (2 Bft) W-SW 257 ° 0 min 0,000 mm 0,7 UV-I 100 W/m² 2,2 °C 1,1 °C 17,7 km/h (3 Bft)
01.03.2019 15:07 4,0 °C 88 % 1013,5 hPa 0,0 mm 11,7 km/h (2 Bft) W 268 ° 0 min 0,000 mm 0,8 UV-I 102 W/m² 2,2 °C 1,1 °C 16,1 km/h (3 Bft)
01.03.2019 15:08 4,0 °C 88 % 1013,4 hPa 0,0 mm 11,9 km/h (2 Bft) W 266 ° 0 min 0,000 mm 0,7 UV-I 100 W/m² 2,2 °C 1,1 °C 14,5 km/h (3 Bft)
01.03.2019 15:09 3,9 °C 88 % 1013,5 hPa 0,0 mm 12,9 km/h (3 Bft) SW 229 ° 0 min 0,000 mm 0,7 UV-I 93 W/m² 2,1 °C 0,8 °C 20,9 km/h (4 Bft)
01.03.2019 15:10 3,9 °C 88 % 1013,5 hPa 0,0 mm 9,0 km/h (2 Bft) W-SW 249 ° 0 min 0,000 mm 0,7 UV-I 93 W/m² 2,1 °C 1,6 °C 12,9 km/h (3 Bft)
01.03.2019 15:11 3,9 °C 88 % 1013,6 hPa 0,0 mm 10,1 km/h (2 Bft) W-SW 254 ° 0 min 0,000 mm 0,7 UV-I 97 W/m² 2,1 °C 1,3 °C 14,5 km/h (3 Bft)
01.03.2019 15:12 3,9 °C 88 % 1013,6 hPa 0,0 mm 7,2 km/h (2 Bft) W-SW 246 ° 0 min 0,000 mm 0,7 UV-I 93 W/m² 2,1 °C 2,1 °C 12,9 km/h (3 Bft)
01.03.2019 15:13 3,9 °C 88 % 1013,5 hPa 0,0 mm 5,8 km/h (2 Bft) W-SW 244 ° 0 min 0,000 mm 0,6 UV-I 88 W/m² 2,1 °C 2,5 °C 12,9 km/h (3 Bft)
01.03.2019 15:14 3,9 °C 88 % 1013,6 hPa 0,0 mm 9,7 km/h (2 Bft) W 264 ° 0 min 0,000 mm 0,6 UV-I 84 W/m² 2,1 °C 1,4 °C 14,5 km/h (3 Bft)
01.03.2019 15:15 3,9 °C 88 % 1013,6 hPa 0,0 mm 6,9 km/h (2 Bft) W-SW 256 ° 0 min 0,000 mm 0,6 UV-I 83 W/m² 2,1 °C 2,2 °C 14,5 km/h (3 Bft)
01.03.2019 15:16 3,9 °C 88 % 1013,6 hPa 0,0 mm 8,4 km/h (2 Bft) SW 227 ° 0 min 0,000 mm 0,6 UV-I 83 W/m² 2,1 °C 1,7 °C 16,1 km/h (3 Bft)
01.03.2019 15:17 3,9 °C 88 % 1013,6 hPa 0,0 mm 9,5 km/h (2 Bft) W-SW 253 ° 0 min 0,000 mm 0,6 UV-I 83 W/m² 2,1 °C 1,5 °C 16,1 km/h (3 Bft)
01.03.2019 15:18 3,9 °C 88 % 1013,6 hPa 0,0 mm 13,6 km/h (3 Bft) W 271 ° 0 min 0,000 mm 0,6 UV-I 83 W/m² 2,1 °C 0,6 °C 17,7 km/h (3 Bft)
01.03.2019 15:19 3,9 °C 88 % 1013,6 hPa 0,0 mm 9,9 km/h (2 Bft) W-SW 254 ° 0 min 0,000 mm 0,6 UV-I 88 W/m² 2,1 °C 1,4 °C 16,1 km/h (3 Bft)
01.03.2019 15:20 3,9 °C 88 % 1013,6 hPa 0,0 mm 7,2 km/h (2 Bft) W-SW 243 ° 0 min 0,000 mm 0,6 UV-I 90 W/m² 2,1 °C 2,1 °C 11,3 km/h (2 Bft)
01.03.2019 15:21 3,9 °C 88 % 1013,6 hPa 0,0 mm 10,6 km/h (2 Bft) W-SW 242 ° 0 min 0,000 mm 0,6 UV-I 90 W/m² 2,1 °C 1,2 °C 16,1 km/h (3 Bft)
01.03.2019 15:22 3,9 °C 88 % 1013,6 hPa 0,0 mm 10,0 km/h (2 Bft) W-SW 252 ° 0 min 0,000 mm 0,6 UV-I 90 W/m² 2,1 °C 1,3 °C 12,9 km/h (3 Bft)
01.03.2019 15:23 3,9 °C 88 % 1013,6 hPa 0,0 mm 5,6 km/h (1 Bft) W-SW 250 ° 0 min 0,000 mm 0,6 UV-I 88 W/m² 2,1 °C 2,6 °C 8,0 km/h (2 Bft)
01.03.2019 15:24 3,9 °C 88 % 1013,6 hPa 0,0 mm 11,9 km/h (2 Bft) W-SW 246 ° 0 min 0,000 mm 0,6 UV-I 88 W/m² 2,1 °C 0,9 °C 14,5 km/h (3 Bft)
01.03.2019 15:25 3,9 °C 88 % 1013,6 hPa 0,0 mm 8,4 km/h (2 Bft) W-SW 256 ° 0 min 0,000 mm 0,6 UV-I 81 W/m² 2,1 °C 1,7 °C 12,9 km/h (3 Bft)
01.03.2019 15:26 3,9 °C 88 % 1013,6 hPa 0,0 mm 6,0 km/h (2 Bft) W-SW 252 ° 0 min 0,000 mm 0,6 UV-I 81 W/m² 2,1 °C 2,5 °C 11,3 km/h (2 Bft)
01.03.2019 15:27 3,8 °C 88 % 1013,7 hPa 0,0 mm 11,2 km/h (2 Bft) W 276 ° 0 min 0,000 mm 0,6 UV-I 77 W/m² 2,0 °C 1,0 °C 17,7 km/h (3 Bft)
01.03.2019 15:28 3,8 °C 88 % 1013,6 hPa 0,0 mm 7,8 km/h (2 Bft) W 261 ° 0 min 0,000 mm 0,6 UV-I 74 W/m² 2,0 °C 1,8 °C 16,1 km/h (3 Bft)
01.03.2019 15:29 3,8 °C 88 % 1013,6 hPa 0,0 mm 7,2 km/h (2 Bft) W-NW 286 ° 0 min 0,000 mm 0,5 UV-I 70 W/m² 2,0 °C 2,0 °C 11,3 km/h (2 Bft)
01.03.2019 15:30 3,8 °C 88 % 1013,6 hPa 0,2 mm 9,8 km/h (2 Bft) W-NW 284 ° 0 min 0,000 mm 0,5 UV-I 63 W/m² 2,0 °C 1,3 °C 16,1 km/h (3 Bft)
01.03.2019 15:31 3,8 °C 88 % 1013,6 hPa 0,0 mm 8,0 km/h (2 Bft) W-SW 256 ° 0 min 0,000 mm 0,5 UV-I 67 W/m² 2,0 °C 1,7 °C 11,3 km/h (2 Bft)
01.03.2019 15:32 3,7 °C 88 % 1013,6 hPa 0,0 mm 7,3 km/h (2 Bft) W 275 ° 0 min 0,000 mm 0,5 UV-I 69 W/m² 1,9 °C 1,8 °C 11,3 km/h (2 Bft)
01.03.2019 15:33 3,7 °C 88 % 1013,6 hPa 0,0 mm 6,9 km/h (2 Bft) W 269 ° 0 min 0,000 mm 0,5 UV-I 69 W/m² 1,9 °C 1,9 °C 12,9 km/h (3 Bft)
01.03.2019 15:34 3,7 °C 89 % 1013,6 hPa 0,0 mm 7,3 km/h (2 Bft) SW 227 ° 0 min 0,000 mm 0,5 UV-I 70 W/m² 2,1 °C 1,8 °C 11,3 km/h (2 Bft)
01.03.2019 15:35 3,7 °C 89 % 1013,6 hPa 0,0 mm 9,9 km/h (2 Bft) W 260 ° 0 min 0,000 mm 0,6 UV-I 77 W/m² 2,1 °C 1,1 °C 16,1 km/h (3 Bft)
01.03.2019 15:36 3,7 °C 89 % 1013,6 hPa 0,0 mm 10,8 km/h (2 Bft) W 268 ° 0 min 0,000 mm 0,5 UV-I 76 W/m² 2,1 °C 0,9 °C 14,5 km/h (3 Bft)
01.03.2019 15:37 3,7 °C 89 % 1013,6 hPa 0,0 mm 7,9 km/h (2 Bft) W 267 ° 0 min 0,000 mm 0,5 UV-I 70 W/m² 2,1 °C 1,6 °C 17,7 km/h (3 Bft)
01.03.2019 15:38 3,7 °C 89 % 1013,6 hPa 0,0 mm 7,2 km/h (2 Bft) W-SW 255 ° 0 min 0,000 mm 0,5 UV-I 69 W/m² 2,1 °C 1,8 °C 11,3 km/h (2 Bft)
01.03.2019 15:39 3,7 °C 89 % 1013,7 hPa 0,0 mm 9,3 km/h (2 Bft) W 261 ° 0 min 0,000 mm 0,5 UV-I 70 W/m² 2,1 °C 1,3 °C 14,5 km/h (3 Bft)
01.03.2019 15:40 3,7 °C 89 % 1013,6 hPa 0,0 mm 10,9 km/h (2 Bft) W 259 ° 0 min 0,000 mm 0,5 UV-I 72 W/m² 2,1 °C 0,9 °C 14,5 km/h (3 Bft)
01.03.2019 15:41 3,7 °C 89 % 1013,6 hPa 0,0 mm 8,1 km/h (2 Bft) W 273 ° 0 min 0,000 mm 0,6 UV-I 76 W/m² 2,1 °C 1,6 °C 11,3 km/h (2 Bft)
01.03.2019 15:42 3,6 °C 89 % 1013,7 hPa 0,0 mm 17,3 km/h (3 Bft) W 267 ° 0 min 0,000 mm 0,6 UV-I 77 W/m² 2,0 °C -0,3 °C 20,9 km/h (4 Bft)
01.03.2019 15:43 3,6 °C 89 % 1013,7 hPa 0,0 mm 11,0 km/h (2 Bft) W 267 ° 0 min 0,000 mm 0,5 UV-I 62 W/m² 2,0 °C 0,8 °C 14,5 km/h (3 Bft)
01.03.2019 15:44 3,6 °C 89 % 1013,6 hPa 0,0 mm 9,2 km/h (2 Bft) W-SW 256 ° 0 min 0,000 mm 0,0 UV-I 60 W/m² 2,0 °C 1,2 °C 12,9 km/h (3 Bft)
01.03.2019 15:45 3,6 °C 89 % 1013,7 hPa 0,0 mm 12,1 km/h (2 Bft) W-NW 296 ° 0 min 0,000 mm 0,5 UV-I 63 W/m² 2,0 °C 0,5 °C 16,1 km/h (3 Bft)
01.03.2019 15:46 3,6 °C 89 % 1013,7 hPa 0,0 mm 8,9 km/h (2 Bft) W-SW 248 ° 0 min 0,000 mm 0,5 UV-I 70 W/m² 2,0 °C 1,3 °C 12,9 km/h (3 Bft)
01.03.2019 15:47 3,6 °C 89 % 1013,7 hPa 0,0 mm 8,3 km/h (2 Bft) W 264 ° 0 min 0,000 mm 0,5 UV-I 69 W/m² 2,0 °C 1,4 °C 12,9 km/h (3 Bft)
01.03.2019 15:48 3,6 °C 89 % 1013,7 hPa 0,0 mm 12,6 km/h (3 Bft) W 269 ° 0 min 0,000 mm 0,5 UV-I 62 W/m² 2,0 °C 0,4 °C 17,7 km/h (3 Bft)
01.03.2019 15:49 3,6 °C 89 % 1013,7 hPa 0,0 mm 12,5 km/h (3 Bft) W 279 ° 0 min 0,000 mm 0,5 UV-I 63 W/m² 2,0 °C 0,5 °C 20,9 km/h (4 Bft)
01.03.2019 15:50 3,6 °C 89 % 1013,7 hPa 0,0 mm 11,2 km/h (2 Bft) SW 227 ° 0 min 0,000 mm 0,5 UV-I 65 W/m² 2,0 °C 0,7 °C 16,1 km/h (3 Bft)
01.03.2019 15:51 3,6 °C 89 % 1013,6 hPa 0,0 mm 7,2 km/h (2 Bft) W 265 ° 0 min 0,000 mm 0,5 UV-I 63 W/m² 2,0 °C 1,7 °C 9,7 km/h (2 Bft)
01.03.2019 15:52 3,6 °C 89 % 1013,7 hPa 0,0 mm 10,9 km/h (2 Bft) W 263 ° 0 min 0,000 mm 0,0 UV-I 63 W/m² 2,0 °C 0,8 °C 12,9 km/h (3 Bft)
01.03.2019 15:53 3,6 °C 89 % 1013,7 hPa 0,0 mm 10,8 km/h (2 Bft) W 261 ° 0 min 0,000 mm 0,0 UV-I 54 W/m² 2,0 °C 0,8 °C 16,1 km/h (3 Bft)
01.03.2019 15:54 3,6 °C 89 % 1013,7 hPa 0,0 mm 9,0 km/h (2 Bft) W 275 ° 0 min 0,000 mm 0,0 UV-I 54 W/m² 2,0 °C 1,2 °C 14,5 km/h (3 Bft)
01.03.2019 15:55 3,6 °C 89 % 1013,7 hPa 0,0 mm 9,0 km/h (2 Bft) W 276 ° 0 min 0,000 mm 0,0 UV-I 56 W/m² 2,0 °C 1,2 °C 12,9 km/h (3 Bft)
01.03.2019 15:56 3,6 °C 89 % 1013,7 hPa 0,0 mm 11,3 km/h (2 Bft) W 266 ° 0 min 0,000 mm 0,0 UV-I 56 W/m² 2,0 °C 0,7 °C 14,5 km/h (3 Bft)
01.03.2019 15:57 3,6 °C 89 % 1013,8 hPa 0,0 mm 9,5 km/h (2 Bft) W-SW 254 ° 0 min 0,000 mm 0,0 UV-I 54 W/m² 2,0 °C 1,1 °C 12,9 km/h (3 Bft)
01.03.2019 15:58 3,6 °C 89 % 1013,7 hPa 0,0 mm 13,8 km/h (3 Bft) W 274 ° 0 min 0,000 mm 0,0 UV-I 53 W/m² 2,0 °C 0,2 °C 17,7 km/h (3 Bft)
01.03.2019 15:59 3,6 °C 89 % 1013,7 hPa 0,0 mm 11,5 km/h (2 Bft) W-SW 253 ° 0 min 0,000 mm 0,0 UV-I 53 W/m² 2,0 °C 0,7 °C 19,3 km/h (3 Bft)
01.03.2019 16:00 3,6 °C 89 % 1013,7 hPa 0,0 mm 7,1 km/h (2 Bft) W-SW 254 ° 0 min 0,000 mm 0,0 UV-I 53 W/m² 2,0 °C 1,8 °C 11,3 km/h (2 Bft)
01.03.2019 16:01 3,6 °C 89 % 1013,7 hPa 0,0 mm 8,2 km/h (2 Bft) W 268 ° 0 min 0,051 mm 0,0 UV-I 56 W/m² 2,0 °C 1,4 °C 14,5 km/h (3 Bft)
01.03.2019 16:02 3,6 °C 89 % 1013,7 hPa 0,0 mm 9,1 km/h (2 Bft) W-SW 250 ° 0 min 0,000 mm 0,0 UV-I 56 W/m² 2,0 °C 1,2 °C 11,3 km/h (2 Bft)
01.03.2019 16:03 3,6 °C 89 % 1013,7 hPa 0,0 mm 8,5 km/h (2 Bft) W 263 ° 0 min 0,000 mm 0,0 UV-I 53 W/m² 2,0 °C 1,4 °C 12,9 km/h (3 Bft)
01.03.2019 16:04 3,6 °C 89 % 1013,7 hPa 0,0 mm 11,6 km/h (2 Bft) W-SW 249 ° 0 min 0,000 mm 0,0 UV-I 46 W/m² 2,0 °C 0,6 °C 16,1 km/h (3 Bft)
01.03.2019 16:05 3,6 °C 89 % 1013,8 hPa 0,0 mm 10,4 km/h (2 Bft) W 260 ° 0 min 0,000 mm 0,0 UV-I 42 W/m² 2,0 °C 0,9 °C 12,9 km/h (3 Bft)
01.03.2019 16:06 3,5 °C 89 % 1013,8 hPa 0,0 mm 12,0 km/h (2 Bft) W 264 ° 0 min 0,000 mm 0,0 UV-I 42 W/m² 1,9 °C 0,4 °C 20,9 km/h (4 Bft)
01.03.2019 16:07 3,5 °C 89 % 1013,8 hPa 0,0 mm 9,0 km/h (2 Bft) W-SW 244 ° 0 min 0,000 mm 0,0 UV-I 46 W/m² 1,9 °C 1,1 °C 11,3 km/h (2 Bft)
01.03.2019 16:08 3,4 °C 89 % 1013,8 hPa 0,0 mm 10,5 km/h (2 Bft) W 275 ° 0 min 0,000 mm 0,0 UV-I 49 W/m² 1,8 °C 0,6 °C 14,5 km/h (3 Bft)
01.03.2019 16:09 3,5 °C 89 % 1013,8 hPa 0,0 mm 13,4 km/h (3 Bft) W 271 ° 0 min 0,000 mm 0,0 UV-I 51 W/m² 1,9 °C 0,2 °C 17,7 km/h (3 Bft)
01.03.2019 16:10 3,5 °C 89 % 1013,7 hPa 0,0 mm 11,9 km/h (2 Bft) W 265 ° 0 min 0,000 mm 0,0 UV-I 51 W/m² 1,9 °C 0,5 °C 16,1 km/h (3 Bft)
01.03.2019 16:11 3,5 °C 89 % 1013,8 hPa 0,0 mm 11,7 km/h (2 Bft) W-SW 248 ° 0 min 0,000 mm 0,0 UV-I 47 W/m² 1,9 °C 0,5 °C 16,1 km/h (3 Bft)
01.03.2019 16:12 3,6 °C 89 % 1013,8 hPa 0,0 mm 12,0 km/h (2 Bft) W 265 ° 0 min 0,000 mm 0,0 UV-I 54 W/m² 2,0 °C 0,6 °C 16,1 km/h (3 Bft)
01.03.2019 16:13 3,6 °C 89 % 1013,9 hPa 0,0 mm 10,0 km/h (2 Bft) W-SW 248 ° 0 min 0,000 mm 0,0 UV-I 53 W/m² 2,0 °C 1,0 °C 14,5 km/h (3 Bft)
01.03.2019 16:14 3,6 °C 89 % 1013,9 hPa 0,0 mm 8,4 km/h (2 Bft) W 266 ° 0 min 0,000 mm 0,0 UV-I 54 W/m² 2,0 °C 1,4 °C 11,3 km/h (2 Bft)
01.03.2019 16:15 3,5 °C 89 % 1013,9 hPa 0,0 mm 11,4 km/h (2 Bft) W 277 ° 0 min 0,000 mm 0,0 UV-I 54 W/m² 1,9 °C 0,6 °C 16,1 km/h (3 Bft)
01.03.2019 16:16 3,5 °C 89 % 1013,9 hPa 0,0 mm 7,0 km/h (2 Bft) W 259 ° 0 min 0,000 mm 0,0 UV-I 51 W/m² 1,9 °C 1,7 °C 9,7 km/h (2 Bft)
01.03.2019 16:17 3,5 °C 89 % 1013,9 hPa 0,0 mm 8,4 km/h (2 Bft) W-SW 242 ° 0 min 0,000 mm 0,0 UV-I 49 W/m² 1,9 °C 1,3 °C 12,9 km/h (3 Bft)
01.03.2019 16:18 3,4 °C 89 % 1013,9 hPa 0,0 mm 15,0 km/h (3 Bft) W 277 ° 0 min 0,000 mm 0,0 UV-I 49 W/m² 1,8 °C -0,2 °C 20,9 km/h (4 Bft)
01.03.2019 16:19 3,5 °C 89 % 1013,9 hPa 0,0 mm 9,0 km/h (2 Bft) W 277 ° 0 min 0,000 mm 0,0 UV-I 44 W/m² 1,9 °C 1,1 °C 12,9 km/h (3 Bft)
01.03.2019 16:20 3,4 °C 89 % 1013,9 hPa 0,0 mm 9,8 km/h (2 Bft) W 261 ° 0 min 0,000 mm 0,0 UV-I 42 W/m² 1,8 °C 0,8 °C 12,9 km/h (3 Bft)
01.03.2019 16:21 3,4 °C 90 % 1013,9 hPa 0,0 mm 12,5 km/h (3 Bft) W-SW 250 ° 0 min 0,000 mm 0,0 UV-I 46 W/m² 1,9 °C 0,2 °C 14,5 km/h (3 Bft)
01.03.2019 16:22 3,4 °C 89 % 1014,0 hPa 0,0 mm 11,1 km/h (2 Bft) W-SW 252 ° 0 min 0,000 mm 0,0 UV-I 54 W/m² 1,8 °C 0,5 °C 14,5 km/h (3 Bft)
01.03.2019 16:23 3,4 °C 90 % 1014,0 hPa 0,0 mm 7,5 km/h (2 Bft) W 264 ° 0 min 0,000 mm 0,5 UV-I 72 W/m² 1,9 °C 1,4 °C 14,5 km/h (3 Bft)
01.03.2019 16:24 3,5 °C 90 % 1014,0 hPa 0,0 mm 9,3 km/h (2 Bft) W 271 ° 0 min 0,000 mm 0,5 UV-I 77 W/m² 2,0 °C 1,0 °C 12,9 km/h (3 Bft)
01.03.2019 16:25 3,5 °C 90 % 1014,0 hPa 0,0 mm 6,1 km/h (2 Bft) W 269 ° 0 min 0,000 mm 0,5 UV-I 77 W/m² 2,0 °C 2,0 °C 8,0 km/h (2 Bft)
01.03.2019 16:26 3,5 °C 90 % 1014,0 hPa 0,0 mm 6,2 km/h (2 Bft) W 264 ° 0 min 0,000 mm 0,5 UV-I 83 W/m² 2,0 °C 1,9 °C 11,3 km/h (2 Bft)
01.03.2019 16:27 3,5 °C 90 % 1014,0 hPa 0,0 mm 7,0 km/h (2 Bft) W 272 ° 0 min 0,000 mm 0,5 UV-I 83 W/m² 2,0 °C 1,7 °C 11,3 km/h (2 Bft)
01.03.2019 16:28 3,4 °C 90 % 1014,0 hPa 0,0 mm 8,2 km/h (2 Bft) W 272 ° 0 min 0,000 mm 0,5 UV-I 84 W/m² 1,9 °C 1,2 °C 11,3 km/h (2 Bft)
01.03.2019 16:29 3,4 °C 90 % 1014,0 hPa 0,0 mm 9,5 km/h (2 Bft) W 267 ° 0 min 0,000 mm 0,5 UV-I 72 W/m² 1,9 °C 0,9 °C 12,9 km/h (3 Bft)
01.03.2019 16:30 3,4 °C 90 % 1014,0 hPa 0,0 mm 10,8 km/h (2 Bft) W-SW 248 ° 0 min 0,000 mm 0,5 UV-I 74 W/m² 1,9 °C 0,6 °C 19,3 km/h (3 Bft)
01.03.2019 16:31 3,4 °C 90 % 1014,1 hPa 0,0 mm 6,4 km/h (2 Bft) W 263 ° 0 min 0,000 mm 0,5 UV-I 69 W/m² 1,9 °C 1,7 °C 16,1 km/h (3 Bft)
01.03.2019 16:32 3,4 °C 90 % 1014,1 hPa 0,0 mm 11,3 km/h (2 Bft) W 267 ° 0 min 0,000 mm 0,5 UV-I 63 W/m² 1,9 °C 0,5 °C 14,5 km/h (3 Bft)
01.03.2019 16:33 3,4 °C 90 % 1014,0 hPa 0,0 mm 8,5 km/h (2 Bft) W 271 ° 0 min 0,000 mm 0,0 UV-I 51 W/m² 1,9 °C 1,1 °C 11,3 km/h (2 Bft)
01.03.2019 16:34 3,4 °C 90 % 1014,1 hPa 0,0 mm 11,1 km/h (2 Bft) W-SW 250 ° 0 min 0,000 mm 0,0 UV-I 46 W/m² 1,9 °C 0,5 °C 16,1 km/h (3 Bft)
01.03.2019 16:35 3,4 °C 90 % 1014,1 hPa 0,0 mm 9,2 km/h (2 Bft) W 278 ° 0 min 0,000 mm 0,0 UV-I 40 W/m² 1,9 °C 0,9 °C 14,5 km/h (3 Bft)
01.03.2019 16:36 3,4 °C 90 % 1014,1 hPa 0,0 mm 10,7 km/h (2 Bft) W 277 ° 0 min 0,000 mm 0,0 UV-I 40 W/m² 1,9 °C 0,6 °C 20,9 km/h (4 Bft)
01.03.2019 16:37 3,4 °C 90 % 1014,2 hPa 0,0 mm 8,5 km/h (2 Bft) W 275 ° 0 min 0,000 mm 0,0 UV-I 44 W/m² 1,9 °C 1,1 °C 12,9 km/h (3 Bft)
01.03.2019 16:38 3,4 °C 90 % 1014,1 hPa 0,0 mm 12,5 km/h (3 Bft) W-NW 303 ° 0 min 0,000 mm 0,0 UV-I 44 W/m² 1,9 °C 0,2 °C 17,7 km/h (3 Bft)
01.03.2019 16:39 3,4 °C 90 % 1014,1 hPa 0,0 mm 11,8 km/h (2 Bft) W-SW 250 ° 0 min 0,000 mm 0,0 UV-I 44 W/m² 1,9 °C 0,4 °C 16,1 km/h (3 Bft)
01.03.2019 16:40 3,4 °C 90 % 1014,1 hPa 0,0 mm 10,5 km/h (2 Bft) W 274 ° 0 min 0,000 mm 0,0 UV-I 42 W/m² 1,9 °C 0,6 °C 16,1 km/h (3 Bft)
01.03.2019 16:41 3,4 °C 90 % 1014,1 hPa 0,0 mm 17,2 km/h (3 Bft) W-SW 254 ° 0 min 0,000 mm 0,0 UV-I 37 W/m² 1,9 °C -0,6 °C 25,7 km/h (4 Bft)
01.03.2019 16:42 3,5 °C 90 % 1014,1 hPa 0,0 mm 13,7 km/h (3 Bft) W-SW 257 ° 0 min 0,000 mm 0,0 UV-I 33 W/m² 2,0 °C 0,1 °C 19,3 km/h (3 Bft)
01.03.2019 16:43 3,5 °C 90 % 1014,1 hPa 0,0 mm 14,7 km/h (3 Bft) W 269 ° 0 min 0,000 mm 0,0 UV-I 30 W/m² 2,0 °C -0,1 °C 19,3 km/h (3 Bft)
01.03.2019 16:44 3,5 °C 90 % 1014,1 hPa 0,0 mm 9,4 km/h (2 Bft) W 265 ° 0 min 0,000 mm 0,0 UV-I 28 W/m² 2,0 °C 1,0 °C 16,1 km/h (3 Bft)
01.03.2019 16:45 3,5 °C 90 % 1014,2 hPa 0,0 mm 7,4 km/h (2 Bft) W 280 ° 0 min 0,000 mm 0,0 UV-I 26 W/m² 2,0 °C 1,5 °C 9,7 km/h (2 Bft)
01.03.2019 16:46 3,5 °C 90 % 1014,1 hPa 0,0 mm 12,2 km/h (2 Bft) W 269 ° 0 min 0,000 mm 0,0 UV-I 26 W/m² 2,0 °C 0,4 °C 16,1 km/h (3 Bft)
01.03.2019 16:47 3,5 °C 90 % 1014,2 hPa 0,0 mm 15,0 km/h (3 Bft) W-NW 303 ° 0 min 0,000 mm 0,0 UV-I 26 W/m² 2,0 °C -0,1 °C 19,3 km/h (3 Bft)
01.03.2019 16:48 3,5 °C 90 % 1014,1 hPa 0,0 mm 14,6 km/h (3 Bft) W-NW 282 ° 0 min 0,000 mm 0,0 UV-I 26 W/m² 2,0 °C -0,0 °C 24,1 km/h (4 Bft)
01.03.2019 16:49 3,5 °C 90 % 1014,3 hPa 0,0 mm 12,8 km/h (3 Bft) W-SW 247 ° 0 min 0,000 mm 0,0 UV-I 25 W/m² 2,0 °C 0,3 °C 25,7 km/h (4 Bft)
01.03.2019 16:50 3,5 °C 89 % 1014,2 hPa 0,0 mm 9,6 km/h (2 Bft) W 261 ° 0 min 0,000 mm 0,0 UV-I 26 W/m² 1,9 °C 1,0 °C 14,5 km/h (3 Bft)
01.03.2019 16:51 3,5 °C 90 % 1014,2 hPa 0,0 mm 15,1 km/h (3 Bft) W-NW 293 ° 0 min 0,000 mm 0,0 UV-I 26 W/m² 2,0 °C -0,1 °C 19,3 km/h (3 Bft)
01.03.2019 16:52 3,6 °C 89 % 1014,2 hPa 0,0 mm 13,2 km/h (3 Bft) W-NW 286 ° 0 min 0,000 mm 0,0 UV-I 23 W/m² 2,0 °C 0,3 °C 19,3 km/h (3 Bft)
01.03.2019 16:53 3,6 °C 89 % 1014,2 hPa 0,0 mm 16,6 km/h (3 Bft) W 274 ° 0 min 0,000 mm 0,0 UV-I 18 W/m² 2,0 °C -0,2 °C 20,9 km/h (4 Bft)
01.03.2019 16:54 3,5 °C 89 % 1014,2 hPa 0,0 mm 11,3 km/h (2 Bft) W-NW 291 ° 0 min 0,000 mm 0,0 UV-I 18 W/m² 1,9 °C 0,6 °C 19,3 km/h (3 Bft)
01.03.2019 16:55 3,5 °C 89 % 1014,2 hPa 0,0 mm 16,6 km/h (3 Bft) W 261 ° 0 min 0,000 mm 0,0 UV-I 19 W/m² 1,9 °C -0,4 °C 20,9 km/h (4 Bft)
01.03.2019 16:56 3,4 °C 89 % 1014,2 hPa 0,0 mm 15,8 km/h (3 Bft) W 263 ° 0 min 0,000 mm 0,0 UV-I 18 W/m² 1,8 °C -0,4 °C 20,9 km/h (4 Bft)
01.03.2019 16:57 3,4 °C 89 % 1014,3 hPa 0,0 mm 11,7 km/h (2 Bft) W 272 ° 0 min 0,000 mm 0,0 UV-I 16 W/m² 1,8 °C 0,4 °C 16,1 km/h (3 Bft)
01.03.2019 16:58 3,4 °C 89 % 1014,3 hPa 0,0 mm 9,6 km/h (2 Bft) W 265 ° 0 min 0,000 mm 0,0 UV-I 16 W/m² 1,8 °C 0,8 °C 14,5 km/h (3 Bft)
01.03.2019 16:59 3,4 °C 89 % 1014,3 hPa 0,0 mm 7,3 km/h (2 Bft) NW 307 ° 0 min 0,000 mm 0,0 UV-I 16 W/m² 1,8 °C 1,5 °C 12,9 km/h (3 Bft)
01.03.2019 17:00 3,4 °C 89 % 1014,3 hPa 0,0 mm 10,8 km/h (2 Bft) W 266 ° 0 min 0,000 mm 0,0 UV-I 16 W/m² 1,8 °C 0,6 °C 12,9 km/h (3 Bft)
01.03.2019 17:01 3,4 °C 89 % 1014,4 hPa 0,0 mm 10,9 km/h (2 Bft) W 265 ° 0 min 0,025 mm 0,0 UV-I 18 W/m² 1,8 °C 0,5 °C 19,3 km/h (3 Bft)
01.03.2019 17:02 3,4 °C 89 % 1014,4 hPa 0,0 mm 14,3 km/h (3 Bft) W-SW 244 ° 0 min 0,000 mm 0,0 UV-I 16 W/m² 1,8 °C -0,1 °C 19,3 km/h (3 Bft)
01.03.2019 17:03 3,4 °C 89 % 1014,4 hPa 0,0 mm 9,1 km/h (2 Bft) W-SW 251 ° 0 min 0,000 mm 0,0 UV-I 18 W/m² 1,8 °C 1,0 °C 16,1 km/h (3 Bft)
01.03.2019 17:04 3,4 °C 89 % 1014,4 hPa 0,0 mm 11,5 km/h (2 Bft) W-SW 254 ° 0 min 0,000 mm 0,0 UV-I 26 W/m² 1,8 °C 0,4 °C 16,1 km/h (3 Bft)
01.03.2019 17:05 3,4 °C 89 % 1014,4 hPa 0,0 mm 7,8 km/h (2 Bft) W 274 ° 0 min 0,000 mm 0,0 UV-I 30 W/m² 1,8 °C 1,3 °C 14,5 km/h (3 Bft)
01.03.2019 17:06 3,4 °C 89 % 1014,4 hPa 0,0 mm 14,4 km/h (3 Bft) W 277 ° 0 min 0,000 mm 0,0 UV-I 32 W/m² 1,8 °C -0,1 °C 22,5 km/h (4 Bft)
01.03.2019 17:07 3,4 °C 89 % 1014,4 hPa 0,0 mm 19,0 km/h (3 Bft) W-NW 283 ° 0 min 0,000 mm 0,0 UV-I 35 W/m² 1,8 °C -0,8 °C 29,0 km/h (5 Bft)
01.03.2019 17:08 3,4 °C 89 % 1014,4 hPa 0,0 mm 10,1 km/h (2 Bft) W-NW 284 ° 0 min 0,000 mm 0,0 UV-I 37 W/m² 1,8 °C 0,7 °C 16,1 km/h (3 Bft)
01.03.2019 17:09 3,4 °C 89 % 1014,4 hPa 0,0 mm 12,4 km/h (3 Bft) W-SW 251 ° 0 min 0,000 mm 0,0 UV-I 37 W/m² 1,8 °C 0,2 °C 14,5 km/h (3 Bft)
01.03.2019 17:10 3,3 °C 89 % 1014,4 hPa 0,0 mm 9,8 km/h (2 Bft) S 187 ° 0 min 0,000 mm 0,0 UV-I 33 W/m² 1,7 °C 0,7 °C 16,1 km/h (3 Bft)
01.03.2019 17:11 3,4 °C 90 % 1014,4 hPa 0,0 mm 12,1 km/h (2 Bft) W-NW 286 ° 0 min 0,000 mm 0,0 UV-I 33 W/m² 1,9 °C 0,3 °C 16,1 km/h (3 Bft)
01.03.2019 17:12 3,4 °C 89 % 1014,5 hPa 0,0 mm 20,3 km/h (4 Bft) W 269 ° 0 min 0,000 mm 0,0 UV-I 30 W/m² 1,8 °C -1,0 °C 29,0 km/h (5 Bft)
01.03.2019 17:13 3,3 °C 89 % 1014,5 hPa 0,0 mm 21,8 km/h (4 Bft) W-NW 290 ° 0 min 0,000 mm 0,0 UV-I 26 W/m² 1,7 °C -1,3 °C 30,6 km/h (5 Bft)
01.03.2019 17:14 3,3 °C 90 % 1014,5 hPa 0,0 mm 14,5 km/h (3 Bft) W-SW 256 ° 0 min 0,000 mm 0,0 UV-I 25 W/m² 1,8 °C -0,3 °C 20,9 km/h (4 Bft)
01.03.2019 17:15 3,4 °C 89 % 1014,5 hPa 0,0 mm 20,6 km/h (4 Bft) W 280 ° 0 min 0,000 mm 0,0 UV-I 25 W/m² 1,8 °C -1,0 °C 30,6 km/h (5 Bft)
01.03.2019 17:16 3,4 °C 89 % 1014,5 hPa 0,2 mm 20,7 km/h (4 Bft) W-NW 298 ° 0 min 0,000 mm 0,0 UV-I 28 W/m² 1,8 °C -1,0 °C 27,4 km/h (4 Bft)
01.03.2019 17:17 3,4 °C 89 % 1014,5 hPa 0,0 mm 11,7 km/h (2 Bft) W 263 ° 0 min 0,000 mm 0,0 UV-I 30 W/m² 1,8 °C 0,4 °C 17,7 km/h (3 Bft)
01.03.2019 17:18 3,3 °C 89 % 1014,5 hPa 0,0 mm 12,3 km/h (3 Bft) W-SW 256 ° 0 min 0,000 mm 0,0 UV-I 28 W/m² 1,7 °C 0,1 °C 16,1 km/h (3 Bft)
01.03.2019 17:19 3,3 °C 89 % 1014,5 hPa 0,0 mm 7,7 km/h (2 Bft) W 267 ° 0 min 0,000 mm 0,0 UV-I 26 W/m² 1,7 °C 1,2 °C 11,3 km/h (2 Bft)
01.03.2019 17:20 3,3 °C 89 % 1014,4 hPa 0,0 mm 9,3 km/h (2 Bft) W 263 ° 0 min 0,000 mm 0,0 UV-I 25 W/m² 1,7 °C 0,8 °C 19,3 km/h (3 Bft)
01.03.2019 17:21 3,3 °C 89 % 1014,5 hPa 0,0 mm 9,9 km/h (2 Bft) W 263 ° 0 min 0,000 mm 0,0 UV-I 25 W/m² 1,7 °C 0,7 °C 17,7 km/h (3 Bft)
01.03.2019 17:22 3,3 °C 89 % 1014,4 hPa 0,0 mm 13,7 km/h (3 Bft) W-SW 243 ° 0 min 0,000 mm 0,0 UV-I 28 W/m² 1,7 °C -0,1 °C 19,3 km/h (3 Bft)
01.03.2019 17:23 3,3 °C 90 % 1014,5 hPa 0,0 mm 8,4 km/h (2 Bft) W 271 ° 0 min 0,000 mm 0,0 UV-I 28 W/m² 1,8 °C 1,0 °C 14,5 km/h (3 Bft)
01.03.2019 17:24 3,3 °C 90 % 1014,4 hPa 0,0 mm 11,1 km/h (2 Bft) W-SW 252 ° 0 min 0,000 mm 0,0 UV-I 28 W/m² 1,8 °C 0,4 °C 19,3 km/h (3 Bft)
01.03.2019 17:25 3,3 °C 90 % 1014,5 hPa 0,0 mm 15,2 km/h (3 Bft) W 275 ° 0 min 0,000 mm 0,0 UV-I 28 W/m² 1,8 °C -0,4 °C 17,7 km/h (3 Bft)
01.03.2019 17:26 3,3 °C 90 % 1014,4 hPa 0,0 mm 8,9 km/h (2 Bft) W-SW 254 ° 0 min 0,000 mm 0,0 UV-I 28 W/m² 1,8 °C 0,9 °C 12,9 km/h (3 Bft)
01.03.2019 17:27 3,3 °C 90 % 1014,5 hPa 0,0 mm 12,7 km/h (3 Bft) W-SW 238 ° 0 min 0,000 mm 0,0 UV-I 30 W/m² 1,8 °C 0,1 °C 17,7 km/h (3 Bft)
01.03.2019 17:28 3,3 °C 90 % 1014,4 hPa 0,0 mm 14,1 km/h (3 Bft) W 259 ° 0 min 0,000 mm 0,0 UV-I 19 W/m² 1,8 °C -0,2 °C 17,7 km/h (3 Bft)
01.03.2019 17:29 3,2 °C 90 % 1014,6 hPa 0,0 mm 13,6 km/h (3 Bft) W 265 ° 0 min 0,000 mm 0,0 UV-I 18 W/m² 1,7 °C -0,2 °C 20,9 km/h (4 Bft)
01.03.2019 17:30 3,3 °C 90 % 1014,6 hPa 0,0 mm 16,2 km/h (3 Bft) W-SW 250 ° 0 min 0,000 mm 0,0 UV-I 16 W/m² 1,8 °C -0,5 °C 25,7 km/h (4 Bft)
01.03.2019 17:31 3,2 °C 90 % 1014,6 hPa 0,0 mm 11,7 km/h (2 Bft) W-SW 254 ° 0 min 0,000 mm 0,0 UV-I 16 W/m² 1,7 °C 0,1 °C 19,3 km/h (3 Bft)
01.03.2019 17:32 3,2 °C 90 % 1014,6 hPa 0,0 mm 15,6 km/h (3 Bft) W-NW 291 ° 0 min 0,000 mm 0,0 UV-I 16 W/m² 1,7 °C -0,6 °C 24,1 km/h (4 Bft)
01.03.2019 17:33 3,2 °C 90 % 1014,6 hPa 0,0 mm 18,2 km/h (3 Bft) W 275 ° 0 min 0,000 mm 0,0 UV-I 16 W/m² 1,7 °C -1,0 °C 25,7 km/h (4 Bft)
01.03.2019 17:34 3,2 °C 90 % 1014,7 hPa 0,0 mm 13,3 km/h (3 Bft) W 271 ° 0 min 0,000 mm 0,0 UV-I 14 W/m² 1,7 °C -0,2 °C 20,9 km/h (4 Bft)
01.03.2019 17:35 3,2 °C 90 % 1014,7 hPa 0,0 mm 17,3 km/h (3 Bft) W-SW 252 ° 0 min 0,000 mm 0,0 UV-I 14 W/m² 1,7 °C -0,8 °C 27,4 km/h (4 Bft)
01.03.2019 17:36 3,3 °C 90 % 1014,7 hPa 0,0 mm 15,2 km/h (3 Bft) W 259 ° 0 min 0,000 mm 0,0 UV-I 14 W/m² 1,8 °C -0,4 °C 19,3 km/h (3 Bft)
01.03.2019 17:37 3,2 °C 90 % 1014,7 hPa 0,0 mm 16,0 km/h (3 Bft) W 270 ° 0 min 0,000 mm 0,0 UV-I 14 W/m² 1,7 °C -0,6 °C 22,5 km/h (4 Bft)
01.03.2019 17:38 3,3 °C 90 % 1014,7 hPa 0,0 mm 21,0 km/h (4 Bft) W 277 ° 0 min 0,000 mm 0,0 UV-I 12 W/m² 1,8 °C -1,2 °C 27,4 km/h (4 Bft)
01.03.2019 17:39 3,3 °C 90 % 1014,8 hPa 0,0 mm 12,9 km/h (3 Bft) W 273 ° 0 min 0,000 mm 0,0 UV-I 11 W/m² 1,8 °C 0,0 °C 20,9 km/h (4 Bft)
01.03.2019 17:40 3,2 °C 90 % 1014,8 hPa 0,0 mm 13,9 km/h (3 Bft) W 263 ° 0 min 0,000 mm 0,0 UV-I 11 W/m² 1,7 °C -0,3 °C 20,9 km/h (4 Bft)
01.03.2019 17:41 3,3 °C 90 % 1014,7 hPa 0,0 mm 17,4 km/h (3 Bft) W-SW 240 ° 0 min 0,000 mm 0,0 UV-I 11 W/m² 1,8 °C -0,7 °C 24,1 km/h (4 Bft)
01.03.2019 17:42 3,2 °C 90 % 1014,8 hPa 0,0 mm 10,8 km/h (2 Bft) SW 227 ° 0 min 0,000 mm 0,0 UV-I 11 W/m² 1,7 °C 0,3 °C 20,9 km/h (4 Bft)
01.03.2019 17:43 3,3 °C 90 % 1014,7 hPa 0,0 mm 14,0 km/h (3 Bft) W 273 ° 0 min 0,000 mm 0,0 UV-I 11 W/m² 1,8 °C -0,2 °C 19,3 km/h (3 Bft)
01.03.2019 17:44 3,3 °C 90 % 1014,7 hPa 0,0 mm 15,8 km/h (3 Bft) W-SW 253 ° 0 min 0,000 mm 0,0 UV-I 11 W/m² 1,8 °C -0,5 °C 22,5 km/h (4 Bft)
01.03.2019 17:45 3,3 °C 90 % 1014,7 hPa 0,0 mm 13,7 km/h (3 Bft) W 265 ° 0 min 0,000 mm 0,0 UV-I 9 W/m² 1,8 °C -0,1 °C 22,5 km/h (4 Bft)
01.03.2019 17:46 3,3 °C 90 % 1014,8 hPa 0,0 mm 12,0 km/h (2 Bft) W-SW 257 ° 0 min 0,000 mm 0,0 UV-I 7 W/m² 1,8 °C 0,2 °C 16,1 km/h (3 Bft)
01.03.2019 17:47 3,3 °C 90 % 1014,8 hPa 0,0 mm 13,2 km/h (3 Bft) SW 228 ° 0 min 0,000 mm 0,0 UV-I 7 W/m² 1,8 °C -0,0 °C 17,7 km/h (3 Bft)
01.03.2019 17:48 3,3 °C 90 % 1014,8 hPa 0,0 mm 13,0 km/h (3 Bft) W 263 ° 0 min 0,000 mm 0,0 UV-I 5 W/m² 1,8 °C 0,0 °C 20,9 km/h (4 Bft)
01.03.2019 17:49 3,3 °C 90 % 1014,9 hPa 0,0 mm 13,1 km/h (3 Bft) W 263 ° 0 min 0,000 mm 0,0 UV-I 5 W/m² 1,8 °C -0,0 °C 20,9 km/h (4 Bft)
01.03.2019 17:50 3,3 °C 90 % 1014,9 hPa 0,0 mm 15,1 km/h (3 Bft) W-SW 254 ° 0 min 0,000 mm 0,0 UV-I 5 W/m² 1,8 °C -0,4 °C 19,3 km/h (3 Bft)
01.03.2019 17:51 3,2 °C 90 % 1014,9 hPa 0,0 mm 8,9 km/h (2 Bft) SW 221 ° 0 min 0,000 mm 0,0 UV-I 5 W/m² 1,7 °C 0,8 °C 16,1 km/h (3 Bft)
01.03.2019 17:52 3,3 °C 90 % 1015,0 hPa 0,0 mm 11,4 km/h (2 Bft) W 270 ° 0 min 0,000 mm 0,0 UV-I 5 W/m² 1,8 °C 0,3 °C 19,3 km/h (3 Bft)
01.03.2019 17:53 3,2 °C 90 % 1014,9 hPa 0,0 mm 9,1 km/h (2 Bft) SW 236 ° 0 min 0,000 mm 0,0 UV-I 0 W/m² 1,7 °C 0,7 °C 14,5 km/h (3 Bft)
01.03.2019 17:54 3,2 °C 90 % 1014,9 hPa 0,0 mm 15,5 km/h (3 Bft) W-NW 290 ° 0 min 0,000 mm 0,0 UV-I 0 W/m² 1,7 °C -0,6 °C 19,3 km/h (3 Bft)
01.03.2019 17:55 3,2 °C 90 % 1014,9 hPa 0,0 mm 16,2 km/h (3 Bft) W-SW 254 ° 0 min 0,000 mm 0,0 UV-I 0 W/m² 1,7 °C -0,7 °C 22,5 km/h (4 Bft)
01.03.2019 17:56 3,2 °C 90 % 1014,9 hPa 0,0 mm 10,5 km/h (2 Bft) W-SW 248 ° 0 min 0,000 mm 0,0 UV-I 0 W/m² 1,7 °C 0,4 °C 14,5 km/h (3 Bft)
01.03.2019 17:57 3,2 °C 90 % 1015,0 hPa 0,0 mm 13,8 km/h (3 Bft) W-SW 248 ° 0 min 0,000 mm 0,0 UV-I 0 W/m² 1,7 °C -0,3 °C 19,3 km/h (3 Bft)
01.03.2019 17:58 3,2 °C 90 % 1014,9 hPa 0,0 mm 12,0 km/h (2 Bft) W-SW 258 ° 0 min 0,000 mm 0,0 UV-I 0 W/m² 1,7 °C 0,1 °C 17,7 km/h (3 Bft)
01.03.2019 17:59 3,2 °C 90 % 1015,0 hPa 0,0 mm 14,1 km/h (3 Bft) W 269 ° 0 min 0,000 mm 0,0 UV-I 0 W/m² 1,7 °C -0,3 °C 17,7 km/h (3 Bft)
01.03.2019 18:00 3,2 °C 90 % 1015,0 hPa 0,0 mm 11,0 km/h (2 Bft) W-NW 284 ° 0 min 0,000 mm 0,0 UV-I 0 W/m² 1,7 °C 0,3 °C 14,5 km/h (3 Bft)
01.03.2019 18:01 3,2 °C 90 % 1015,0 hPa 0,0 mm 14,3 km/h (3 Bft) W 273 ° 0 min 0,026 mm 0,0 UV-I 0 W/m² 1,7 °C -0,4 °C 24,1 km/h (4 Bft)
01.03.2019 18:02 3,2 °C 90 % 1015,1 hPa 0,0 mm 12,6 km/h (3 Bft) W 266 ° 0 min 0,000 mm 0,0 UV-I 0 W/m² 1,7 °C -0,0 °C 17,7 km/h (3 Bft)
01.03.2019 18:03 3,2 °C 90 % 1015,0 hPa 0,0 mm 13,2 km/h (3 Bft) W 271 ° 0 min 0,000 mm 0,0 UV-I 0 W/m² 1,7 °C -0,2 °C 19,3 km/h (3 Bft)
01.03.2019 18:04 3,2 °C 90 % 1015,1 hPa 0,0 mm 8,9 km/h (2 Bft) W 277 ° 0 min 0,000 mm 0,0 UV-I 0 W/m² 1,7 °C 0,8 °C 16,1 km/h (3 Bft)
01.03.2019 18:05 3,2 °C 90 % 1015,1 hPa 0,0 mm 13,2 km/h (3 Bft) SW 221 ° 0 min 0,000 mm 0,0 UV-I 0 W/m² 1,7 °C -0,2 °C 19,3 km/h (3 Bft)
01.03.2019 18:06 3,2 °C 90 % 1015,1 hPa 0,0 mm 12,1 km/h (2 Bft) W 263 ° 0 min 0,000 mm 0,0 UV-I 0 W/m² 1,7 °C 0,1 °C 17,7 km/h (3 Bft)
01.03.2019 18:07 3,2 °C 90 % 1015,1 hPa 0,0 mm 15,8 km/h (3 Bft) W-SW 252 ° 0 min 0,000 mm 0,0 UV-I 0 W/m² 1,7 °C -0,6 °C 22,5 km/h (4 Bft)
01.03.2019 18:08 3,2 °C 90 % 1015,1 hPa 0,0 mm 13,5 km/h (3 Bft) W 260 ° 0 min 0,000 mm 0,0 UV-I 0 W/m² 1,7 °C -0,2 °C 20,9 km/h (4 Bft)
01.03.2019 18:09 3,2 °C 90 % 1015,1 hPa 0,0 mm 12,9 km/h (3 Bft) W 263 ° 0 min 0,000 mm 0,0 UV-I 0 W/m² 1,7 °C -0,1 °C 17,7 km/h (3 Bft)
01.03.2019 18:10 3,2 °C 90 % 1015,1 hPa 0,0 mm 9,6 km/h (2 Bft) W-SW 241 ° 0 min 0,000 mm 0,0 UV-I 0 W/m² 1,7 °C 0,6 °C 16,1 km/h (3 Bft)
01.03.2019 18:11 3,2 °C 90 % 1015,2 hPa 0,0 mm 12,9 km/h (3 Bft) W 281 ° 0 min 0,000 mm 0,0 UV-I 0 W/m² 1,7 °C -0,1 °C 16,1 km/h (3 Bft)
01.03.2019 18:12 3,2 °C 90 % 1015,3 hPa 0,0 mm 13,5 km/h (3 Bft) W 271 ° 0 min 0,000 mm 0,0 UV-I 0 W/m² 1,7 °C -0,2 °C 22,5 km/h (4 Bft)
01.03.2019 18:13 3,2 °C 90 % 1015,2 hPa 0,0 mm 11,3 km/h (2 Bft) W 269 ° 0 min 0,000 mm 0,0 UV-I 0 W/m² 1,7 °C 0,2 °C 20,9 km/h (4 Bft)
01.03.2019 18:14 3,2 °C 90 % 1015,3 hPa 0,0 mm 15,5 km/h (3 Bft) W 271 ° 0 min 0,000 mm 0,0 UV-I 0 W/m² 1,7 °C -0,6 °C 24,1 km/h (4 Bft)
01.03.2019 18:15 3,2 °C 90 % 1015,3 hPa 0,0 mm 14,6 km/h (3 Bft) W-SW 256 ° 0 min 0,000 mm 0,0 UV-I 0 W/m² 1,7 °C -0,4 °C 22,5 km/h (4 Bft)
01.03.2019 18:16 3,2 °C 90 % 1015,3 hPa 0,0 mm 18,4 km/h (3 Bft) W 267 ° 0 min 0,000 mm 0,0 UV-I 0 W/m² 1,7 °C -1,0 °C 25,7 km/h (4 Bft)
01.03.2019 18:17 3,2 °C 90 % 1015,4 hPa 0,0 mm 12,4 km/h (3 Bft) SW 234 ° 0 min 0,000 mm 0,0 UV-I 0 W/m² 1,7 °C -0,0 °C 17,7 km/h (3 Bft)
01.03.2019 18:18 3,2 °C 90 % 1015,3 hPa 0,0 mm 13,0 km/h (3 Bft) W 265 ° 0 min 0,000 mm 0,0 UV-I 0 W/m² 1,7 °C -0,1 °C 17,7 km/h (3 Bft)
01.03.2019 18:19 3,2 °C 90 % 1015,3 hPa 0,0 mm 14,2 km/h (3 Bft) W 259 ° 0 min 0,000 mm 0,0 UV-I 0 W/m² 1,7 °C -0,3 °C 19,3 km/h (3 Bft)
01.03.2019 18:20 3,2 °C 90 % 1015,3 hPa 0,0 mm 13,5 km/h (3 Bft) W 279 ° 0 min 0,000 mm 0,0 UV-I 0 W/m² 1,7 °C -0,2 °C 19,3 km/h (3 Bft)
01.03.2019 18:21 3,2 °C 90 % 1015,4 hPa 0,0 mm 10,8 km/h (2 Bft) W-SW 246 ° 0 min 0,000 mm 0,0 UV-I 0 W/m² 1,7 °C 0,3 °C 16,1 km/h (3 Bft)
01.03.2019 18:22 3,2 °C 90 % 1015,4 hPa 0,0 mm 8,9 km/h (2 Bft) W 265 ° 0 min 0,000 mm 0,0 UV-I 0 W/m² 1,7 °C 0,8 °C 12,9 km/h (3 Bft)
01.03.2019 18:23 3,2 °C 90 % 1015,4 hPa 0,0 mm 9,8 km/h (2 Bft) W-SW 257 ° 0 min 0,000 mm 0,0 UV-I 0 W/m² 1,7 °C 0,6 °C 16,1 km/h (3 Bft)
01.03.2019 18:24 3,2 °C 90 % 1015,4 hPa 0,0 mm 11,7 km/h (2 Bft) W 271 ° 0 min 0,000 mm 0,0 UV-I 0 W/m² 1,7 °C 0,1 °C 14,5 km/h (3 Bft)
01.03.2019 18:25 3,2 °C 90 % 1015,4 hPa 0,0 mm 9,3 km/h (2 Bft) W 259 ° 0 min 0,000 mm 0,0 UV-I 0 W/m² 1,7 °C 0,7 °C 17,7 km/h (3 Bft)
01.03.2019 18:26 3,2 °C 90 % 1015,4 hPa 0,0 mm 16,3 km/h (3 Bft) W 270 ° 0 min 0,000 mm 0,0 UV-I 0 W/m² 1,7 °C -0,7 °C 20,9 km/h (4 Bft)
01.03.2019 18:27 3,2 °C 90 % 1015,4 hPa 0,0 mm 9,5 km/h (2 Bft) SW 233 ° 0 min 0,000 mm 0,0 UV-I 0 W/m² 1,7 °C 0,6 °C 14,5 km/h (3 Bft)
01.03.2019 18:28 3,2 °C 90 % 1015,4 hPa 0,0 mm 12,2 km/h (2 Bft) SW 221 ° 0 min 0,000 mm 0,0 UV-I 0 W/m² 1,7 °C 0,0 °C 17,7 km/h (3 Bft)
01.03.2019 18:29 3,2 °C 90 % 1015,4 hPa 0,0 mm 11,1 km/h (2 Bft) W-SW 245 ° 0 min 0,000 mm 0,0 UV-I 0 W/m² 1,7 °C 0,3 °C 16,1 km/h (3 Bft)
01.03.2019 18:30 3,2 °C 90 % 1015,4 hPa 0,0 mm 6,9 km/h (2 Bft) W 275 ° 0 min 0,000 mm 0,0 UV-I 0 W/m² 1,7 °C 1,3 °C 11,3 km/h (2 Bft)
01.03.2019 18:31 3,2 °C 90 % 1015,5 hPa 0,0 mm 12,9 km/h (3 Bft) W 267 ° 0 min 0,000 mm 0,0 UV-I 0 W/m² 1,7 °C -0,1 °C 20,9 km/h (4 Bft)
01.03.2019 18:32 3,2 °C 90 % 1015,5 hPa 0,0 mm 11,6 km/h (2 Bft) W-SW 250 ° 0 min 0,000 mm 0,0 UV-I 0 W/m² 1,7 °C 0,2 °C 19,3 km/h (3 Bft)
01.03.2019 18:33 3,2 °C 90 % 1015,5 hPa 0,0 mm 9,1 km/h (2 Bft) W 272 ° 0 min 0,000 mm 0,0 UV-I 0 W/m² 1,7 °C 0,7 °C 16,1 km/h (3 Bft)
01.03.2019 18:34 3,2 °C 90 % 1015,5 hPa 0,0 mm 11,3 km/h (2 Bft) W 272 ° 0 min 0,000 mm 0,0 UV-I 0 W/m² 1,7 °C 0,2 °C 14,5 km/h (3 Bft)
01.03.2019 18:35 3,2 °C 90 % 1015,5 hPa 0,0 mm 9,2 km/h (2 Bft) W 261 ° 0 min 0,000 mm 0,0 UV-I 0 W/m² 1,7 °C 0,7 °C 16,1 km/h (3 Bft)
01.03.2019 18:36 3,2 °C 90 % 1015,5 hPa 0,0 mm 11,4 km/h (2 Bft) W 269 ° 0 min 0,000 mm 0,0 UV-I 0 W/m² 1,7 °C 0,2 °C 16,1 km/h (3 Bft)
01.03.2019 18:37 3,2 °C 90 % 1015,5 hPa 0,0 mm 10,2 km/h (2 Bft) W-SW 241 ° 0 min 0,000 mm 0,0 UV-I 0 W/m² 1,7 °C 0,5 °C 17,7 km/h (3 Bft)
01.03.2019 18:38 3,2 °C 90 % 1015,6 hPa 0,0 mm 11,4 km/h (2 Bft) W 261 ° 0 min 0,000 mm 0,0 UV-I 0 W/m² 1,7 °C 0,2 °C 16,1 km/h (3 Bft)
01.03.2019 18:39 3,2 °C 90 % 1015,6 hPa 0,0 mm 8,0 km/h (2 Bft) W-SW 250 ° 0 min 0,000 mm 0,0 UV-I 0 W/m² 1,7 °C 1,0 °C 12,9 km/h (3 Bft)
01.03.2019 18:40 3,2 °C 90 % 1015,7 hPa 0,0 mm 13,2 km/h (3 Bft) W 261 ° 0 min 0,000 mm 0,0 UV-I 0 W/m² 1,7 °C -0,2 °C 19,3 km/h (3 Bft)
01.03.2019 18:41 3,2 °C 90 % 1015,6 hPa 0,0 mm 10,7 km/h (2 Bft) W 264 ° 0 min 0,000 mm 0,0 UV-I 0 W/m² 1,7 °C 0,3 °C 14,5 km/h (3 Bft)
01.03.2019 18:42 3,2 °C 90 % 1015,6 hPa 0,0 mm 11,8 km/h (2 Bft) W 269 ° 0 min 0,000 mm 0,0 UV-I 0 W/m² 1,7 °C 0,1 °C 17,7 km/h (3 Bft)
01.03.2019 18:43 3,2 °C 90 % 1015,7 hPa 0,0 mm 8,6 km/h (2 Bft) W 280 ° 0 min 0,000 mm 0,0 UV-I 0 W/m² 1,7 °C 0,9 °C 12,9 km/h (3 Bft)
01.03.2019 18:44 3,2 °C 90 % 1015,7 hPa 0,0 mm 8,2 km/h (2 Bft) W-NW 296 ° 0 min 0,000 mm 0,0 UV-I 0 W/m² 1,7 °C 1,0 °C 12,9 km/h (3 Bft)
01.03.2019 18:45 3,2 °C 90 % 1015,7 hPa 0,0 mm 10,0 km/h (2 Bft) W 264 ° 0 min 0,000 mm 0,0 UV-I 0 W/m² 1,7 °C 0,5 °C 17,7 km/h (3 Bft)
01.03.2019 18:46 3,2 °C 90 % 1015,7 hPa 0,0 mm 6,9 km/h (2 Bft) W-SW 252 ° 0 min 0,000 mm 0,0 UV-I 0 W/m² 1,7 °C 1,3 °C 11,3 km/h (2 Bft)
01.03.2019 18:47 3,2 °C 90 % 1015,7 hPa 0,0 mm 7,2 km/h (2 Bft) W 263 ° 0 min 0,000 mm 0,0 UV-I 0 W/m² 1,7 °C 1,3 °C 9,7 km/h (2 Bft)
01.03.2019 18:48 3,1 °C 90 % 1015,7 hPa 0,0 mm 10,9 km/h (2 Bft) W 272 ° 0 min 0,000 mm 0,0 UV-I 0 W/m² 1,6 °C 0,2 °C 14,5 km/h (3 Bft)
01.03.2019 18:49 3,2 °C 90 % 1015,7 hPa 0,0 mm 9,3 km/h (2 Bft) W 259 ° 0 min 0,000 mm 0,0 UV-I 0 W/m² 1,7 °C 0,7 °C 16,1 km/h (3 Bft)
01.03.2019 18:50 3,1 °C 90 % 1015,7 hPa 0,0 mm 10,9 km/h (2 Bft) W 262 ° 0 min 0,000 mm 0,0 UV-I 0 W/m² 1,6 °C 0,2 °C 17,7 km/h (3 Bft)
01.03.2019 18:51 3,1 °C 90 % 1015,8 hPa 0,0 mm 9,5 km/h (2 Bft) SW 236 ° 0 min 0,000 mm 0,0 UV-I 0 W/m² 1,6 °C 0,5 °C 17,7 km/h (3 Bft)
01.03.2019 18:52 3,1 °C 90 % 1015,7 hPa 0,0 mm 6,8 km/h (2 Bft) SW 227 ° 0 min 0,000 mm 0,0 UV-I 0 W/m² 1,6 °C 1,3 °C 12,9 km/h (3 Bft)
01.03.2019 18:53 3,1 °C 91 % 1015,7 hPa 0,0 mm 11,6 km/h (2 Bft) W-SW 255 ° 0 min 0,000 mm 0,0 UV-I 0 W/m² 1,8 °C 0,0 °C 16,1 km/h (3 Bft)
01.03.2019 18:54 3,2 °C 91 % 1015,7 hPa 0,0 mm 10,1 km/h (2 Bft) W 277 ° 0 min 0,000 mm 0,0 UV-I 0 W/m² 1,9 °C 0,5 °C 16,1 km/h (3 Bft)
01.03.2019 18:55 3,2 °C 91 % 1015,7 hPa 0,0 mm 11,1 km/h (2 Bft) W 273 ° 0 min 0,000 mm 0,0 UV-I 0 W/m² 1,9 °C 0,3 °C 14,5 km/h (3 Bft)
01.03.2019 18:56 3,2 °C 90 % 1015,7 hPa 0,0 mm 12,6 km/h (3 Bft) W-SW 247 ° 0 min 0,000 mm 0,0 UV-I 0 W/m² 1,7 °C -0,0 °C 16,1 km/h (3 Bft)
01.03.2019 18:57 3,1 °C 90 % 1015,7 hPa 0,0 mm 8,4 km/h (2 Bft) W-SW 254 ° 0 min 0,000 mm 0,0 UV-I 0 W/m² 1,6 °C 0,8 °C 12,9 km/h (3 Bft)
01.03.2019 18:58 3,2 °C 90 % 1015,7 hPa 0,0 mm 6,2 km/h (2 Bft) W-SW 255 ° 0 min 0,000 mm 0,0 UV-I 0 W/m² 1,7 °C 1,6 °C 9,7 km/h (2 Bft)
01.03.2019 18:59 3,2 °C 91 % 1015,7 hPa 0,0 mm 12,2 km/h (2 Bft) W 275 ° 0 min 0,000 mm 0,0 UV-I 0 W/m² 1,9 °C 0,0 °C 16,1 km/h (3 Bft)
01.03.2019 19:00 3,2 °C 91 % 1015,7 hPa 0,0 mm 10,0 km/h (2 Bft) SW 227 ° 0 min 0,000 mm 0,0 UV-I 0 W/m² 1,9 °C 0,5 °C 17,7 km/h (3 Bft)
01.03.2019 19:01 3,2 °C 90 % 1015,8 hPa 0,0 mm 8,0 km/h (2 Bft) W-NW 284 ° 0 min 0,000 mm 0,0 UV-I 0 W/m² 1,7 °C 1,0 °C 12,9 km/h (3 Bft)
01.03.2019 19:02 3,2 °C 90 % 1015,7 hPa 0,0 mm 10,3 km/h (2 Bft) W 261 ° 0 min 0,000 mm 0,0 UV-I 0 W/m² 1,7 °C 0,4 °C 12,9 km/h (3 Bft)
01.03.2019 19:03 3,2 °C 90 % 1015,8 hPa 0,0 mm 6,4 km/h (2 Bft) W-SW 250 ° 0 min 0,000 mm 0,0 UV-I 0 W/m² 1,7 °C 1,5 °C 14,5 km/h (3 Bft)
01.03.2019 19:04 3,2 °C 90 % 1015,8 hPa 0,0 mm 7,2 km/h (2 Bft) W-SW 254 ° 0 min 0,000 mm 0,0 UV-I 0 W/m² 1,7 °C 1,3 °C 12,9 km/h (3 Bft)
01.03.2019 19:05 3,2 °C 90 % 1015,8 hPa 0,0 mm 8,0 km/h (2 Bft) W 267 ° 0 min 0,000 mm 0,0 UV-I 0 W/m² 1,7 °C 1,0 °C 14,5 km/h (3 Bft)
01.03.2019 19:06 3,2 °C 90 % 1015,8 hPa 0,0 mm 6,8 km/h (2 Bft) W 262 ° 0 min 0,000 mm 0,0 UV-I 0 W/m² 1,7 °C 1,4 °C 12,9 km/h (3 Bft)
01.03.2019 19:07 3,2 °C 90 % 1015,9 hPa 0,0 mm 6,1 km/h (2 Bft) SW 227 ° 0 min 0,000 mm 0,0 UV-I 0 W/m² 1,7 °C 1,6 °C 12,9 km/h (3 Bft)
01.03.2019 19:08 3,2 °C 90 % 1015,9 hPa 0,2 mm 11,0 km/h (2 Bft) W 277 ° 0 min 0,000 mm 0,0 UV-I 0 W/m² 1,7 °C 0,3 °C 16,1 km/h (3 Bft)
01.03.2019 19:09 3,2 °C 90 % 1015,9 hPa 0,0 mm 8,7 km/h (2 Bft) W 264 ° 0 min 0,000 mm 0,0 UV-I 0 W/m² 1,7 °C 0,8 °C 14,5 km/h (3 Bft)
01.03.2019 19:10 3,2 °C 90 % 1015,9 hPa 0,0 mm 9,1 km/h (2 Bft) W 280 ° 0 min 0,000 mm 0,0 UV-I 0 W/m² 1,7 °C 0,7 °C 12,9 km/h (3 Bft)
01.03.2019 19:11 3,2 °C 90 % 1015,9 hPa 0,0 mm 6,4 km/h (2 Bft) SW 232 ° 0 min 0,000 mm 0,0 UV-I 0 W/m² 1,7 °C 1,5 °C 9,7 km/h (2 Bft)
01.03.2019 19:12 3,2 °C 90 % 1016,0 hPa 0,0 mm 8,5 km/h (2 Bft) W-SW 250 ° 0 min 0,000 mm 0,0 UV-I 0 W/m² 1,7 °C 0,9 °C 16,1 km/h (3 Bft)
01.03.2019 19:13 3,2 °C 90 % 1015,9 hPa 0,0 mm 11,2 km/h (2 Bft) W-SW 255 ° 0 min 0,000 mm 0,0 UV-I 0 W/m² 1,7 °C 0,2 °C 17,7 km/h (3 Bft)
01.03.2019 19:14 3,2 °C 91 % 1016,1 hPa 0,0 mm 7,4 km/h (2 Bft) W 267 ° 0 min 0,000 mm 0,0 UV-I 0 W/m² 1,9 °C 1,2 °C 12,9 km/h (3 Bft)
01.03.2019 19:15 3,2 °C 91 % 1016,0 hPa 0,0 mm 4,6 km/h (1 Bft) W 261 ° 0 min 0,000 mm 0,0 UV-I 0 W/m² 1,9 °C 2,2 °C 6,4 km/h (2 Bft)
01.03.2019 19:16 3,2 °C 91 % 1016,1 hPa 0,0 mm 9,3 km/h (2 Bft) SW 226 ° 0 min 0,000 mm 0,0 UV-I 0 W/m² 1,9 °C 0,7 °C 12,9 km/h (3 Bft)
01.03.2019 19:17 3,2 °C 91 % 1016,0 hPa 0,0 mm 11,5 km/h (2 Bft) W 268 ° 0 min 0,000 mm 0,0 UV-I 0 W/m² 1,9 °C 0,2 °C 17,7 km/h (3 Bft)
01.03.2019 19:18 3,2 °C 91 % 1016,0 hPa 0,0 mm 12,1 km/h (2 Bft) W 277 ° 0 min 0,000 mm 0,0 UV-I 0 W/m² 1,9 °C 0,1 °C 16,1 km/h (3 Bft)
01.03.2019 19:19 3,2 °C 91 % 1016,0 hPa 0,0 mm 8,3 km/h (2 Bft) W-SW 257 ° 0 min 0,000 mm 0,0 UV-I 0 W/m² 1,9 °C 0,9 °C 12,9 km/h (3 Bft)
01.03.2019 19:20 3,2 °C 91 % 1016,1 hPa 0,0 mm 8,9 km/h (2 Bft) W 269 ° 0 min 0,000 mm 0,0 UV-I 0 W/m² 1,9 °C 0,8 °C 19,3 km/h (3 Bft)
01.03.2019 19:21 3,3 °C 91 % 1016,1 hPa 0,0 mm 10,7 km/h (2 Bft) W-SW 237 ° 0 min 0,000 mm 0,0 UV-I 0 W/m² 2,0 °C 0,5 °C 19,3 km/h (3 Bft)
01.03.2019 19:22 3,2 °C 91 % 1016,1 hPa 0,0 mm 8,8 km/h (2 Bft) W 272 ° 0 min 0,000 mm 0,0 UV-I 0 W/m² 1,9 °C 0,8 °C 17,7 km/h (3 Bft)
01.03.2019 19:23 3,2 °C 91 % 1016,1 hPa 0,0 mm 10,4 km/h (2 Bft) W 277 ° 0 min 0,000 mm 0,0 UV-I 0 W/m² 1,9 °C 0,4 °C 16,1 km/h (3 Bft)
01.03.2019 19:24 3,2 °C 91 % 1016,1 hPa 0,0 mm 12,0 km/h (2 Bft) W 262 ° 0 min 0,000 mm 0,0 UV-I 0 W/m² 1,9 °C 0,1 °C 16,1 km/h (3 Bft)
01.03.2019 19:25 3,3 °C 91 % 1016,2 hPa 0,0 mm 10,9 km/h (2 Bft) W-SW 248 ° 0 min 0,000 mm 0,0 UV-I 0 W/m² 2,0 °C 0,4 °C 12,9 km/h (3 Bft)
01.03.2019 19:26 3,3 °C 91 % 1016,1 hPa 0,0 mm 10,2 km/h (2 Bft) W-SW 242 ° 0 min 0,000 mm 0,0 UV-I 0 W/m² 2,0 °C 0,6 °C 14,5 km/h (3 Bft)
01.03.2019 19:27 3,3 °C 91 % 1016,1 hPa 0,0 mm 12,9 km/h (3 Bft) W 263 ° 0 min 0,000 mm 0,0 UV-I 0 W/m² 2,0 °C 0,0 °C 20,9 km/h (4 Bft)
01.03.2019 19:28 3,3 °C 90 % 1016,2 hPa 0,0 mm 7,8 km/h (2 Bft) SW 236 ° 0 min 0,000 mm 0,0 UV-I 0 W/m² 1,8 °C 1,2 °C 11,3 km/h (2 Bft)
01.03.2019 19:29 3,3 °C 90 % 1016,2 hPa 0,0 mm 13,5 km/h (3 Bft) W 265 ° 0 min 0,000 mm 0,0 UV-I 0 W/m² 1,8 °C -0,1 °C 19,3 km/h (3 Bft)
01.03.2019 19:30 3,3 °C 90 % 1016,2 hPa 0,0 mm 8,6 km/h (2 Bft) W 263 ° 0 min 0,000 mm 0,0 UV-I 0 W/m² 1,8 °C 1,0 °C 12,9 km/h (3 Bft)
01.03.2019 19:31 3,3 °C 91 % 1016,2 hPa 0,0 mm 7,8 km/h (2 Bft) W 265 ° 0 min 0,000 mm 0,0 UV-I 0 W/m² 2,0 °C 1,2 °C 11,3 km/h (2 Bft)
01.03.2019 19:32 3,3 °C 90 % 1016,2 hPa 0,0 mm 12,3 km/h (3 Bft) W 262 ° 0 min 0,000 mm 0,0 UV-I 0 W/m² 1,8 °C 0,1 °C 17,7 km/h (3 Bft)
01.03.2019 19:33 3,3 °C 90 % 1016,2 hPa 0,0 mm 10,6 km/h (2 Bft) W 280 ° 0 min 0,000 mm 0,0 UV-I 0 W/m² 1,8 °C 0,5 °C 16,1 km/h (3 Bft)
01.03.2019 19:34 3,3 °C 90 % 1016,3 hPa 0,0 mm 13,3 km/h (3 Bft) W 263 ° 0 min 0,000 mm 0,0 UV-I 0 W/m² 1,8 °C -0,1 °C 16,1 km/h (3 Bft)
01.03.2019 19:35 3,3 °C 90 % 1016,3 hPa 0,0 mm 7,8 km/h (2 Bft) SW 228 ° 0 min 0,000 mm 0,0 UV-I 0 W/m² 1,8 °C 1,2 °C 12,9 km/h (3 Bft)
01.03.2019 19:36 3,3 °C 90 % 1016,3 hPa 0,0 mm 8,0 km/h (2 Bft) W-NW 286 ° 0 min 0,000 mm 0,0 UV-I 0 W/m² 1,8 °C 1,1 °C 14,5 km/h (3 Bft)
01.03.2019 19:37 3,3 °C 90 % 1016,2 hPa 0,0 mm 8,3 km/h (2 Bft) W 268 ° 0 min 0,000 mm 0,0 UV-I 0 W/m² 1,8 °C 1,1 °C 16,1 km/h (3 Bft)
01.03.2019 19:38 3,3 °C 90 % 1016,2 hPa 0,0 mm 9,9 km/h (2 Bft) W-SW 255 ° 0 min 0,000 mm 0,0 UV-I 0 W/m² 1,8 °C 0,7 °C 14,5 km/h (3 Bft)
01.03.2019 19:39 3,3 °C 90 % 1016,4 hPa 0,0 mm 10,1 km/h (2 Bft) W-SW 244 ° 0 min 0,000 mm 0,0 UV-I 0 W/m² 1,8 °C 0,6 °C 17,7 km/h (3 Bft)
01.03.2019 19:40 3,3 °C 90 % 1016,3 hPa 0,0 mm 10,9 km/h (2 Bft) W 270 ° 0 min 0,000 mm 0,0 UV-I 0 W/m² 1,8 °C 0,4 °C 17,7 km/h (3 Bft)
01.03.2019 19:41 3,3 °C 90 % 1016,3 hPa 0,0 mm 13,8 km/h (3 Bft) W 266 ° 0 min 0,000 mm 0,0 UV-I 0 W/m² 1,8 °C -0,1 °C 20,9 km/h (4 Bft)
01.03.2019 19:42 3,3 °C 90 % 1016,4 hPa 0,0 mm 13,9 km/h (3 Bft) W-SW 242 ° 0 min 0,000 mm 0,0 UV-I 0 W/m² 1,8 °C -0,2 °C 19,3 km/h (3 Bft)
01.03.2019 19:43 3,3 °C 91 % 1016,4 hPa 0,0 mm 10,9 km/h (2 Bft) W-SW 254 ° 0 min 0,000 mm 0,0 UV-I 0 W/m² 2,0 °C 0,4 °C 17,7 km/h (3 Bft)
01.03.2019 19:44 3,3 °C 90 % 1016,3 hPa 0,0 mm 13,1 km/h (3 Bft) SW 233 ° 0 min 0,000 mm 0,0 UV-I 0 W/m² 1,8 °C -0,0 °C 17,7 km/h (3 Bft)
01.03.2019 19:45 3,3 °C 90 % 1016,4 hPa 0,0 mm 16,0 km/h (3 Bft) W-SW 257 ° 0 min 0,000 mm 0,0 UV-I 0 W/m² 1,8 °C -0,5 °C 20,9 km/h (4 Bft)
01.03.2019 19:46 3,3 °C 90 % 1016,4 hPa 0,0 mm 15,2 km/h (3 Bft) W 265 ° 0 min 0,000 mm 0,0 UV-I 0 W/m² 1,8 °C -0,4 °C 27,4 km/h (4 Bft)
01.03.2019 19:47 3,3 °C 90 % 1016,4 hPa 0,0 mm 10,1 km/h (2 Bft) W 266 ° 0 min 0,000 mm 0,0 UV-I 0 W/m² 1,8 °C 0,6 °C 12,9 km/h (3 Bft)
01.03.2019 19:48 3,3 °C 90 % 1016,4 hPa 0,0 mm 10,0 km/h (2 Bft) W-SW 253 ° 0 min 0,000 mm 0,0 UV-I 0 W/m² 1,8 °C 0,6 °C 16,1 km/h (3 Bft)
01.03.2019 19:49 3,3 °C 90 % 1016,4 hPa 0,0 mm 13,6 km/h (3 Bft) W-NW 289 ° 0 min 0,000 mm 0,0 UV-I 0 W/m² 1,8 °C -0,1 °C 19,3 km/h (3 Bft)
01.03.2019 19:50 3,3 °C 90 % 1016,4 hPa 0,0 mm 15,3 km/h (3 Bft) W 271 ° 0 min 0,000 mm 0,0 UV-I 0 W/m² 1,8 °C -0,4 °C 19,3 km/h (3 Bft)
01.03.2019 19:51 3,3 °C 90 % 1016,5 hPa 0,0 mm 9,1 km/h (2 Bft) W-SW 248 ° 0 min 0,000 mm 0,0 UV-I 0 W/m² 1,8 °C 0,8 °C 16,1 km/h (3 Bft)
01.03.2019 19:52 3,3 °C 91 % 1016,5 hPa 0,0 mm 14,3 km/h (3 Bft) W-SW 258 ° 0 min 0,000 mm 0,0 UV-I 0 W/m² 2,0 °C -0,2 °C 25,7 km/h (4 Bft)
01.03.2019 19:53 3,3 °C 91 % 1016,5 hPa 0,0 mm 16,7 km/h (3 Bft) W 273 ° 0 min 0,000 mm 0,0 UV-I 0 W/m² 2,0 °C -0,6 °C 25,7 km/h (4 Bft)
01.03.2019 19:54 3,3 °C 91 % 1016,4 hPa 0,0 mm 12,5 km/h (3 Bft) W-NW 297 ° 0 min 0,000 mm 0,0 UV-I 0 W/m² 2,0 °C 0,1 °C 16,1 km/h (3 Bft)
01.03.2019 19:55 3,3 °C 91 % 1016,5 hPa 0,2 mm 8,4 km/h (2 Bft) W 281 ° 0 min 0,000 mm 0,0 UV-I 0 W/m² 2,0 °C 1,0 °C 17,7 km/h (3 Bft)
01.03.2019 19:56 3,3 °C 91 % 1016,5 hPa 0,0 mm 6,7 km/h (2 Bft) W 279 ° 0 min 0,000 mm 0,0 UV-I 0 W/m² 2,0 °C 1,5 °C 14,5 km/h (3 Bft)
01.03.2019 19:57 3,2 °C 91 % 1016,5 hPa 0,0 mm 12,2 km/h (2 Bft) W-SW 254 ° 0 min 0,000 mm 0,0 UV-I 0 W/m² 1,9 °C 0,0 °C 16,1 km/h (3 Bft)
01.03.2019 19:58 3,3 °C 91 % 1016,5 hPa 0,0 mm 9,8 km/h (2 Bft) W-NW 288 ° 0 min 0,000 mm 0,0 UV-I 0 W/m² 2,0 °C 0,7 °C 16,1 km/h (3 Bft)
01.03.2019 19:59 3,2 °C 91 % 1016,5 hPa 0,0 mm 14,6 km/h (3 Bft) W 269 ° 0 min 0,000 mm 0,0 UV-I 0 W/m² 1,9 °C -0,4 °C 19,3 km/h (3 Bft)
01.03.2019 20:00 3,2 °C 91 % 1016,6 hPa 0,0 mm 14,3 km/h (3 Bft) W 267 ° 0 min 0,000 mm 0,0 UV-I 0 W/m² 1,9 °C -0,4 °C 20,9 km/h (4 Bft)
01.03.2019 20:01 3,2 °C 91 % 1016,6 hPa 0,0 mm 10,3 km/h (2 Bft) W 270 ° 0 min 0,000 mm 0,0 UV-I 0 W/m² 1,9 °C 0,4 °C 12,9 km/h (3 Bft)
01.03.2019 20:02 3,3 °C 91 % 1016,6 hPa 0,0 mm 13,9 km/h (3 Bft) W 277 ° 0 min 0,000 mm 0,0 UV-I 0 W/m² 2,0 °C -0,2 °C 20,9 km/h (4 Bft)
01.03.2019 20:03 3,3 °C 91 % 1016,7 hPa 0,0 mm 10,9 km/h (2 Bft) W 261 ° 0 min 0,000 mm 0,0 UV-I 0 W/m² 2,0 °C 0,4 °C 16,1 km/h (3 Bft)
01.03.2019 20:04 3,3 °C 91 % 1016,7 hPa 0,0 mm 12,9 km/h (3 Bft) W 266 ° 0 min 0,000 mm 0,0 UV-I 0 W/m² 2,0 °C 0,0 °C 19,3 km/h (3 Bft)
01.03.2019 20:05 3,2 °C 91 % 1016,7 hPa 0,0 mm 13,3 km/h (3 Bft) W 263 ° 0 min 0,000 mm 0,0 UV-I 0 W/m² 1,9 °C -0,2 °C 17,7 km/h (3 Bft)
01.03.2019 20:06 3,2 °C 91 % 1016,7 hPa 0,0 mm 14,6 km/h (3 Bft) W 262 ° 0 min 0,000 mm 0,0 UV-I 0 W/m² 1,9 °C -0,4 °C 19,3 km/h (3 Bft)
01.03.2019 20:07 3,2 °C 91 % 1016,8 hPa 0,0 mm 12,3 km/h (3 Bft) W-SW 257 ° 0 min 0,000 mm 0,0 UV-I 0 W/m² 1,9 °C 0,0 °C 19,3 km/h (3 Bft)
01.03.2019 20:08 3,2 °C 91 % 1016,7 hPa 0,0 mm 14,2 km/h (3 Bft) W-NW 286 ° 0 min 0,000 mm 0,0 UV-I 0 W/m² 1,9 °C -0,3 °C 17,7 km/h (3 Bft)
01.03.2019 20:09 3,2 °C 91 % 1016,8 hPa 0,0 mm 13,5 km/h (3 Bft) W-SW 247 ° 0 min 0,000 mm 0,0 UV-I 0 W/m² 1,9 °C -0,2 °C 19,3 km/h (3 Bft)
01.03.2019 20:10 3,2 °C 91 % 1016,7 hPa 0,0 mm 10,4 km/h (2 Bft) W-SW 248 ° 0 min 0,000 mm 0,0 UV-I 0 W/m² 1,9 °C 0,4 °C 17,7 km/h (3 Bft)
01.03.2019 20:11 3,2 °C 91 % 1016,8 hPa 0,0 mm 12,2 km/h (2 Bft) W-NW 294 ° 0 min 0,000 mm 0,0 UV-I 0 W/m² 1,9 °C 0,0 °C 17,7 km/h (3 Bft)
01.03.2019 20:12 3,2 °C 91 % 1016,8 hPa 0,0 mm 15,6 km/h (3 Bft) SW 225 ° 0 min 0,000 mm 0,0 UV-I 0 W/m² 1,9 °C -0,6 °C 19,3 km/h (3 Bft)
01.03.2019 20:13 3,2 °C 91 % 1016,8 hPa 0,0 mm 15,6 km/h (3 Bft) W 266 ° 0 min 0,000 mm 0,0 UV-I 0 W/m² 1,9 °C -0,6 °C 19,3 km/h (3 Bft)
01.03.2019 20:14 3,2 °C 91 % 1016,8 hPa 0,0 mm 15,7 km/h (3 Bft) W 261 ° 0 min 0,000 mm 0,0 UV-I 0 W/m² 1,9 °C -0,6 °C 22,5 km/h (4 Bft)
01.03.2019 20:15 3,2 °C 91 % 1016,8 hPa 0,0 mm 14,1 km/h (3 Bft) W 267 ° 0 min 0,000 mm 0,0 UV-I 0 W/m² 1,9 °C -0,3 °C 17,7 km/h (3 Bft)
01.03.2019 20:16 3,2 °C 91 % 1016,8 hPa 0,0 mm 17,0 km/h (3 Bft) W 261 ° 0 min 0,000 mm 0,0 UV-I 0 W/m² 1,9 °C -0,8 °C 20,9 km/h (4 Bft)
01.03.2019 20:17 3,2 °C 91 % 1016,9 hPa 0,0 mm 7,7 km/h (2 Bft) W 269 ° 0 min 0,000 mm 0,0 UV-I 0 W/m² 1,9 °C 1,1 °C 14,5 km/h (3 Bft)
01.03.2019 20:18 3,2 °C 91 % 1016,9 hPa 0,0 mm 14,8 km/h (3 Bft) W 261 ° 0 min 0,000 mm 0,0 UV-I 0 W/m² 1,9 °C -0,4 °C 30,6 km/h (5 Bft)
01.03.2019 20:19 3,2 °C 91 % 1016,9 hPa 0,0 mm 17,7 km/h (3 Bft) W 269 ° 0 min 0,000 mm 0,0 UV-I 0 W/m² 1,9 °C -0,9 °C 24,1 km/h (4 Bft)
01.03.2019 20:20 3,2 °C 91 % 1016,9 hPa 0,0 mm 12,7 km/h (3 Bft) W 265 ° 0 min 0,000 mm 0,0 UV-I 0 W/m² 1,9 °C -0,1 °C 19,3 km/h (3 Bft)
01.03.2019 20:21 3,2 °C 91 % 1016,9 hPa 0,0 mm 10,8 km/h (2 Bft) W 265 ° 0 min 0,000 mm 0,0 UV-I 0 W/m² 1,9 °C 0,3 °C 19,3 km/h (3 Bft)
01.03.2019 20:22 3,2 °C 91 % 1016,9 hPa 0,0 mm 14,8 km/h (3 Bft) W 268 ° 0 min 0,000 mm 0,0 UV-I 0 W/m² 1,9 °C -0,4 °C 19,3 km/h (3 Bft)
01.03.2019 20:23 3,2 °C 91 % 1016,9 hPa 0,0 mm 12,9 km/h (3 Bft) W 259 ° 0 min 0,000 mm 0,0 UV-I 0 W/m² 1,9 °C -0,1 °C 20,9 km/h (4 Bft)
01.03.2019 20:24 3,2 °C 91 % 1016,9 hPa 0,0 mm 8,3 km/h (2 Bft) W-SW 253 ° 0 min 0,000 mm 0,0 UV-I 0 W/m² 1,9 °C 0,9 °C 11,3 km/h (2 Bft)
01.03.2019 20:25 3,2 °C 91 % 1016,9 hPa 0,0 mm 9,5 km/h (2 Bft) W-SW 244 ° 0 min 0,000 mm 0,0 UV-I 0 W/m² 1,9 °C 0,6 °C 14,5 km/h (3 Bft)
01.03.2019 20:26 3,2 °C 91 % 1016,9 hPa 0,2 mm 9,1 km/h (2 Bft) W 266 ° 0 min 0,000 mm 0,0 UV-I 0 W/m² 1,9 °C 0,7 °C 16,1 km/h (3 Bft)
01.03.2019 20:27 3,2 °C 91 % 1016,9 hPa 0,0 mm 12,5 km/h (3 Bft) W-SW 244 ° 0 min 0,000 mm 0,0 UV-I 0 W/m² 1,9 °C -0,0 °C 14,5 km/h (3 Bft)
01.03.2019 20:28 3,2 °C 91 % 1016,9 hPa 0,0 mm 11,6 km/h (2 Bft) W 262 ° 0 min 0,000 mm 0,0 UV-I 0 W/m² 1,9 °C 0,2 °C 17,7 km/h (3 Bft)
01.03.2019 20:29 3,2 °C 91 % 1016,9 hPa 0,0 mm 10,4 km/h (2 Bft) W-NW 286 ° 0 min 0,000 mm 0,0 UV-I 0 W/m² 1,9 °C 0,4 °C 16,1 km/h (3 Bft)
01.03.2019 20:30 3,2 °C 91 % 1016,9 hPa 0,0 mm 8,6 km/h (2 Bft) W 262 ° 0 min 0,000 mm 0,0 UV-I 0 W/m² 1,9 °C 0,9 °C 11,3 km/h (2 Bft)
01.03.2019 20:31 3,2 °C 91 % 1016,9 hPa 0,0 mm 10,8 km/h (2 Bft) W 261 ° 0 min 0,000 mm 0,0 UV-I 0 W/m² 1,9 °C 0,3 °C 14,5 km/h (3 Bft)
01.03.2019 20:32 3,2 °C 91 % 1017,0 hPa 0,0 mm 13,4 km/h (3 Bft) W-SW 244 ° 0 min 0,000 mm 0,0 UV-I 0 W/m² 1,9 °C -0,2 °C 17,7 km/h (3 Bft)
01.03.2019 20:33 3,2 °C 91 % 1016,9 hPa 0,0 mm 14,4 km/h (3 Bft) W 277 ° 0 min 0,000 mm 0,0 UV-I 0 W/m² 1,9 °C -0,4 °C 19,3 km/h (3 Bft)
01.03.2019 20:34 3,2 °C 91 % 1017,0 hPa 0,0 mm 8,7 km/h (2 Bft) W 272 ° 0 min 0,000 mm 0,0 UV-I 0 W/m² 1,9 °C 0,8 °C 12,9 km/h (3 Bft)
01.03.2019 20:35 3,2 °C 91 % 1017,0 hPa 0,0 mm 9,1 km/h (2 Bft) W 275 ° 0 min 0,000 mm 0,0 UV-I 0 W/m² 1,9 °C 0,7 °C 14,5 km/h (3 Bft)
01.03.2019 20:36 3,2 °C 91 % 1017,0 hPa 0,0 mm 9,9 km/h (2 Bft) SW 234 ° 0 min 0,000 mm 0,0 UV-I 0 W/m² 1,9 °C 0,5 °C 20,9 km/h (4 Bft)
01.03.2019 20:37 3,2 °C 91 % 1017,0 hPa 0,0 mm 12,6 km/h (3 Bft) W-SW 257 ° 0 min 0,000 mm 0,0 UV-I 0 W/m² 1,9 °C -0,0 °C 19,3 km/h (3 Bft)
01.03.2019 20:38 3,2 °C 91 % 1017,0 hPa 0,0 mm 14,6 km/h (3 Bft) NW 321 ° 0 min 0,000 mm 0,0 UV-I 0 W/m² 1,9 °C -0,4 °C 19,3 km/h (3 Bft)
01.03.2019 20:39 3,2 °C 91 % 1017,1 hPa 0,0 mm 13,5 km/h (3 Bft) W 274 ° 0 min 0,000 mm 0,0 UV-I 0 W/m² 1,9 °C -0,2 °C 19,3 km/h (3 Bft)
01.03.2019 20:40 3,2 °C 91 % 1017,1 hPa 0,0 mm 10,3 km/h (2 Bft) W 263 ° 0 min 0,000 mm 0,0 UV-I 0 W/m² 1,9 °C 0,4 °C 12,9 km/h (3 Bft)
01.03.2019 20:41 3,2 °C 91 % 1017,1 hPa 0,0 mm 8,8 km/h (2 Bft) W 275 ° 0 min 0,000 mm 0,0 UV-I 0 W/m² 1,9 °C 0,8 °C 12,9 km/h (3 Bft)
01.03.2019 20:42 3,2 °C 91 % 1017,1 hPa 0,0 mm 7,8 km/h (2 Bft) W-SW 257 ° 0 min 0,000 mm 0,0 UV-I 0 W/m² 1,9 °C 1,1 °C 16,1 km/h (3 Bft)
01.03.2019 20:43 3,2 °C 91 % 1017,2 hPa 0,0 mm 9,5 km/h (2 Bft) SW 232 ° 0 min 0,000 mm 0,0 UV-I 0 W/m² 1,9 °C 0,6 °C 16,1 km/h (3 Bft)
01.03.2019 20:44 3,2 °C 91 % 1017,2 hPa 0,0 mm 13,3 km/h (3 Bft) W-SW 255 ° 0 min 0,000 mm 0,0 UV-I 0 W/m² 1,9 °C -0,2 °C 22,5 km/h (4 Bft)
01.03.2019 20:45 3,3 °C 91 % 1017,2 hPa 0,0 mm 14,7 km/h (3 Bft) W 263 ° 0 min 0,000 mm 0,0 UV-I 0 W/m² 2,0 °C -0,3 °C 22,5 km/h (4 Bft)
01.03.2019 20:46 3,2 °C 91 % 1017,2 hPa 0,0 mm 14,1 km/h (3 Bft) W-SW 256 ° 0 min 0,000 mm 0,0 UV-I 0 W/m² 1,9 °C -0,3 °C 20,9 km/h (4 Bft)
01.03.2019 20:47 3,2 °C 91 % 1017,2 hPa 0,0 mm 15,5 km/h (3 Bft) W 262 ° 0 min 0,000 mm 0,0 UV-I 0 W/m² 1,9 °C -0,6 °C 19,3 km/h (3 Bft)
01.03.2019 20:48 3,3 °C 91 % 1017,2 hPa 0,0 mm 12,3 km/h (3 Bft) W 269 ° 0 min 0,000 mm 0,0 UV-I 0 W/m² 2,0 °C 0,1 °C 16,1 km/h (3 Bft)
01.03.2019 20:49 3,3 °C 91 % 1017,2 hPa 0,0 mm 12,7 km/h (3 Bft) W 259 ° 0 min 0,000 mm 0,0 UV-I 0 W/m² 2,0 °C 0,1 °C 20,9 km/h (4 Bft)
01.03.2019 20:50 3,3 °C 91 % 1017,2 hPa 0,0 mm 15,3 km/h (3 Bft) NW 311 ° 0 min 0,000 mm 0,0 UV-I 0 W/m² 2,0 °C -0,4 °C 20,9 km/h (4 Bft)
01.03.2019 20:51 3,2 °C 91 % 1017,3 hPa 0,0 mm 16,9 km/h (3 Bft) W-SW 255 ° 0 min 0,000 mm 0,0 UV-I 0 W/m² 1,9 °C -0,8 °C 30,6 km/h (5 Bft)
01.03.2019 20:52 3,3 °C 91 % 1017,2 hPa 0,0 mm 12,4 km/h (3 Bft) W 268 ° 0 min 0,000 mm 0,0 UV-I 0 W/m² 2,0 °C 0,1 °C 16,1 km/h (3 Bft)
01.03.2019 20:53 3,3 °C 91 % 1017,2 hPa 0,0 mm 7,3 km/h (2 Bft) W-NW 286 ° 0 min 0,000 mm 0,0 UV-I 0 W/m² 2,0 °C 1,3 °C 14,5 km/h (3 Bft)
01.03.2019 20:54 3,3 °C 91 % 1017,3 hPa 0,0 mm 5,6 km/h (1 Bft) W-SW 257 ° 0 min 0,000 mm 0,0 UV-I 0 W/m² 2,0 °C 1,9 °C 11,3 km/h (2 Bft)
01.03.2019 20:55 3,2 °C 91 % 1017,3 hPa 0,0 mm 12,0 km/h (2 Bft) W-NW 284 ° 0 min 0,000 mm 0,0 UV-I 0 W/m² 1,9 °C 0,1 °C 20,9 km/h (4 Bft)
01.03.2019 20:56 3,3 °C 91 % 1017,4 hPa 0,0 mm 11,5 km/h (2 Bft) W-NW 288 ° 0 min 0,000 mm 0,0 UV-I 0 W/m² 2,0 °C 0,3 °C 19,3 km/h (3 Bft)
01.03.2019 20:57 3,3 °C 91 % 1017,3 hPa 0,0 mm 11,4 km/h (2 Bft) W 277 ° 0 min 0,000 mm 0,0 UV-I 0 W/m² 2,0 °C 0,3 °C 12,9 km/h (3 Bft)
01.03.2019 20:58 3,2 °C 91 % 1017,4 hPa 0,0 mm 10,7 km/h (2 Bft) W 272 ° 0 min 0,000 mm 0,0 UV-I 0 W/m² 1,9 °C 0,3 °C 17,7 km/h (3 Bft)
01.03.2019 20:59 3,2 °C 91 % 1017,4 hPa 0,0 mm 13,4 km/h (3 Bft) W 265 ° 0 min 0,000 mm 0,0 UV-I 0 W/m² 1,9 °C -0,2 °C 17,7 km/h (3 Bft)
01.03.2019 21:00 3,3 °C 91 % 1017,4 hPa 0,0 mm 8,6 km/h (2 Bft) W-SW 245 ° 0 min 0,000 mm 0,0 UV-I 0 W/m² 2,0 °C 1,0 °C 12,9 km/h (3 Bft)
01.03.2019 21:01 3,3 °C 91 % 1017,4 hPa 0,0 mm 9,0 km/h (2 Bft) W 265 ° 0 min 0,000 mm 0,0 UV-I 0 W/m² 2,0 °C 0,9 °C 12,9 km/h (3 Bft)
01.03.2019 21:02 3,2 °C 90 % 1017,4 hPa 0,0 mm 12,4 km/h (3 Bft) W 279 ° 0 min 0,000 mm 0,0 UV-I 0 W/m² 1,7 °C -0,0 °C 17,7 km/h (3 Bft)
01.03.2019 21:03 3,3 °C 90 % 1017,4 hPa 0,0 mm 9,2 km/h (2 Bft) W-SW 252 ° 0 min 0,000 mm 0,0 UV-I 0 W/m² 1,8 °C 0,8 °C 14,5 km/h (3 Bft)
01.03.2019 21:04 3,3 °C 90 % 1017,5 hPa 0,0 mm 15,1 km/h (3 Bft) SW 227 ° 0 min 0,000 mm 0,0 UV-I 0 W/m² 1,8 °C -0,4 °C 24,1 km/h (4 Bft)
01.03.2019 21:05 3,2 °C 90 % 1017,4 hPa 0,0 mm 12,7 km/h (3 Bft) W 271 ° 0 min 0,000 mm 0,0 UV-I 0 W/m² 1,7 °C -0,1 °C 20,9 km/h (4 Bft)
01.03.2019 21:06 3,3 °C 90 % 1017,4 hPa 0,0 mm 11,7 km/h (2 Bft) W 271 ° 0 min 0,000 mm 0,0 UV-I 0 W/m² 1,8 °C 0,3 °C 14,5 km/h (3 Bft)
01.03.2019 21:07 3,3 °C 90 % 1017,4 hPa 0,0 mm 10,8 km/h (2 Bft) W-SW 255 ° 0 min 0,000 mm 0,0 UV-I 0 W/m² 1,8 °C 0,4 °C 14,5 km/h (3 Bft)
01.03.2019 21:08 3,2 °C 90 % 1017,4 hPa 0,0 mm 6,6 km/h (2 Bft) W 266 ° 0 min 0,000 mm 0,0 UV-I 0 W/m² 1,7 °C 1,4 °C 11,3 km/h (2 Bft)
01.03.2019 21:09 3,3 °C 90 % 1017,4 hPa 0,0 mm 13,8 km/h (3 Bft) W-SW 246 ° 0 min 0,000 mm 0,0 UV-I 0 W/m² 1,8 °C -0,1 °C 19,3 km/h (3 Bft)
01.03.2019 21:10 3,3 °C 90 % 1017,5 hPa 0,0 mm 6,5 km/h (2 Bft) W-SW 244 ° 0 min 0,000 mm 0,0 UV-I 0 W/m² 1,8 °C 1,6 °C 11,3 km/h (2 Bft)
01.03.2019 21:11 3,2 °C 90 % 1017,4 hPa 0,0 mm 11,0 km/h (2 Bft) W-NW 282 ° 0 min 0,000 mm 0,0 UV-I 0 W/m² 1,7 °C 0,3 °C 14,5 km/h (3 Bft)
01.03.2019 21:12 3,2 °C 90 % 1017,5 hPa 0,0 mm 14,3 km/h (3 Bft) W-SW 246 ° 0 min 0,000 mm 0,0 UV-I 0 W/m² 1,7 °C -0,4 °C 19,3 km/h (3 Bft)
01.03.2019 21:13 3,2 °C 90 % 1017,4 hPa 0,0 mm 9,4 km/h (2 Bft) W-SW 250 ° 0 min 0,000 mm 0,0 UV-I 0 W/m² 1,7 °C 0,7 °C 12,9 km/h (3 Bft)
01.03.2019 21:14 3,2 °C 90 % 1017,4 hPa 0,0 mm 16,4 km/h (3 Bft) W 270 ° 0 min 0,000 mm 0,0 UV-I 0 W/m² 1,7 °C -0,7 °C 22,5 km/h (4 Bft)
01.03.2019 21:15 3,2 °C 90 % 1017,4 hPa 0,0 mm 13,9 km/h (3 Bft) W-SW 244 ° 0 min 0,000 mm 0,0 UV-I 0 W/m² 1,7 °C -0,3 °C 19,3 km/h (3 Bft)
01.03.2019 21:16 3,2 °C 90 % 1017,4 hPa 0,0 mm 9,7 km/h (2 Bft) W-SW 252 ° 0 min 0,000 mm 0,0 UV-I 0 W/m² 1,7 °C 0,6 °C 14,5 km/h (3 Bft)
01.03.2019 21:17 3,2 °C 90 % 1017,5 hPa 0,0 mm 10,7 km/h (2 Bft) W-SW 246 ° 0 min 0,000 mm 0,0 UV-I 0 W/m² 1,7 °C 0,3 °C 17,7 km/h (3 Bft)
01.03.2019 21:18 3,2 °C 90 % 1017,4 hPa 0,0 mm 10,5 km/h (2 Bft) W-SW 252 ° 0 min 0,000 mm 0,0 UV-I 0 W/m² 1,7 °C 0,4 °C 14,5 km/h (3 Bft)
01.03.2019 21:19 3,2 °C 90 % 1017,4 hPa 0,0 mm 13,0 km/h (3 Bft) W-SW 257 ° 0 min 0,000 mm 0,0 UV-I 0 W/m² 1,7 °C -0,1 °C 19,3 km/h (3 Bft)
01.03.2019 21:20 3,2 °C 90 % 1017,5 hPa 0,0 mm 13,5 km/h (3 Bft) W 271 ° 0 min 0,000 mm 0,0 UV-I 0 W/m² 1,7 °C -0,2 °C 19,3 km/h (3 Bft)
01.03.2019 21:21 3,2 °C 90 % 1017,6 hPa 0,0 mm 11,3 km/h (2 Bft) W 259 ° 0 min 0,000 mm 0,0 UV-I 0 W/m² 1,7 °C 0,2 °C 16,1 km/h (3 Bft)
01.03.2019 21:22 3,2 °C 90 % 1017,6 hPa 0,0 mm 13,8 km/h (3 Bft) W-SW 250 ° 0 min 0,000 mm 0,0 UV-I 0 W/m² 1,7 °C -0,3 °C 17,7 km/h (3 Bft)
01.03.2019 21:23 3,2 °C 90 % 1017,6 hPa 0,0 mm 10,1 km/h (2 Bft) W-SW 252 ° 0 min 0,000 mm 0,0 UV-I 0 W/m² 1,7 °C 0,5 °C 12,9 km/h (3 Bft)
01.03.2019 21:24 3,2 °C 90 % 1017,6 hPa 0,0 mm 10,4 km/h (2 Bft) W 271 ° 0 min 0,000 mm 0,0 UV-I 0 W/m² 1,7 °C 0,4 °C 14,5 km/h (3 Bft)
01.03.2019 21:25 3,2 °C 90 % 1017,6 hPa 0,0 mm 12,8 km/h (3 Bft) W-SW 252 ° 0 min 0,000 mm 0,0 UV-I 0 W/m² 1,7 °C -0,1 °C 16,1 km/h (3 Bft)
01.03.2019 21:26 3,2 °C 90 % 1017,6 hPa 0,0 mm 10,3 km/h (2 Bft) W 267 ° 0 min 0,000 mm 0,0 UV-I 0 W/m² 1,7 °C 0,4 °C 16,1 km/h (3 Bft)
01.03.2019 21:27 3,2 °C 90 % 1017,6 hPa 0,0 mm 13,3 km/h (3 Bft) NW 311 ° 0 min 0,000 mm 0,0 UV-I 0 W/m² 1,7 °C -0,2 °C 20,9 km/h (4 Bft)
01.03.2019 21:28 3,2 °C 90 % 1017,6 hPa 0,0 mm 11,3 km/h (2 Bft) W-SW 255 ° 0 min 0,000 mm 0,0 UV-I 0 W/m² 1,7 °C 0,2 °C 16,1 km/h (3 Bft)
01.03.2019 21:29 3,3 °C 90 % 1017,6 hPa 0,0 mm 13,9 km/h (3 Bft) W 261 ° 0 min 0,000 mm 0,0 UV-I 0 W/m² 1,8 °C -0,2 °C 20,9 km/h (4 Bft)
01.03.2019 21:30 3,2 °C 90 % 1017,6 hPa 0,0 mm 12,5 km/h (3 Bft) W 275 ° 0 min 0,000 mm 0,0 UV-I 0 W/m² 1,7 °C -0,0 °C 17,7 km/h (3 Bft)
01.03.2019 21:31 3,2 °C 90 % 1017,6 hPa 0,0 mm 12,5 km/h (3 Bft) W-SW 250 ° 0 min 0,000 mm 0,0 UV-I 0 W/m² 1,7 °C -0,0 °C 16,1 km/h (3 Bft)
01.03.2019 21:32 3,2 °C 90 % 1017,6 hPa 0,0 mm 10,8 km/h (2 Bft) W 259 ° 0 min 0,000 mm 0,0 UV-I 0 W/m² 1,7 °C 0,3 °C 14,5 km/h (3 Bft)
01.03.2019 21:33 3,2 °C 90 % 1017,6 hPa 0,0 mm 10,9 km/h (2 Bft) W 277 ° 0 min 0,000 mm 0,0 UV-I 0 W/m² 1,7 °C 0,3 °C 16,1 km/h (3 Bft)
01.03.2019 21:34 3,2 °C 90 % 1017,7 hPa 0,0 mm 8,3 km/h (2 Bft) W-SW 246 ° 0 min 0,000 mm 0,0 UV-I 0 W/m² 1,7 °C 0,9 °C 11,3 km/h (2 Bft)
01.03.2019 21:35 3,2 °C 90 % 1017,7 hPa 0,0 mm 11,9 km/h (2 Bft) W 269 ° 0 min 0,000 mm 0,0 UV-I 0 W/m² 1,7 °C 0,1 °C 19,3 km/h (3 Bft)
01.03.2019 21:36 3,2 °C 90 % 1017,7 hPa 0,0 mm 8,7 km/h (2 Bft) W 266 ° 0 min 0,000 mm 0,0 UV-I 0 W/m² 1,7 °C 0,8 °C 12,9 km/h (3 Bft)
01.03.2019 21:37 3,2 °C 90 % 1017,7 hPa 0,0 mm 13,3 km/h (3 Bft) W-SW 247 ° 0 min 0,000 mm 0,0 UV-I 0 W/m² 1,7 °C -0,2 °C 19,3 km/h (3 Bft)
01.03.2019 21:38 3,2 °C 90 % 1017,7 hPa 0,0 mm 9,4 km/h (2 Bft) W 267 ° 0 min 0,000 mm 0,0 UV-I 0 W/m² 1,7 °C 0,7 °C 12,9 km/h (3 Bft)
01.03.2019 21:39 3,2 °C 90 % 1017,7 hPa 0,0 mm 16,0 km/h (3 Bft) W 269 ° 0 min 0,000 mm 0,0 UV-I 0 W/m² 1,7 °C -0,6 °C 24,1 km/h (4 Bft)
01.03.2019 21:40 3,2 °C 90 % 1017,7 hPa 0,0 mm 10,5 km/h (2 Bft) W-NW 286 ° 0 min 0,000 mm 0,0 UV-I 0 W/m² 1,7 °C 0,4 °C 16,1 km/h (3 Bft)
01.03.2019 21:41 3,2 °C 90 % 1017,7 hPa 0,0 mm 14,8 km/h (3 Bft) W 265 ° 0 min 0,000 mm 0,0 UV-I 0 W/m² 1,7 °C -0,4 °C 17,7 km/h (3 Bft)
01.03.2019 21:42 3,2 °C 90 % 1017,8 hPa 0,0 mm 11,8 km/h (2 Bft) W 267 ° 0 min 0,000 mm 0,0 UV-I 0 W/m² 1,7 °C 0,1 °C 16,1 km/h (3 Bft)
01.03.2019 21:43 3,2 °C 90 % 1017,8 hPa 0,0 mm 9,3 km/h (2 Bft) W 265 ° 0 min 0,000 mm 0,0 UV-I 0 W/m² 1,7 °C 0,7 °C 14,5 km/h (3 Bft)
01.03.2019 21:44 3,2 °C 90 % 1017,8 hPa 0,0 mm 14,1 km/h (3 Bft) W 264 ° 0 min 0,000 mm 0,0 UV-I 0 W/m² 1,7 °C -0,3 °C 19,3 km/h (3 Bft)
01.03.2019 21:45 3,2 °C 90 % 1017,8 hPa 0,0 mm 12,1 km/h (2 Bft) W 270 ° 0 min 0,000 mm 0,0 UV-I 0 W/m² 1,7 °C 0,1 °C 14,5 km/h (3 Bft)
01.03.2019 21:46 3,3 °C 90 % 1017,9 hPa 0,0 mm 12,5 km/h (3 Bft) W-SW 250 ° 0 min 0,000 mm 0,0 UV-I 0 W/m² 1,8 °C 0,1 °C 17,7 km/h (3 Bft)
01.03.2019 21:47 3,3 °C 90 % 1017,8 hPa 0,0 mm 15,9 km/h (3 Bft) W 263 ° 0 min 0,000 mm 0,0 UV-I 0 W/m² 1,8 °C -0,5 °C 22,5 km/h (4 Bft)
01.03.2019 21:48 3,3 °C 90 % 1017,9 hPa 0,0 mm 13,7 km/h (3 Bft) W 274 ° 0 min 0,000 mm 0,0 UV-I 0 W/m² 1,8 °C -0,1 °C 17,7 km/h (3 Bft)
01.03.2019 21:49 3,3 °C 90 % 1017,8 hPa 0,0 mm 15,2 km/h (3 Bft) W 261 ° 0 min 0,000 mm 0,0 UV-I 0 W/m² 1,8 °C -0,4 °C 20,9 km/h (4 Bft)
01.03.2019 21:50 3,3 °C 90 % 1017,8 hPa 0,0 mm 14,2 km/h (3 Bft) SW 227 ° 0 min 0,000 mm 0,0 UV-I 0 W/m² 1,8 °C -0,2 °C 24,1 km/h (4 Bft)
01.03.2019 21:51 3,3 °C 90 % 1017,9 hPa 0,0 mm 11,7 km/h (2 Bft) W-SW 258 ° 0 min 0,000 mm 0,0 UV-I 0 W/m² 1,8 °C 0,3 °C 20,9 km/h (4 Bft)
01.03.2019 21:52 3,3 °C 90 % 1017,9 hPa 0,0 mm 9,2 km/h (2 Bft) W-SW 248 ° 0 min 0,000 mm 0,0 UV-I 0 W/m² 1,8 °C 0,8 °C 12,9 km/h (3 Bft)
01.03.2019 21:53 3,3 °C 90 % 1017,9 hPa 0,0 mm 10,4 km/h (2 Bft) W 271 ° 0 min 0,000 mm 0,0 UV-I 0 W/m² 1,8 °C 0,5 °C 14,5 km/h (3 Bft)
01.03.2019 21:54 3,3 °C 90 % 1017,9 hPa 0,0 mm 9,9 km/h (2 Bft) W 259 ° 0 min 0,000 mm 0,0 UV-I 0 W/m² 1,8 °C 0,7 °C 14,5 km/h (3 Bft)
01.03.2019 21:55 3,3 °C 90 % 1017,8 hPa 0,0 mm 13,9 km/h (3 Bft) W 274 ° 0 min 0,000 mm 0,0 UV-I 0 W/m² 1,8 °C -0,2 °C 19,3 km/h (3 Bft)
01.03.2019 21:56 3,3 °C 90 % 1018,0 hPa 0,0 mm 13,7 km/h (3 Bft) W 273 ° 0 min 0,000 mm 0,0 UV-I 0 W/m² 1,8 °C -0,1 °C 24,1 km/h (4 Bft)
01.03.2019 21:57 3,3 °C 90 % 1017,9 hPa 0,0 mm 8,9 km/h (2 Bft) SW 235 ° 0 min 0,000 mm 0,0 UV-I 0 W/m² 1,8 °C 0,9 °C 14,5 km/h (3 Bft)
01.03.2019 21:58 3,3 °C 90 % 1017,9 hPa 0,0 mm 12,8 km/h (3 Bft) W 276 ° 0 min 0,000 mm 0,0 UV-I 0 W/m² 1,8 °C 0,0 °C 20,9 km/h (4 Bft)
01.03.2019 21:59 3,3 °C 90 % 1017,8 hPa 0,0 mm 10,0 km/h (2 Bft) W 262 ° 0 min 0,000 mm 0,0 UV-I 0 W/m² 1,8 °C 0,6 °C 19,3 km/h (3 Bft)
01.03.2019 22:00 3,3 °C 90 % 1017,9 hPa 0,0 mm 15,6 km/h (3 Bft) W 273 ° 0 min 0,000 mm 0,0 UV-I 0 W/m² 1,8 °C -0,4 °C 20,9 km/h (4 Bft)
01.03.2019 22:01 3,3 °C 90 % 1017,8 hPa 0,0 mm 13,1 km/h (3 Bft) W-SW 248 ° 0 min 0,000 mm 0,0 UV-I 0 W/m² 1,8 °C -0,0 °C 19,3 km/h (3 Bft)
01.03.2019 22:02 3,3 °C 90 % 1017,8 hPa 0,0 mm 9,4 km/h (2 Bft) W 263 ° 0 min 0,000 mm 0,0 UV-I 0 W/m² 1,8 °C 0,8 °C 16,1 km/h (3 Bft)
01.03.2019 22:03 3,3 °C 90 % 1017,9 hPa 0,0 mm 13,0 km/h (3 Bft) W 259 ° 0 min 0,000 mm 0,0 UV-I 0 W/m² 1,8 °C 0,0 °C 17,7 km/h (3 Bft)
01.03.2019 22:04 3,3 °C 90 % 1017,9 hPa 0,0 mm 12,6 km/h (3 Bft) W 263 ° 0 min 0,000 mm 0,0 UV-I 0 W/m² 1,8 °C 0,1 °C 19,3 km/h (3 Bft)
01.03.2019 22:05 3,3 °C 90 % 1017,9 hPa 0,0 mm 13,1 km/h (3 Bft) W 267 ° 0 min 0,000 mm 0,0 UV-I 0 W/m² 1,8 °C -0,0 °C 16,1 km/h (3 Bft)
01.03.2019 22:06 3,3 °C 90 % 1017,9 hPa 0,0 mm 10,7 km/h (2 Bft) W 259 ° 0 min 0,000 mm 0,0 UV-I 0 W/m² 1,8 °C 0,5 °C 16,1 km/h (3 Bft)
01.03.2019 22:07 3,3 °C 90 % 1018,0 hPa 0,0 mm 10,9 km/h (2 Bft) W 274 ° 0 min 0,000 mm 0,0 UV-I 0 W/m² 1,8 °C 0,4 °C 14,5 km/h (3 Bft)
01.03.2019 22:08 3,3 °C 90 % 1018,0 hPa 0,0 mm 15,8 km/h (3 Bft) SW 234 ° 0 min 0,000 mm 0,0 UV-I 0 W/m² 1,8 °C -0,5 °C 24,1 km/h (4 Bft)
01.03.2019 22:09 3,3 °C 90 % 1018,0 hPa 0,0 mm 11,7 km/h (2 Bft) W 262 ° 0 min 0,000 mm 0,0 UV-I 0 W/m² 1,8 °C 0,3 °C 16,1 km/h (3 Bft)
01.03.2019 22:10 3,3 °C 90 % 1018,0 hPa 0,0 mm 10,2 km/h (2 Bft) W 260 ° 0 min 0,000 mm 0,0 UV-I 0 W/m² 1,8 °C 0,6 °C 16,1 km/h (3 Bft)
01.03.2019 22:11 3,3 °C 90 % 1018,1 hPa 0,0 mm 11,9 km/h (2 Bft) W 263 ° 0 min 0,000 mm 0,0 UV-I 0 W/m² 1,8 °C 0,2 °C 16,1 km/h (3 Bft)
01.03.2019 22:12 3,3 °C 90 % 1018,0 hPa 0,0 mm 15,8 km/h (3 Bft) W 271 ° 0 min 0,000 mm 0,0 UV-I 0 W/m² 1,8 °C -0,5 °C 24,1 km/h (4 Bft)
01.03.2019 22:13 3,3 °C 90 % 1018,0 hPa 0,0 mm 14,8 km/h (3 Bft) SW 231 ° 0 min 0,000 mm 0,0 UV-I 0 W/m² 1,8 °C -0,3 °C 22,5 km/h (4 Bft)
01.03.2019 22:14 3,3 °C 90 % 1018,1 hPa 0,0 mm 12,5 km/h (3 Bft) W 264 ° 0 min 0,000 mm 0,0 UV-I 0 W/m² 1,8 °C 0,1 °C 22,5 km/h (4 Bft)
01.03.2019 22:15 3,3 °C 90 % 1018,1 hPa 0,0 mm 14,4 km/h (3 Bft) W 281 ° 0 min 0,000 mm 0,0 UV-I 0 W/m² 1,8 °C -0,2 °C 22,5 km/h (4 Bft)
01.03.2019 22:16 3,3 °C 90 % 1018,1 hPa 0,0 mm 11,2 km/h (2 Bft) W 266 ° 0 min 0,000 mm 0,0 UV-I 0 W/m² 1,8 °C 0,4 °C 12,9 km/h (3 Bft)
01.03.2019 22:17 3,3 °C 90 % 1018,1 hPa 0,0 mm 8,7 km/h (2 Bft) W 273 ° 0 min 0,000 mm 0,0 UV-I 0 W/m² 1,8 °C 0,9 °C 11,3 km/h (2 Bft)
01.03.2019 22:18 3,3 °C 90 % 1018,1 hPa 0,0 mm 10,6 km/h (2 Bft) W-SW 250 ° 0 min 0,000 mm 0,0 UV-I 0 W/m² 1,8 °C 0,5 °C 16,1 km/h (3 Bft)
01.03.2019 22:19 3,3 °C 90 % 1018,1 hPa 0,0 mm 8,3 km/h (2 Bft) W 262 ° 0 min 0,000 mm 0,0 UV-I 0 W/m² 1,8 °C 1,1 °C 12,9 km/h (3 Bft)
01.03.2019 22:20 3,3 °C 90 % 1018,2 hPa 0,0 mm 13,3 km/h (3 Bft) W-NW 284 ° 0 min 0,000 mm 0,0 UV-I 0 W/m² 1,8 °C -0,1 °C 22,5 km/h (4 Bft)
01.03.2019 22:21 3,3 °C 90 % 1018,2 hPa 0,0 mm 10,7 km/h (2 Bft) W 268 ° 0 min 0,000 mm 0,0 UV-I 0 W/m² 1,8 °C 0,5 °C 14,5 km/h (3 Bft)
01.03.2019 22:22 3,3 °C 90 % 1018,1 hPa 0,0 mm 9,9 km/h (2 Bft) W 263 ° 0 min 0,000 mm 0,0 UV-I 0 W/m² 1,8 °C 0,7 °C 12,9 km/h (3 Bft)
01.03.2019 22:23 3,3 °C 90 % 1018,2 hPa 0,0 mm 8,9 km/h (2 Bft) W 271 ° 0 min 0,000 mm 0,0 UV-I 0 W/m² 1,8 °C 0,9 °C 12,9 km/h (3 Bft)
01.03.2019 22:24 3,3 °C 90 % 1018,2 hPa 0,0 mm 9,7 km/h (2 Bft) W 279 ° 0 min 0,000 mm 0,0 UV-I 0 W/m² 1,8 °C 0,7 °C 16,1 km/h (3 Bft)
01.03.2019 22:25 3,3 °C 90 % 1018,2 hPa 0,0 mm 12,9 km/h (3 Bft) W 275 ° 0 min 0,000 mm 0,0 UV-I 0 W/m² 1,8 °C 0,0 °C 19,3 km/h (3 Bft)
01.03.2019 22:26 3,4 °C 90 % 1018,2 hPa 0,0 mm 14,8 km/h (3 Bft) W 260 ° 0 min 0,000 mm 0,0 UV-I 0 W/m² 1,9 °C -0,2 °C 22,5 km/h (4 Bft)
01.03.2019 22:27 3,4 °C 90 % 1018,3 hPa 0,0 mm 11,8 km/h (2 Bft) W 267 ° 0 min 0,000 mm 0,0 UV-I 0 W/m² 1,9 °C 0,4 °C 17,7 km/h (3 Bft)
01.03.2019 22:28 3,3 °C 90 % 1018,3 hPa 0,0 mm 12,2 km/h (2 Bft) W 270 ° 0 min 0,000 mm 0,0 UV-I 0 W/m² 1,8 °C 0,2 °C 16,1 km/h (3 Bft)
01.03.2019 22:29 3,3 °C 90 % 1018,2 hPa 0,0 mm 9,7 km/h (2 Bft) W-SW 241 ° 0 min 0,000 mm 0,0 UV-I 0 W/m² 1,8 °C 0,7 °C 19,3 km/h (3 Bft)
01.03.2019 22:30 3,3 °C 90 % 1018,2 hPa 0,0 mm 11,1 km/h (2 Bft) W-NW 282 ° 0 min 0,000 mm 0,0 UV-I 0 W/m² 1,8 °C 0,4 °C 19,3 km/h (3 Bft)
01.03.2019 22:31 3,3 °C 90 % 1018,3 hPa 0,0 mm 8,9 km/h (2 Bft) W 263 ° 0 min 0,000 mm 0,0 UV-I 0 W/m² 1,8 °C 0,9 °C 17,7 km/h (3 Bft)
01.03.2019 22:32 3,4 °C 90 % 1018,2 hPa 0,0 mm 10,4 km/h (2 Bft) SW 216 ° 0 min 0,000 mm 0,0 UV-I 0 W/m² 1,9 °C 0,7 °C 16,1 km/h (3 Bft)
01.03.2019 22:33 3,4 °C 90 % 1018,3 hPa 0,0 mm 8,4 km/h (2 Bft) W-SW 247 ° 0 min 0,000 mm 0,0 UV-I 0 W/m² 1,9 °C 1,1 °C 12,9 km/h (3 Bft)
01.03.2019 22:34 3,4 °C 90 % 1018,3 hPa 0,0 mm 9,9 km/h (2 Bft) W-SW 256 ° 0 min 0,000 mm 0,0 UV-I 0 W/m² 1,9 °C 0,8 °C 14,5 km/h (3 Bft)
01.03.2019 22:35 3,3 °C 90 % 1018,3 hPa 0,0 mm 5,1 km/h (1 Bft) W-SW 255 ° 0 min 0,000 mm 0,0 UV-I 0 W/m² 1,8 °C 2,1 °C 8,0 km/h (2 Bft)
01.03.2019 22:36 3,3 °C 90 % 1018,3 hPa 0,2 mm 10,2 km/h (2 Bft) W 279 ° 0 min 0,000 mm 0,0 UV-I 0 W/m² 1,8 °C 0,6 °C 14,5 km/h (3 Bft)
01.03.2019 22:37 3,3 °C 90 % 1018,3 hPa 0,0 mm 9,1 km/h (2 Bft) W-SW 242 ° 0 min 0,000 mm 0,0 UV-I 0 W/m² 1,8 °C 0,8 °C 14,5 km/h (3 Bft)
01.03.2019 22:38 3,3 °C 90 % 1018,2 hPa 0,0 mm 8,5 km/h (2 Bft) W 268 ° 0 min 0,000 mm 0,0 UV-I 0 W/m² 1,8 °C 1,0 °C 12,9 km/h (3 Bft)
01.03.2019 22:39 3,3 °C 90 % 1018,3 hPa 0,0 mm 7,6 km/h (2 Bft) W 272 ° 0 min 0,000 mm 0,0 UV-I 0 W/m² 1,8 °C 1,3 °C 14,5 km/h (3 Bft)
01.03.2019 22:40 3,3 °C 90 % 1018,3 hPa 0,0 mm 9,1 km/h (2 Bft) W 260 ° 0 min 0,000 mm 0,0 UV-I 0 W/m² 1,8 °C 0,8 °C 12,9 km/h (3 Bft)
01.03.2019 22:41 3,3 °C 90 % 1018,2 hPa 0,0 mm 5,7 km/h (1 Bft) W 260 ° 0 min 0,000 mm 0,0 UV-I 0 W/m² 1,8 °C 1,9 °C 9,7 km/h (2 Bft)
01.03.2019 22:42 3,2 °C 90 % 1018,3 hPa 0,0 mm 6,6 km/h (2 Bft) W 261 ° 0 min 0,000 mm 0,0 UV-I 0 W/m² 1,7 °C 1,4 °C 11,3 km/h (2 Bft)
01.03.2019 22:43 3,2 °C 90 % 1018,3 hPa 0,0 mm 4,3 km/h (1 Bft) W-SW 251 ° 0 min 0,000 mm 0,0 UV-I 0 W/m² 1,7 °C 3,2 °C 8,0 km/h (2 Bft)
01.03.2019 22:44 3,2 °C 90 % 1018,2 hPa 0,0 mm 6,4 km/h (2 Bft) W-SW 254 ° 0 min 0,000 mm 0,0 UV-I 0 W/m² 1,7 °C 1,5 °C 11,3 km/h (2 Bft)
01.03.2019 22:45 3,2 °C 90 % 1018,2 hPa 0,0 mm 10,6 km/h (2 Bft) W 261 ° 0 min 0,000 mm 0,0 UV-I 0 W/m² 1,7 °C 0,4 °C 16,1 km/h (3 Bft)
01.03.2019 22:46 3,2 °C 90 % 1018,2 hPa 0,0 mm 8,7 km/h (2 Bft) W 263 ° 0 min 0,000 mm 0,0 UV-I 0 W/m² 1,7 °C 0,8 °C 11,3 km/h (2 Bft)
01.03.2019 22:47 3,2 °C 90 % 1018,2 hPa 0,0 mm 5,6 km/h (1 Bft) W 263 ° 0 min 0,000 mm 0,0 UV-I 0 W/m² 1,7 °C 1,8 °C 11,3 km/h (2 Bft)
01.03.2019 22:48 3,2 °C 91 % 1018,2 hPa 0,0 mm 6,2 km/h (2 Bft) W 263 ° 0 min 0,000 mm 0,0 UV-I 0 W/m² 1,9 °C 1,6 °C 11,3 km/h (2 Bft)
01.03.2019 22:49 3,2 °C 91 % 1018,2 hPa 0,0 mm 3,1 km/h (1 Bft) W 263 ° 0 min 0,000 mm 0,0 UV-I 0 W/m² 1,9 °C 3,2 °C 6,4 km/h (2 Bft)
01.03.2019 22:50 3,2 °C 91 % 1018,2 hPa 0,0 mm 4,3 km/h (1 Bft) W 263 ° 0 min 0,000 mm 0,0 UV-I 0 W/m² 1,9 °C 3,2 °C 6,4 km/h (2 Bft)
01.03.2019 22:51 3,2 °C 91 % 1018,2 hPa 0,0 mm 4,8 km/h (1 Bft) W 263 ° 0 min 0,000 mm 0,0 UV-I 0 W/m² 1,9 °C 2,1 °C 9,7 km/h (2 Bft)
01.03.2019 22:52 3,2 °C 91 % 1018,2 hPa 0,0 mm 6,6 km/h (2 Bft) W 261 ° 0 min 0,000 mm 0,0 UV-I 0 W/m² 1,9 °C 1,4 °C 9,7 km/h (2 Bft)
01.03.2019 22:53 3,2 °C 91 % 1018,2 hPa 0,0 mm 9,0 km/h (2 Bft) W 262 ° 0 min 0,000 mm 0,0 UV-I 0 W/m² 1,9 °C 0,8 °C 12,9 km/h (3 Bft)
01.03.2019 22:54 3,2 °C 91 % 1018,2 hPa 0,2 mm 4,0 km/h (1 Bft) W 261 ° 0 min 0,000 mm 0,0 UV-I 0 W/m² 1,9 °C 3,2 °C 6,4 km/h (2 Bft)
01.03.2019 22:55 3,2 °C 91 % 1018,2 hPa 0,0 mm 3,3 km/h (1 Bft) S-SO 168 ° 0 min 0,000 mm 0,0 UV-I 0 W/m² 1,9 °C 3,2 °C 6,4 km/h (2 Bft)
01.03.2019 22:56 3,2 °C 91 % 1018,3 hPa 0,0 mm 10,7 km/h (2 Bft) W-SW 254 ° 0 min 0,000 mm 0,0 UV-I 0 W/m² 1,9 °C 0,3 °C 16,1 km/h (3 Bft)
01.03.2019 22:57 3,2 °C 91 % 1018,3 hPa 0,0 mm 10,3 km/h (2 Bft) W-SW 248 ° 0 min 0,000 mm 0,0 UV-I 0 W/m² 1,9 °C 0,4 °C 14,5 km/h (3 Bft)
01.03.2019 22:58 3,2 °C 91 % 1018,3 hPa 0,0 mm 6,2 km/h (2 Bft) W 269 ° 0 min 0,000 mm 0,0 UV-I 0 W/m² 1,9 °C 1,6 °C 11,3 km/h (2 Bft)
01.03.2019 22:59 3,1 °C 91 % 1018,2 hPa 0,0 mm 8,0 km/h (2 Bft) W 263 ° 0 min 0,000 mm 0,0 UV-I 0 W/m² 1,8 °C 0,9 °C 11,3 km/h (2 Bft)
01.03.2019 23:00 3,1 °C 91 % 1018,3 hPa 0,0 mm 7,1 km/h (2 Bft) SW 226 ° 0 min 0,000 mm 0,0 UV-I 0 W/m² 1,8 °C 1,2 °C 11,3 km/h (2 Bft)
01.03.2019 23:01 3,1 °C 91 % 1018,3 hPa 0,0 mm 7,3 km/h (2 Bft) W-SW 254 ° 0 min 0,000 mm 0,0 UV-I 0 W/m² 1,8 °C 1,1 °C 9,7 km/h (2 Bft)
01.03.2019 23:02 3,1 °C 91 % 1018,3 hPa 0,0 mm 3,1 km/h (1 Bft) W 266 ° 0 min 0,000 mm 0,0 UV-I 0 W/m² 1,8 °C 3,1 °C 4,8 km/h (1 Bft)
01.03.2019 23:03 3,1 °C 91 % 1018,3 hPa 0,0 mm 10,7 km/h (2 Bft) W-SW 257 ° 0 min 0,000 mm 0,0 UV-I 0 W/m² 1,8 °C 0,2 °C 16,1 km/h (3 Bft)
01.03.2019 23:04 3,1 °C 91 % 1018,3 hPa 0,0 mm 8,2 km/h (2 Bft) W-SW 249 ° 0 min 0,000 mm 0,0 UV-I 0 W/m² 1,8 °C 0,8 °C 12,9 km/h (3 Bft)
01.03.2019 23:05 3,1 °C 91 % 1018,3 hPa 0,2 mm 8,8 km/h (2 Bft) W 259 ° 0 min 0,000 mm 0,0 UV-I 0 W/m² 1,8 °C 0,7 °C 12,9 km/h (3 Bft)
01.03.2019 23:06 3,1 °C 91 % 1018,3 hPa 0,0 mm 6,3 km/h (2 Bft) SW 233 ° 0 min 0,000 mm 0,0 UV-I 0 W/m² 1,8 °C 1,4 °C 11,3 km/h (2 Bft)
01.03.2019 23:07 3,1 °C 91 % 1018,2 hPa 0,0 mm 9,8 km/h (2 Bft) W 277 ° 0 min 0,000 mm 0,0 UV-I 0 W/m² 1,8 °C 0,4 °C 12,9 km/h (3 Bft)
01.03.2019 23:08 3,1 °C 91 % 1018,3 hPa 0,0 mm 5,3 km/h (1 Bft) W-SW 252 ° 0 min 0,000 mm 0,0 UV-I 0 W/m² 1,8 °C 1,8 °C 11,3 km/h (2 Bft)
01.03.2019 23:09 3,1 °C 91 % 1018,3 hPa 0,0 mm 4,1 km/h (1 Bft) SW 230 ° 0 min 0,000 mm 0,0 UV-I 0 W/m² 1,8 °C 3,1 °C 8,0 km/h (2 Bft)
01.03.2019 23:10 3,1 °C 91 % 1018,2 hPa 0,0 mm 8,8 km/h (2 Bft) W 269 ° 0 min 0,000 mm 0,0 UV-I 0 W/m² 1,8 °C 0,7 °C 16,1 km/h (3 Bft)
01.03.2019 23:11 3,1 °C 91 % 1018,3 hPa 0,0 mm 6,4 km/h (2 Bft) W-SW 239 ° 0 min 0,000 mm 0,0 UV-I 0 W/m² 1,8 °C 1,4 °C 12,9 km/h (3 Bft)
01.03.2019 23:12 3,1 °C 91 % 1018,3 hPa 0,0 mm 6,1 km/h (2 Bft) W 267 ° 0 min 0,000 mm 0,0 UV-I 0 W/m² 1,8 °C 1,5 °C 9,7 km/h (2 Bft)
01.03.2019 23:13 3,0 °C 91 % 1018,3 hPa 0,0 mm 6,1 km/h (2 Bft) W-SW 256 ° 0 min 0,000 mm 0,0 UV-I 0 W/m² 1,7 °C 1,4 °C 9,7 km/h (2 Bft)
01.03.2019 23:14 3,0 °C 91 % 1018,2 hPa 0,0 mm 5,2 km/h (1 Bft) W 263 ° 0 min 0,000 mm 0,0 UV-I 0 W/m² 1,7 °C 1,7 °C 9,7 km/h (2 Bft)
01.03.2019 23:15 3,0 °C 91 % 1018,3 hPa 0,0 mm 6,8 km/h (2 Bft) W 271 ° 0 min 0,000 mm 0,0 UV-I 0 W/m² 1,7 °C 1,1 °C 9,7 km/h (2 Bft)
01.03.2019 23:16 3,0 °C 91 % 1018,2 hPa 0,0 mm 5,9 km/h (2 Bft) W 260 ° 0 min 0,000 mm 0,0 UV-I 0 W/m² 1,7 °C 1,5 °C 11,3 km/h (2 Bft)
01.03.2019 23:17 3,0 °C 91 % 1018,3 hPa 0,0 mm 6,3 km/h (2 Bft) S-SW 196 ° 0 min 0,000 mm 0,0 UV-I 0 W/m² 1,7 °C 1,3 °C 9,7 km/h (2 Bft)
01.03.2019 23:18 3,0 °C 91 % 1018,2 hPa 0,0 mm 3,9 km/h (1 Bft) SW 230 ° 0 min 0,000 mm 0,0 UV-I 0 W/m² 1,7 °C 3,0 °C 6,4 km/h (2 Bft)
01.03.2019 23:19 3,0 °C 92 % 1018,3 hPa 0,0 mm 3,8 km/h (1 Bft) W-SW 252 ° 0 min 0,000 mm 0,0 UV-I 0 W/m² 1,8 °C 3,0 °C 6,4 km/h (2 Bft)
01.03.2019 23:20 3,0 °C 92 % 1018,3 hPa 0,0 mm 4,7 km/h (1 Bft) W 259 ° 0 min 0,000 mm 0,0 UV-I 0 W/m² 1,8 °C 1,9 °C 9,7 km/h (2 Bft)
01.03.2019 23:21 3,0 °C 92 % 1018,4 hPa 0,0 mm 3,6 km/h (1 Bft) W 269 ° 0 min 0,000 mm 0,0 UV-I 0 W/m² 1,8 °C 3,0 °C 6,4 km/h (2 Bft)
01.03.2019 23:22 3,0 °C 92 % 1018,3 hPa 0,0 mm 5,1 km/h (1 Bft) W 267 ° 0 min 0,000 mm 0,0 UV-I 0 W/m² 1,8 °C 1,8 °C 9,7 km/h (2 Bft)
01.03.2019 23:23 2,9 °C 91 % 1018,3 hPa 0,0 mm 4,2 km/h (1 Bft) W 267 ° 0 min 0,000 mm 0,0 UV-I 0 W/m² 1,6 °C 2,9 °C 6,4 km/h (2 Bft)
01.03.2019 23:24 3,0 °C 91 % 1018,3 hPa 0,0 mm 5,6 km/h (1 Bft) W 263 ° 0 min 0,000 mm 0,0 UV-I 0 W/m² 1,7 °C 1,6 °C 9,7 km/h (2 Bft)
01.03.2019 23:25 2,9 °C 92 % 1018,3 hPa 0,0 mm 9,1 km/h (2 Bft) W 264 ° 0 min 0,000 mm 0,0 UV-I 0 W/m² 1,7 °C 0,4 °C 14,5 km/h (3 Bft)
01.03.2019 23:26 2,9 °C 91 % 1018,3 hPa 0,0 mm 7,2 km/h (2 Bft) W 279 ° 0 min 0,000 mm 0,0 UV-I 0 W/m² 1,6 °C 0,9 °C 16,1 km/h (3 Bft)
01.03.2019 23:27 2,9 °C 92 % 1018,3 hPa 0,0 mm 8,5 km/h (2 Bft) W 265 ° 0 min 0,000 mm 0,0 UV-I 0 W/m² 1,7 °C 0,5 °C 14,5 km/h (3 Bft)
01.03.2019 23:28 2,9 °C 92 % 1018,3 hPa 0,0 mm 8,3 km/h (2 Bft) W 277 ° 0 min 0,000 mm 0,0 UV-I 0 W/m² 1,7 °C 0,6 °C 12,9 km/h (3 Bft)
01.03.2019 23:29 2,9 °C 92 % 1018,3 hPa 0,0 mm 6,4 km/h (2 Bft) W 261 ° 0 min 0,000 mm 0,0 UV-I 0 W/m² 1,7 °C 1,2 °C 11,3 km/h (2 Bft)
01.03.2019 23:30 2,9 °C 91 % 1018,3 hPa 0,0 mm 5,7 km/h (1 Bft) W 267 ° 0 min 0,000 mm 0,0 UV-I 0 W/m² 1,6 °C 1,4 °C 14,5 km/h (3 Bft)
01.03.2019 23:31 2,9 °C 92 % 1018,3 hPa 0,0 mm 7,9 km/h (2 Bft) W 275 ° 0 min 0,000 mm 0,0 UV-I 0 W/m² 1,7 °C 0,7 °C 11,3 km/h (2 Bft)
01.03.2019 23:32 2,9 °C 91 % 1018,4 hPa 0,0 mm 6,0 km/h (2 Bft) W 273 ° 0 min 0,000 mm 0,0 UV-I 0 W/m² 1,6 °C 1,3 °C 9,7 km/h (2 Bft)
01.03.2019 23:33 2,9 °C 92 % 1018,4 hPa 0,0 mm 7,2 km/h (2 Bft) W 262 ° 0 min 0,000 mm 0,0 UV-I 0 W/m² 1,7 °C 0,9 °C 11,3 km/h (2 Bft)
01.03.2019 23:34 3,0 °C 92 % 1018,4 hPa 0,0 mm 6,8 km/h (2 Bft) W 265 ° 0 min 0,000 mm 0,0 UV-I 0 W/m² 1,8 °C 1,1 °C 11,3 km/h (2 Bft)
01.03.2019 23:35 3,0 °C 92 % 1018,4 hPa 0,0 mm 8,9 km/h (2 Bft) W-NW 290 ° 0 min 0,000 mm 0,0 UV-I 0 W/m² 1,8 °C 0,5 °C 12,9 km/h (3 Bft)
01.03.2019 23:36 3,0 °C 92 % 1018,4 hPa 0,2 mm 6,9 km/h (2 Bft) W-NW 295 ° 0 min 0,000 mm 0,0 UV-I 0 W/m² 1,8 °C 1,1 °C 11,3 km/h (2 Bft)
01.03.2019 23:37 3,0 °C 92 % 1018,4 hPa 0,0 mm 8,4 km/h (2 Bft) W 272 ° 0 min 0,000 mm 0,0 UV-I 0 W/m² 1,8 °C 0,7 °C 14,5 km/h (3 Bft)
01.03.2019 23:38 3,0 °C 92 % 1018,4 hPa 0,0 mm 14,2 km/h (3 Bft) W 273 ° 0 min 0,000 mm 0,0 UV-I 0 W/m² 1,8 °C -0,6 °C 20,9 km/h (4 Bft)
01.03.2019 23:39 3,0 °C 92 % 1018,4 hPa 0,0 mm 14,0 km/h (3 Bft) NW 309 ° 0 min 0,000 mm 0,0 UV-I 0 W/m² 1,8 °C -0,5 °C 20,9 km/h (4 Bft)
01.03.2019 23:40 3,0 °C 92 % 1018,3 hPa 0,2 mm 8,9 km/h (2 Bft) W-SW 257 ° 0 min 0,000 mm 0,0 UV-I 0 W/m² 1,8 °C 0,5 °C 12,9 km/h (3 Bft)
01.03.2019 23:41 3,0 °C 92 % 1018,3 hPa 0,0 mm 9,4 km/h (2 Bft) W 275 ° 0 min 0,000 mm 0,0 UV-I 0 W/m² 1,8 °C 0,4 °C 12,9 km/h (3 Bft)
01.03.2019 23:42 2,9 °C 92 % 1018,3 hPa 0,0 mm 10,1 km/h (2 Bft) W-SW 257 ° 0 min 0,000 mm 0,0 UV-I 0 W/m² 1,7 °C 0,1 °C 16,1 km/h (3 Bft)
01.03.2019 23:43 2,9 °C 92 % 1018,3 hPa 0,0 mm 8,3 km/h (2 Bft) W 262 ° 0 min 0,000 mm 0,0 UV-I 0 W/m² 1,7 °C 0,6 °C 14,5 km/h (3 Bft)
01.03.2019 23:44 2,9 °C 91 % 1018,3 hPa 0,0 mm 5,6 km/h (1 Bft) W 279 ° 0 min 0,000 mm 0,0 UV-I 0 W/m² 1,6 °C 1,5 °C 11,3 km/h (2 Bft)
01.03.2019 23:45 2,9 °C 91 % 1018,3 hPa 0,0 mm 5,3 km/h (1 Bft) W-SW 248 ° 0 min 0,000 mm 0,0 UV-I 0 W/m² 1,6 °C 1,6 °C 8,0 km/h (2 Bft)
01.03.2019 23:46 2,9 °C 91 % 1018,3 hPa 0,0 mm 3,3 km/h (1 Bft) W-SW 248 ° 0 min 0,000 mm 0,0 UV-I 0 W/m² 1,6 °C 2,9 °C 4,8 km/h (1 Bft)
01.03.2019 23:47 2,9 °C 91 % 1018,3 hPa 0,0 mm 4,4 km/h (1 Bft) SW 224 ° 0 min 0,000 mm 0,0 UV-I 0 W/m² 1,6 °C 2,9 °C 8,0 km/h (2 Bft)
01.03.2019 23:48 2,9 °C 92 % 1018,3 hPa 0,0 mm 2,3 km/h (1 Bft) SW 224 ° 0 min 0,000 mm 0,0 UV-I 0 W/m² 1,7 °C 2,9 °C 4,8 km/h (1 Bft)
01.03.2019 23:49 2,9 °C 92 % 1018,3 hPa 0,0 mm 1,8 km/h (1 Bft) SW 224 ° 0 min 0,000 mm 0,0 UV-I 0 W/m² 1,7 °C 2,9 °C 3,2 km/h (1 Bft)
01.03.2019 23:50 2,9 °C 92 % 1018,2 hPa 0,0 mm 4,2 km/h (1 Bft) SW 221 ° 0 min 0,000 mm 0,0 UV-I 0 W/m² 1,7 °C 2,9 °C 6,4 km/h (2 Bft)
01.03.2019 23:51 2,9 °C 92 % 1018,3 hPa 0,2 mm 9,1 km/h (2 Bft) W-SW 246 ° 0 min 0,000 mm 0,0 UV-I 0 W/m² 1,7 °C 0,4 °C 14,5 km/h (3 Bft)
01.03.2019 23:52 2,9 °C 92 % 1018,2 hPa 0,0 mm 5,2 km/h (1 Bft) W-SW 254 ° 0 min 0,000 mm 0,0 UV-I 0 W/m² 1,7 °C 1,6 °C 8,0 km/h (2 Bft)
01.03.2019 23:53 2,9 °C 92 % 1018,2 hPa 0,0 mm 4,0 km/h (1 Bft) W 263 ° 0 min 0,000 mm 0,0 UV-I 0 W/m² 1,7 °C 2,9 °C 9,7 km/h (2 Bft)
01.03.2019 23:54 2,9 °C 92 % 1018,2 hPa 0,0 mm 3,6 km/h (1 Bft) W-SW 246 ° 0 min 0,000 mm 0,0 UV-I 0 W/m² 1,7 °C 2,9 °C 9,7 km/h (2 Bft)
01.03.2019 23:55 2,9 °C 92 % 1018,3 hPa 0,0 mm 3,7 km/h (1 Bft) SW 225 ° 0 min 0,000 mm 0,0 UV-I 0 W/m² 1,7 °C 2,9 °C 6,4 km/h (2 Bft)
01.03.2019 23:56 2,9 °C 92 % 1018,2 hPa 0,0 mm 1,9 km/h (1 Bft) SW 225 ° 0 min 0,000 mm 0,0 UV-I 0 W/m² 1,7 °C 2,9 °C 4,8 km/h (1 Bft)
01.03.2019 23:57 2,9 °C 92 % 1018,2 hPa 0,0 mm 3,2 km/h (1 Bft) SW 232 ° 0 min 0,000 mm 0,0 UV-I 0 W/m² 1,7 °C 2,9 °C 6,4 km/h (2 Bft)
01.03.2019 23:58 2,9 °C 92 % 1018,2 hPa 0,0 mm 5,4 km/h (1 Bft) W-SW 251 ° 0 min 0,000 mm 0,0 UV-I 0 W/m² 1,7 °C 1,5 °C 11,3 km/h (2 Bft)
01.03.2019 23:59 2,9 °C 92 % 1018,2 hPa 0,0 mm 4,4 km/h (1 Bft) W-SW 252 ° 0 min 0,000 mm 0,0 UV-I 0 W/m² 1,7 °C 2,9 °C 6,4 km/h (2 Bft)
_ Min-Zeit 23:59 06:28 09:11 - 23:49 - - - - - - 05:50 17:13 23:49
Minimum _ 2,9 °C 70 % 1012,4 hPa - 1,8 km/h (1 Bft) - - - - - - 0,5 °C -1,3 °C 3,2 km/h (1 Bft)
_ Max-Zeit 00:01 23:59 23:39 23:51 09:39 - - 23:59 15:01 13:08 13:00 14:43 00:53 09:41
Maximum _ 6,3 °C 92 % 1018,4 hPa 0,2 mm 29,6 km/h
W (5 Bft)
- - 0 min 0,076 mm 1,6 UV-I 236 W/m² 2,7 °C 5,9 °C 38,6 km/h
W (5 Bft)
Durchschnitt _ 4,3 °C 83 % 1014,8 hPa #5,4 mm 11,0 km/h (2 Bft) W - #0 min. #0,813 mm 0,9 UV-I 44 W/m² 1,7 °C 1,7 °C 16,6 km/h (3 Bft)